     2              OBSERVATION DATA    GPS                 RINEX VERSION / TYPE
teqc 2000Feb29 20020409 20:45:30UTC                         PGM / RUN BY / DATE
                                                            COMMENT
L2: 1 -> 1; 150 -> 5; 250 -> 9                              COMMENT
L2: 1 -> 1; 150 -> 5; 250 -> 9                              COMMENT
L2: 1 -> 1; 150 -> 5; 250 -> 9                              COMMENT
L2: 1 -> 1; 150 -> 5; 250 -> 9                              COMMENT
L2: 1 -> 1; 150 -> 5; 250 -> 9                              COMMENT
Original Marker Name: LE06                                  COMMENT
Campaign Name: Northern Baja                                COMMENT
4-Character Station Name: LE06                              COMMENT
6-Character Antenna Code: DMRCHT                            COMMENT
Vertical Measurement Point: BCR                             COMMENT
Vertical Offset to Rinex Ref. Point: 0.0348                 COMMENT
Radial Measurement Point: ECF                               COMMENT
Radial Offset to Rinex Ref. Point: 0.1897                   COMMENT
Antenna Height from Field Measurement: 1.1212 m             COMMENT
Additional Antenna Identification Info.:                    COMMENT
Turborogue and Ashtech Choke Ring                           COMMENT
Original XYZ: -2297860.8172 -4875666.2209 3398570.1130      COMMENT
New XYZ position is based on association with SCEC monument COMMENT
E1C9D2N3+0011. Position of that monument is believed to be  COMMENT
valid to within 1 m horizontally; vertical accuracy         COMMENT
should be no worse than 3-times this value.                 COMMENT
                                                            COMMENT
Revised Rinex header created by UCSD GPS archive for        COMMENT
GSAC on 27-Jun-2003 (2003:178) 15:47:08 GMT                 COMMENT
For assistance contact dagnew@ucsd.edu                      COMMENT
or anderson@python.ucsd.edu                                 COMMENT
                                                            COMMENT
EVAPORACION 06                                              MARKER NAME
JGG CICESE (ENSENADA)                                       OBSERVER / AGENCY
317 ASHTECH Z-XII3 CC00                                     REC # / TYPE / VERS
408 DORNE-MARGOL. TYPE T                                    ANT # / TYPE
 -2301773.2662 -4874926.7067  3396985.2992                  APPROX POSITION XYZ
        1.0702        0.0000        0.0000                  ANTENNA: DELTA H/E/N
     1     1     0                                          WAVELENGTH FACT L1/2
     7    C1    L1    L2    P1    P2    S1    S2            # / TYPES OF OBSERV
     0                                                      INTERVAL
  2002     2    24    13    41    0.000000                  TIME OF FIRST OBS
  2002     2    24    20    38    0.000000                  TIME OF LAST OBS
                                                            END OF HEADER
 02  2 24 13 41  0.0000000  0  8G31G28G27G 3G 2G 8G 1G13
                    -29509.53049    -21536.50343
       236.000          74.000
  22868495.807     -190522.81149   -134090.49246  22868495.560    22868501.216
       227.000         176.000
  21248370.586      -75176.54449    -53618.23247  21248370.109    21248376.513
       240.000         206.000
                     97116.85349     62566.83843                  23871287.321
       211.000          79.000
  22283296.097      115352.34249     79914.54747  22283295.226    22283302.610
       236.000         194.000
  21891686.056     -135040.06449    -96100.84347  21891685.571    21891692.384
       233.000         188.000
  22465266.293      173662.23349    121459.13246  22465265.410    22465272.893
       232.000         184.000
  20772295.483       73020.79649     52643.71747  20772295.639    20772300.794
       243.000         211.000
 02  2 24 13 41 29.9990000  0  8G31G28G27G 3G 2G 8G 1G13
                    -41537.40249       -84.10443
       237.000          74.000
  22552990.012     -273096.44049   -198433.56346  22552989.750    22552995.569
       228.000         178.000
  20942283.084     -108256.05049    -79394.47247  20942282.639    20942289.153
       240.000         207.000
  23581923.532      151953.00349    105296.19545  23581922.765    23581931.170
       211.000         142.000
  21992910.942      164789.25949    118436.79747  21992910.435    21992917.606
       236.000         195.000
  21579383.808     -200780.78749   -147327.37047  21579383.104    21579389.677
       234.000         190.000
  22179821.520      249061.79349    180211.98446  22179821.229    22179828.468
       230.000         184.000
  20478269.019      103319.51249     76253.08547  20478268.819    20478274.058
       243.000         212.000
 02  2 24 13 42  0.0000000  0  9G31G28G27G 3G 2G 8G 1G10G13
  21422141.264    -1269345.43849   -956817.46947  21422139.951    21422146.552
       236.000         188.000
  22605649.945    -1571785.48049  -1210399.03646  22605649.914    22605655.166
       228.000         179.000
  21004332.983    -1357601.13149  -1052910.12247  21004332.723    21004339.181
       240.000         207.000
  23660761.798    -1009167.15549   -799472.86045  23660761.825    23660769.825
       212.000         148.000
  22070663.952    -1002035.13549   -790777.04647  22070663.498    22070670.892
       236.000         195.000
  21635211.803    -1482822.80249  -1146321.13447  21635211.505    21635217.444
       234.000         190.000
  22262551.321     -891609.36949   -708622.74246  22262550.847    22262559.023
       229.000         182.000
  24361749.353    -1331891.03249  -1029816.45145  24361748.033    24361755.397
       213.000         143.000
  20552449.658    -1082279.12849   -847590.02747  20552449.495    20552454.474
       243.000         212.000
 02  2 24 13 42 30.0000000  0  9G31G28G27G 3G 2G 8G 1G10G13
  21421932.015    -1270443.97249   -957673.48447  21421930.996    21421938.220
       236.000         194.000
  22591889.775    -1644096.66049  -1266745.39746  22591889.380    22591895.152
       229.000         179.000
  20999933.554    -1380720.66549  -1070925.35247  20999933.179    20999939.603
       240.000         207.000
  23673208.835     -943760.04349   -748506.37145  23673208.879    23673216.704
       215.000         150.000
  22081967.456     -942636.50849   -744492.44047  22081966.872    22081974.278
       236.000         195.000
  21624583.735    -1538673.42349  -1189841.09147  21624582.603    21624589.878
       233.000         190.000
  22278867.445     -805868.13549   -641811.46046  22278867.531    22278873.898
       229.000         180.000
  24356283.412    -1360604.95849  -1052190.94445  24356282.576    24356290.782
       213.000         149.000
  20560249.908    -1041288.37649   -815649.19447  20560249.975    20560254.957
       244.000         212.000
 02  2 24 13 43  0.0000000  0  9G31G28G27G 3G 2G 8G 1G10G13
  21421840.060    -1270926.46649   -958049.47047  21421839.289    21421846.286
       236.000         195.000
  22578183.384    -1716124.83949  -1322871.23246  22578183.379    22578188.123
       229.000         179.000
  20995559.223    -1403708.19849  -1088837.71547  20995558.907    20995565.422
       240.000         207.000
  23685738.181     -877919.70349   -697202.30845  23685738.614    23685746.489
       215.000         152.000
  22093295.388     -883108.41349   -698106.94147  22093295.100    22093302.053
       236.000         195.000
  21613974.044    -1594427.47949  -1233285.80147  21613973.428    21613980.225
       233.000         190.000
  22295244.223     -719807.68349   -574751.42946  22295244.234    22295251.007
       228.000         179.000
  24350915.820    -1388811.99449  -1074170.44645  24350915.812    24350923.437
       210.000         150.000
  20568144.562     -999801.78149   -783321.99847  20568144.740    20568149.409
       244.000         212.000
 02  2 24 13 43 30.0000000  0  9G31G28G27G 3G 2G 8G 1G10G13
  21421866.568    -1270787.19949   -957940.98147  21421866.241    21421872.596
       237.000         195.000
  22564531.895    -1787864.20649  -1378772.01846  22564531.340    22564537.083
       229.000         179.000
  20991211.228    -1426557.61949  -1106642.46547  20991210.927    20991217.423
       240.000         208.000
  23698350.526     -811642.54449   -645557.87145  23698351.213    23698357.746
       217.000         154.000
  22104648.579     -823447.33949   -651617.82547  22104648.031    22104655.335
       235.000         195.000
  21603383.863    -1650079.36549  -1276650.89547  21603383.559    21603389.974
       233.000         190.000
  22311682.513     -633424.44949   -507439.89346  22311682.124    22311689.850
       227.000         178.000
  24345645.894    -1416506.63349  -1095750.69445  24345645.131    24345652.686
       210.000         151.000
  20576134.499     -957814.67149   -750604.79847  20576134.658    20576139.644
       244.000         212.000
 02  2 24 13 44  0.0000000  0  9G31G28G27G 3G 2G 8G 1G10G13
  21422011.578    -1270025.33949   -957347.34747  21422010.830    21422017.886
       236.000         195.000
  22550935.587    -1859313.66749  -1434446.90146  22550935.542    22550941.311
       229.000         180.000
  20986889.692    -1449267.77049  -1124338.69447  20986889.539    20986895.652
       241.000         208.000
  23711045.607     -744930.53349   -593574.59445  23711045.535    23711053.419
       216.000         156.000
  22116026.861     -763654.38149   -605025.94547  22116026.084    22116033.392
       235.000         195.000
  21592813.253    -1705628.26849  -1319935.74847  21592812.727    21592819.437
       233.000         190.000
  22328181.974     -546719.76649   -439877.87746  22328181.562    22328190.115
       227.000         178.000
  24340473.676    -1443687.92849  -1116930.91645  24340473.141    24340479.949
       212.000         152.000
  20584219.583     -915327.14349   -717497.66047  20584219.551    20584224.786
       243.000         212.000
 02  2 24 13 44 30.0000000  0  9G31G28G27G 3G 2G 8G 1G10G13
  21422275.305    -1268639.44049   -956267.44947  21422274.678    21422281.451
       236.000         195.000
  22537394.826    -1930471.39949  -1489894.46346  22537394.456    22537400.312
       230.000         180.000
  20982595.046    -1471836.56549  -1141924.77947  20982594.802    20982601.274
       241.000         208.000
  23723823.326     -677784.10649   -541252.81645  23723823.289    23723830.701
       215.000         157.000
  22127430.175     -703729.69549   -558331.42847  22127429.649    22127436.714
       235.000         194.000
  21582262.587    -1761072.34849  -1363138.92247  21582262.071    21582268.622
       233.000         190.000
  22344742.561     -459693.92849   -372065.62046  22344742.457    22344750.338
       227.000         178.000
  24335399.486    -1470354.06449  -1137709.72345  24335398.644    24335407.128
       213.000         151.000
  20592400.050     -872338.38549   -683999.95847  20592400.078    20592405.372
       243.000         211.000
 02  2 24 13 45  0.0000000  0  9G31G28G27G 3G 2G 8G 1G10G13
  21422657.909    -1266629.01549   -954700.90947  21422657.483    21422664.245
       237.000         195.000
  22523909.688    -2001336.53649  -1545114.03446  22523908.712    22523914.990
       230.000         181.000
  20978327.477    -1494262.95649  -1159399.90047  20978327.076    20978333.273
       241.000         208.000
  23736683.174     -610205.32449   -488594.15145  23736682.766    23736690.690
       215.000         156.000
  22138858.317     -643674.75549   -511535.40647  22138857.678    22138864.978
       235.000         194.000
  21571732.032    -1816410.96649  -1406259.91647  21571731.321    21571737.969
       233.000         190.000
  22361363.994     -372348.51749   -304004.34746  22361363.700    22361371.272
       227.000         178.000
  24330423.289    -1496504.36349  -1158086.58345  24330423.049    24330429.853
       206.000         150.000
  20600675.789     -828848.81349   -650112.00347  20600675.759    20600681.111
       242.000         211.000
 02  2 24 13 45 30.0000000  0  9G31G28G27G 3G 2G 8G 1G10G13
  21423159.489    -1263993.63649   -952647.39547  21423159.066    21423165.706
       237.000         195.000
  22510480.333    -2071908.32949  -1600105.01946  22510479.479    22510485.506
       229.000         181.000
  20974087.197    -1516545.96649  -1176763.28947  20974087.022    20974093.249
       241.000         208.000
  23749624.849     -542195.84249   -435599.86745  23749623.548    23749632.351
       212.000         155.000
  22150311.018     -583490.75149   -464638.82047  22150310.589    22150317.885
       235.000         194.000
  21561221.675    -1871643.49949  -1449298.24647  21561221.137    21561227.423
       233.000         191.000
  22378045.982     -284684.95149   -235695.14546  22378045.741    22378053.084
       228.000         179.000
  24325545.304    -1522138.49949  -1178061.23145  24325544.586    24325551.543
       211.000         151.000
  20609046.726     -784859.13149   -615834.34847  20609046.624    20609052.266
       243.000         211.000
 02  2 24 13 46  0.0000000  0  9G31G28G27G 3G 2G 8G 1G10G13
  21423780.012    -1260733.24549   -950106.86747  21423779.366    21423786.228
       237.000         195.000
  22497106.810    -2142186.65949  -1654867.33546  22497105.948    22497111.927
       229.000         181.000
  20969874.332    -1538685.00449  -1194014.50147  20969873.918    20969880.284
       240.000         207.000
  23762648.086     -473757.92749   -382271.75745  23762647.791    23762656.256
       209.000         154.000
  22161787.865     -523179.71649   -417643.25047  22161787.274    22161795.206
       235.000         194.000
  21550731.522    -1926769.84049  -1492253.83447  21550731.189    21550737.740
       233.000         191.000
  22394788.048     -196705.42349   -167139.76046  22394787.951    22394795.200
       227.000         179.000
  24320765.594    -1547256.46149  -1197633.67445  24320764.935    24320771.209
       212.000         151.000
  20617512.745     -740370.15849   -581167.64747  20617513.063    20617518.342
       243.000         211.000
 02  2 24 13 46 30.0000000  0  9G31G28G27G 3G 2G 8G 1G10G13
  21424519.370    -1256848.22749   -947079.60547  21424518.654    21424525.227
       237.000         195.000
  22483789.096    -2212171.56149  -1709401.01646  22483788.297    22483794.507
       229.000         181.000
  20965688.821    -1560679.93449  -1211153.41247  20965688.396    20965694.929
       241.000         207.000
  23775752.409     -404894.53249   -328612.11645  23775752.949    23775760.888
       210.000         153.000
  22173288.454     -462743.88149   -370550.43647  22173287.762    22173295.296
       236.000         194.000
  21540261.492    -1981790.07649  -1535126.73747  21540260.998    21540267.681
       234.000         191.000
  22411589.765     -108412.19349    -98339.92346  22411589.190    22411596.498
       227.000         179.000
  24316084.088    -1571858.42449  -1216804.03145  24316083.376    24316090.611
       213.000         151.000
  20626073.467     -695383.49549   -546113.13047  20626073.576    20626079.139
       243.000         211.000
 02  2 24 13 47  0.0000000  0  9G31G28G27G 3G 2G 8G 1G10G13
  21425377.743    -1252337.35749   -943564.66747  21425377.050    21425383.885
       236.000         195.000
  22470527.485    -2281861.59649  -1763704.93046  22470527.188    22470532.607
       229.000         181.000
  20961531.097    -1582528.92149  -1228178.60647  20961530.634    20961537.099
       240.000         207.000
  23788937.522     -335607.00249   -274621.97845  23788938.031    23788946.179
       212.000         153.000
  22184812.725     -402183.76049   -323360.76447  22184812.384    22184819.285
       235.000         193.000
  21529811.903    -2036702.87649  -1577915.92547  21529811.342    21529817.610
       234.000         192.000
  22428451.012      -19805.95549    -29296.18646  22428450.597    22428458.653
       227.000         179.000
  24311500.970    -1595943.26749  -1235571.43845  24311499.819    24311507.727
       212.000         150.000
  20634728.992     -649898.61849   -510670.40047  20634729.394    20634734.510
       243.000         212.000
 02  2 24 13 47 30.0000000  0  9G31G28G27G 3G 2G 8G 1G10G13
  21426355.081    -1247201.23449   -939562.52747  21426354.344    21426361.446
       236.000         194.000
  22457321.950    -2351256.90749  -1817779.17846  22457321.240    22457327.250
       231.000         182.000
  20957401.235    -1604231.72349  -1245089.89347  20957400.933    20957407.345
       240.000         207.000
  23802202.926     -265897.97349   -220303.40245  23802203.098    23802211.557
       211.000         154.000
  22196360.166     -341501.57949   -276075.99347  22196359.580    22196366.635
       234.000         193.000
  21519382.770    -2091508.39149  -1620621.51547  21519382.222    21519388.980
       234.000         192.000
  22445371.336       69110.84449     39989.54646  22445371.722    22445379.107
       227.000         179.000
  24307016.024    -1619511.44449  -1253936.24745  24307015.673    24307023.501
       206.000         151.000
  20643479.081     -603917.00549   -474840.59847  20643479.167    20643484.571
       243.000         212.000
 02  2 24 13 48  0.0000000  0  9G31G28G27G 3G 2G 8G 1G10G13
  21427451.439    -1241439.75349   -935073.09047  21427450.984    21427457.605
       237.000         194.000
  22444172.680    -2420356.97349  -1871623.37246  22444172.763    22444177.835
       230.000         182.000
  20953299.316    -1625787.50449  -1261886.61447  20953298.963    20953305.378
       240.000         207.000
  23815548.054     -195769.62049   -165658.07945  23815548.149    23815557.138
       214.000         154.000
  22207930.567     -280698.91749   -228697.33747  22207929.650    22207937.230
       234.000         192.000
  21508974.163    -2146206.16749  -1663243.15447  21508973.517    21508980.132
       234.000         192.000
  22462350.457      158336.30249    109515.77946  22462350.109    22462357.393
       227.000         178.000
  24302629.456    -1642562.59349  -1271898.15245  24302628.330    24302636.745
       210.000         149.000
  20652323.423     -557439.66749   -438624.51747  20652323.434    20652328.965
       243.000         211.000
 02  2 24 13 48 30.0000000  0  9G31G28G27G 3G 2G 8G 1G10G13
  21428666.915    -1235052.86449   -930096.32447  21428666.763    21428672.979
       237.000         194.000
  22431079.669    -2489161.30549  -1925237.12346  22431078.997    22431085.676
       231.000         183.000
  20949225.549    -1647195.53549  -1278568.21247  20949225.323    20949231.566
       240.000         207.000
  23828972.573     -125224.18849   -110687.74745  23828972.795    23828981.219
       215.000         154.000
  22219523.590     -219777.19349   -181225.91347  22219523.044    22219529.870
       234.000         192.000
  21498586.124    -2200795.72049  -1705780.46747  21498585.499    21498591.899
       234.000         193.000
  22479387.963      247868.72149    179281.21246  22479388.183    22479395.454
       227.000         178.000
  24298341.438    -1665096.43049  -1289456.99545  24298340.429    24298348.049
       210.000         149.000
  20661262.007     -510467.25049   -402022.66647  20661262.196    20661267.546
       243.000         211.000
 02  2 24 13 49  0.0000000  0  9G31G28G27G 3G 2G 8G 1G10G13
  21430001.360    -1228040.71349   -924632.34947  21430000.659    21430007.492
       236.000         194.000
  22418042.991    -2557669.59449  -1978620.19646  22418042.642    22418048.437
       230.000         183.000
  20945180.024    -1668454.91749  -1295133.98147  20945179.534    20945186.286
       241.000         207.000
  23842476.118      -54263.66149    -55393.96445  23842476.587    23842484.600
       214.000         154.000
  22231139.005     -158738.03649   -133662.98347  22231138.653    22231145.873
       233.000         192.000
  21488218.723    -2255276.76949  -1748233.23547  21488218.076    21488224.612
       234.000         193.000
  22496483.581      337706.19849    249284.34646  22496483.009    22496491.045
       227.000         177.000
  24294151.858    -1687113.15449  -1306612.87945  24294149.870    24294158.138
       209.000         149.000
  20670294.629     -463000.62249   -365035.72147  20670294.733    20670300.116
       243.000         211.000
 02  2 24 13 49 30.0000000  0  9G31G28G27G 3G 2G 8G 1G10G13
  21431454.842    -1220402.55349   -918680.56647  21431454.083    21431460.833
       236.000         194.000
  22405062.827    -2625880.99349  -2031771.92146  22405062.258    22405068.246
       231.000         183.000
  20941163.085    -1689564.27349  -1311582.84747  20941162.825    20941169.139
       240.000         208.000
  23856058.277       17110.32049       221.98445  23856057.845    23856066.828
       214.000         153.000
  22242776.537      -97582.69549    -86009.52147  22242775.997    22242783.117
       233.000         192.000
  21477872.206    -2309648.22149  -1790600.59547  21477871.399    21477878.359
       234.000         193.000
  22513636.883      427847.19549    319523.99746  22513636.384    22513644.693
       228.000         177.000
  24290060.703    -1708611.85549  -1323365.12645  24290059.921    24290066.663
       207.000         148.000
  20679421.215     -415040.15749   -327663.96747  20679421.225    20679426.692
       243.000         211.000
 02  2 24 13 50  0.0000000  0  9G31G28G27G 3G 2G 8G 1G10G13
  21433027.437    -1212138.51249   -912241.09547  21433026.854    21433033.606
       236.000         194.000
  22392139.244    -2693794.93049  -2084691.86246  22392138.625    22392145.006
       231.000         184.000
  20937174.852    -1710522.79249  -1327914.17847  20937174.686    20937181.078
       241.000         208.000
  23869718.605       88895.44949     56158.31045  23869718.098    23869727.164
       213.000         151.000
  22254435.853      -36312.77149    -38266.77847  22254434.955    22254442.680
       234.000         192.000
  21467546.597    -2363909.61849  -1832882.20347  21467545.857    21467552.662
       234.000         193.000
  22530847.663      518289.94149    389998.77046  22530847.499    22530855.422
       227.000         178.000
  24286068.186    -1729592.69449  -1339713.84145  24286067.615    24286076.348
       210.000         149.000
  20688641.596     -366586.89549   -289908.21747  20688641.761    20688647.160
       243.000         210.000
 02  2 24 13 50 30.0000000  0  9G31G28G27G 3G 2G 8G 1G10G13
  21434719.220    -1203248.45549   -905313.82247  21434718.883    21434725.376
       237.000         194.000
  22379272.353    -2761410.85649  -2137379.58846  22379271.143    22379278.058
       230.000         184.000
  20933215.541    -1731329.36849  -1344127.11347  20933215.207    20933221.623
       241.000         208.000
  23883456.637      161089.38749    112413.19645  23883456.027    23883464.239
       210.000         149.000
  22266116.766       25070.67949      9564.42647  22266115.979    22266123.773
       234.000         192.000
  21457242.076    -2418060.32749  -1875077.56247  21457241.511    21457248.447
       235.000         193.000
  22548115.495      609032.63649    460707.25846  22548115.544    22548123.465
       227.000         177.000
  24282174.435    -1750055.11849  -1355658.59345  24282173.791    24282180.549
       212.000         149.000
  20697955.674     -317641.33949   -251768.86147  20697956.043    20697961.227
       243.000         210.000
 02  2 24 13 51  0.0000000  0  9G31G28G27G 3G 2G 8G 1G10G13
  21436530.157    -1193732.24949   -897898.63547  21436529.779    21436536.557
       236.000         194.000
  22366462.283    -2828728.22649  -2189834.67046  22366461.371    22366467.508
       230.000         184.000
  20929285.315    -1751983.07149  -1360220.93347  20929285.227    20929291.235
       242.000         208.000
  23897272.097      233690.16849    168985.08545  23897272.203    23897279.981
       210.000         148.000
  22277819.004       86565.95749     57482.76547  22277818.707    22277825.841
       233.000         192.000
  21446958.704    -2472099.88549  -1917186.31247  21446958.150    21446964.981
       235.000         193.000
  22565440.094      700073.59149    531648.15646  22565439.711    22565447.869
       226.000         177.000
  24278379.390    -1769999.46049  -1371199.63345  24278379.228    24278385.739
       214.000         149.000
  20707363.270     -268204.41249   -213246.61547  20707363.620    20707368.769
       244.000         210.000
 02  2 24 13 51 30.0000000  0  9G31G28G27G 3G 2G 8G 1G10G13
  21438460.168    -1183590.26049   -889995.82047  21438459.483    21438466.502
       237.000         194.000
  22353709.032    -2895746.95849  -2242057.04746  22353707.960    22353714.444
       231.000         184.000
  20925384.346    -1772483.22349  -1376195.09747  20925384.118    20925390.302
       242.000         209.000
  23911164.500      306695.40749    225872.10745  23911164.345    23911172.169
       207.000         147.000
  22289542.160      148171.40149    105486.94847  22289541.641    22289549.157
       232.000         191.000
  21436696.527    -2526028.01349  -1959208.23847  21436695.804    21436702.858
       236.000         194.000
  22582821.080      791410.77249    602819.86746  22582820.898    22582828.570
       226.000         176.000
  24274682.746    -1789425.41049  -1386336.74445  24274682.307    24274689.045
       211.000         149.000
  20716864.121     -218277.42349   -174342.50247  20716864.373    20716869.567
       244.000         210.000
 02  2 24 13 52  0.0000000  0  9G31G28G27G 3G 2G 8G 1G10G13
  21440509.315    -1172822.30949   -881605.25147  21440508.745    21440515.308
       237.000         194.000
  22341012.817    -2962466.09549  -2294045.97846  22341012.319    22341018.326
       231.000         184.000
  20921512.802    -1792828.47949  -1392048.56447  20921512.538    20921518.783
       242.000         209.000
  23925133.536      380103.11649    283072.74845  23925133.565    23925142.384
       206.000         145.000
  22301286.057      209885.94949    153576.14447  22301285.411    22301293.220
       232.000         190.000
  21426455.831    -2579843.54049  -2001142.42047  21426455.583    21426461.707
       236.000         194.000
  22600258.115      883042.72049    674221.27546  22600258.267    22600265.815
       223.000         174.000
  24271084.654    -1808332.63649  -1401069.65645  24271083.988    24271091.855
       209.000         149.000
  20726458.178     -167860.61949   -135056.71647  20726458.391    20726463.518
       244.000         211.000
 02  2 24 13 52 30.0000000  0  9G31G28G27G 3G 2G 8G 1G10G13
  21442677.487    -1161428.53149   -872727.03047  21442676.814    21442683.994
       236.000         194.000
  22328373.679    -3028885.33649  -2345801.22546  22328373.279    22328379.205
       231.000         184.000
  20917670.916    -1813017.93849  -1407780.63647  20917670.578    20917676.999
       242.000         209.000
  23939178.780      453911.10249    340585.27645  23939178.542    23939187.995
       207.000         146.000
  22313050.460      271708.14449    201749.22347  22313049.897    22313057.409
       232.000         190.000
  21416236.664    -2633545.93349  -2042988.44847  21416236.168    21416242.427
       236.000         194.000
  22617750.877      974967.51649    745850.87246  22617751.456    22617758.478
       224.000         173.000
  24267585.502    -1826721.19749  -1415398.41745  24267585.350    24267592.919
       211.000         149.000
  20736145.259     -116955.01549    -95390.05547  20736145.555    20736150.895
       244.000         211.000
 02  2 24 13 53  0.0000000  0  9G31G28G27G 3G 2G 8G 1G10G13
  21444964.638    -1149409.43349   -863361.53847  21444964.050    21444971.176
       236.000         194.000
  22315791.636    -3095004.58649  -2397322.71446  22315791.259    22315797.295
       231.000         184.000
  20913858.771    -1833051.10649  -1423390.91747  20913858.417    20913864.791
       242.000         209.000
  23953299.824      528116.57649    398407.53645  23953299.696    23953310.002
       209.000         147.000
  22324834.992      333636.08749    250004.69447  22324834.529    22324841.984
       232.000         190.000
  21406038.989    -2687135.25149  -2084746.36647  21406038.638    21406045.074
       235.000         194.000
  22635298.951     1067182.81949    817706.83346  22635298.459    22635307.003
       223.000         172.000
  24264185.077    -1844591.48849  -1429323.32145  24264184.415    24264191.650
       210.000         149.000
  20745925.054      -65562.20649    -55343.75247  20745925.205    20745930.629
       244.000         211.000
 02  2 24 13 53 30.0000000  0  9G31G28G27G 3G 2G 8G 1G10G13
  21447370.822    -1136765.10549   -853508.85847  21447370.574    21447377.246
       237.000         194.000
  22303266.721    -3160823.51449  -2448610.18346  22303266.560    22303271.702
       232.000         185.000
  20910076.533    -1852926.96349  -1438878.62447  20910076.175    20910082.523
       241.000         209.000
  23967496.152      602717.58649    456538.01545  23967496.907    23967505.411
       211.000         150.000
  22336639.435      395668.41049    298341.49947  22336639.007    22336646.546
       232.000         190.000
  21395862.988    -2740610.80149  -2126415.63847  21395862.153    21395868.855
       235.000         194.000
  22652902.027     1159686.93249    889787.82846  22652901.792    22652910.579
       224.000         172.000
  24260883.063    -1861943.40949  -1442844.31145  24260881.541    24260889.744
       209.000         149.000
  20755797.404      -13682.85349    -14918.33347  20755797.610    20755803.029
       244.000         212.000
 02  2 24 13 54  0.0000000  0  9G31G28G27G 3G 2G 8G 1G10G13
  21449895.987    -1123495.75749   -843169.15847  21449895.816    21449901.909
       237.000         194.000
  22290799.077    -3226341.44849  -2499663.12046  22290798.581    22290804.849
       232.000         185.000
  20906324.475    -1872644.23949  -1454242.76347  20906324.153    20906330.402
       241.000         209.000
  23981767.434      677712.21549    514975.20645  23981767.388    23981776.652
       214.000         152.000
  22348463.524      457803.93449    346758.72647  22348462.941    22348470.680
       233.000         190.000
  21385708.738    -2793971.68849  -2167995.55947  21385708.392    21385714.552
       235.000         194.000
  22670559.726     1252478.25649    962092.63446  22670559.778    22670567.616
       224.000         172.000
  24257679.665    -1878776.82249  -1455961.26745  24257679.158    24257684.920
       210.000         149.000
  20765762.179       38682.15649     25885.51847  20765762.262    20765767.841
       243.000         211.000
 02  2 24 13 54 30.0000000  0  9G31G28G27G 3G 2G 8G 1G10G13
  21452540.025    -1109601.73649   -832342.69447  21452539.926    21452546.423
       237.000         194.000
  22278388.744    -3291558.18549  -2550481.35646  22278388.373    22278394.397
       233.000         186.000
  20902602.805    -1892202.06949  -1469482.65847  20902602.469    20902608.726
       241.000         209.000
  23996113.117      753097.98349    573717.18145  23996113.296    23996122.037
       214.000         153.000
  22360306.919      520041.03949    395255.10347  22360306.722    22360313.784
       233.000         190.000
  21375576.400    -2847217.52849  -2209485.83547  21375575.887    21375582.345
       234.000         194.000
  22688271.752     1345554.86049   1034619.73946  22688271.936    22688280.006
       226.000         173.000
  24254575.189    -1895091.69549  -1468674.16945  24254574.507    24254581.568
       211.000         149.000
  20775819.114       91531.71649     67066.94047  20775819.220    20775824.880
       243.000         211.000
 02  2 24 13 55  0.0000000  0  9G31G28G27G 3G 2G 8G 1G10G13
  21455302.909    -1095083.06249   -821029.49247  21455302.573    21455309.083
       237.000         194.000
  22266035.802    -3356473.46449  -2601064.69646  22266034.975    22266040.933
       233.000         186.000
  20898911.612    -1911599.61949  -1484597.66347  20898911.155    20898917.496
       241.000         209.000
  24010532.786      828872.50949    632762.07845  24010533.374    24010541.652
       215.000         153.000
  22372169.404      582378.26149    443829.49147  22372168.970    22372176.584
       233.000         190.000
  21365466.055    -2900347.67049  -2250885.96147  21365465.236    21365472.380
       235.000         194.000
  22706037.657     1438914.73949   1107367.57746  22706038.207    22706045.681
       226.000         173.000
  24251569.203    -1910888.38249  -1480983.29345  24251568.219    24251575.297
       211.000         149.000
  20785968.118      144864.88449    108625.19947  20785968.364    20785973.856
       243.000         211.000
 02  2 24 13 55 30.0000000  0  9G31G28G27G 3G 2G 8G 1G10G13
  21458184.672    -1079939.68949   -809229.52047  21458184.358    21458190.903
       237.000         194.000
  22253740.368    -3421086.55349  -2651412.55346  22253739.856    22253745.847
       233.000         186.000
  20895251.150    -1930835.62249  -1499586.78647  20895250.839    20895257.045
       241.000         209.000
  24025026.048      905033.76449    692108.31745  24025026.600    24025034.579
       216.000         152.000
  22384050.783      644814.59249    492481.10447  22384050.464    22384057.633
       233.000         190.000
  21355377.909    -2953361.32949  -2292195.31547  21355377.280    21355383.712
       235.000         194.000
  22723857.188     1532556.13749   1180334.77646  22723857.331    22723865.429
       226.000         173.000
  24248661.720    -1926166.45849  -1492888.29545  24248659.992    24248669.208
       209.000         148.000
  20796208.960      198680.64649    150559.50147  20796209.154    20796214.709
       243.000         210.000
 02  2 24 13 56  0.0000000  0  9G31G28G27G 3G 2G 8G 1G10G13
  21461185.189    -1064172.03049   -796943.08247  21461184.531    21461191.310
       237.000         194.000
  22241502.532    -3485396.86349  -2701524.48446  22241501.579    22241507.441
       233.000         186.000
  20891621.583    -1949909.09249  -1514449.25947  20891621.282    20891627.606
       241.000         208.000
  24039592.468      981579.87049    751754.45845  24039592.347    24039600.938
       213.000         150.000
  22395950.664      707348.45749    541208.71947  22395950.216    22395957.538
       232.000         189.000
  21345312.070    -3006257.66449  -2333413.25247  21345311.508    21345317.726
       235.000         194.000
  22741729.891     1626477.21849   1253519.92046  22741728.559    22741737.695
       226.000         173.000
  24245852.993    -1940925.87249  -1504389.16245  24245853.335    24245859.460
       210.000         148.000
  20806541.486      252978.25349    192869.27047  20806541.801    20806547.221
       243.000         210.000
 02  2 24 13 56 30.0000000  0  9G31G28G27G 3G 2G 8G 1G10G13
  21464304.394    -1047780.61649   -784170.60647  21464303.992    21464310.929
       236.000         194.000
  22229322.337    -3549404.23149  -2751400.35946  22229321.791    22229327.650
       233.000         186.000
  20888023.186    -1968818.98649  -1529184.27447  20888022.723    20888029.095
       241.000         208.000
  24054231.563     1058508.25049    811698.47445  24054230.972    24054240.423
       212.000         147.000
  22407868.832      769978.53049    590011.29847  22407868.226    22407875.641
       232.000         189.000
  21335268.642    -3059036.39849  -2374539.55747  21335267.951    21335274.494
       235.000         195.000
  22759655.481     1720676.26149   1326921.63146  22759655.998    22759663.234
       225.000         173.000
  24243143.178    -1955167.17949  -1515486.28445  24243143.181    24243149.977
       211.000         148.000
  20816965.519      307756.66249    235553.68347  20816965.675    20816971.228
       243.000         210.000
 02  2 24 13 57  0.0000000  0  9G31G28G27G 3G 2G 8G 1G10G13
  21467542.216    -1030765.87349   -770912.41947  21467542.050    21467548.620
       236.000         194.000
  22217199.792    -3613108.50949  -2801040.05746  22217199.473    22217205.384
       233.000         186.000
  20884456.080    -1987564.29249  -1543791.03247  20884455.732    20884462.066
       241.000         208.000
  24068942.797     1135816.15449    871938.20845  24068942.808    24068951.074
       210.000         143.000
  22419805.041      832703.38549    638887.72947  22419804.762    22419811.673
       232.000         188.000
  21325247.745    -3111696.67449  -2415573.55247  21325247.209    21325253.712
       235.000         195.000
  22777633.603     1815151.15049   1400538.29946  22777633.233    22777641.037
       224.000         172.000
  24240531.727    -1968890.61549  -1526179.87645  24240531.389    24240538.871
       211.000         149.000
  20827480.771      363014.31949    278611.54447  20827481.045    20827486.542
       243.000         209.000
 02  2 24 13 57 30.0000000  0  9G31G28G27G 3G 2G 8G 1G10G13
  21470898.718    -1013127.42449   -757168.23047  21470897.897    21470905.164
       235.000         194.000
  22205135.140    -3676508.77649  -2850442.87046  22205134.745    22205140.394
       232.000         186.000
  20880920.591    -2006143.54849  -1558268.40947  20880920.250    20880926.519
       241.000         208.000
  24083725.999     1213502.07749    932472.50045  24083726.833    24083733.550
       206.000         140.000
  22431759.143      895522.13249    687837.32347  22431758.687    22431766.246
       233.000         188.000
  21315249.579    -3164237.41649  -2456514.41147  21315248.770    21315255.708
       235.000         195.000
  22795663.904     1909900.47749   1474368.79646  22795664.370    22795672.092
       224.000         172.000
  24238018.821    -1982095.66149  -1536469.55145  24238017.869    24238025.929
       210.000         150.000
  20838087.086      418750.65349    322042.40047  20838087.312    20838092.634
       243.000         209.000
 02  2 24 13 58  0.0000000  0  9G31G28G27G 3G 2G 8G 1G10G13
  21474373.646     -994866.47249   -742938.97547  21474373.091    21474379.937
       236.000         193.000
  22193128.256    -3739605.35249  -2899609.04046  22193127.697    22193134.159
       233.000         187.000
  20877416.763    -2024556.36749  -1572616.09647  20877416.335    20877422.952
       241.000         208.000
  24098580.743     1291563.04049    993299.01245  24098581.069    24098589.536
       207.000         137.000
  22443730.705      958432.69849    736858.46547  22443730.239    22443737.567
       232.000         188.000
  21305274.120    -3216658.79649  -2497362.25547  21305273.356    21305280.268
       235.000         195.000
  22813745.946     2004921.66849   1548411.14146  22813745.902    22813754.141
       224.000         172.000
  24235604.458    -1994783.08149  -1546355.87545  24235604.060    24235610.746
       212.000         150.000
  20848784.206      474964.15049    365845.07247  20848784.237    20848789.742
       244.000         208.000
 02  2 24 13 58 30.0000000  0  9G31G28G27G 3G 2G 8G 1G10G13
  21477967.039     -975983.37449   -728224.93247  21477966.883    21477973.305
       236.000         193.000
  22181179.241    -3802397.83049  -2948538.25546  22181179.109    22181184.715
       233.000         187.000
  20873944.916    -2042801.43449  -1586833.06347  20873944.649    20873950.993
       241.000         208.000
  24113506.437     1369996.95849   1054416.13845  24113507.466    24113515.210
       207.000         136.000
  22455719.564     1021433.94649    785950.27147  22455719.179    22455726.736
       233.000         188.000
  21295321.590    -3268959.78449  -2538116.28547  21295320.966    21295327.532
       235.000         195.000
  22831879.373     2100212.91149   1622663.92146  22831878.729    22831887.544
       223.000         170.000
  24233288.826    -2006953.17649  -1555839.07245  24233288.404    24233294.583
       212.000         150.000
  20859571.975      531654.00049    410018.92747  20859572.239    20859577.505
       243.000         208.000
 02  2 24 13 59  0.0000000  0  9G31G28G27G 3G 2G 8G 1G10G13
  21481678.735     -956478.63049   -713026.49547  21481678.164    21481684.956
       236.000         193.000
  22169288.241    -3864885.78849  -2997230.16347  22169287.691    22169293.600
       234.000         188.000
  20870505.100    -2060877.86749  -1600918.63347  20870504.830    20870511.156
       241.000         209.000
  24128502.805     1448801.71649   1115822.21545  24128502.275    24128511.811
       204.000         138.000
  22467725.392     1084524.47849    835111.64547  22467724.938    22467732.216
       233.000         188.000
  21285392.098    -3321139.74449  -2578776.01147  21285391.720    21285397.978
       235.000         195.000
  22850063.746     2195772.14549   1697125.50546  22850063.630    22850072.589
       223.000         169.000
  24231071.437    -2018606.10249  -1564919.29345  24231069.490    24231078.130
       208.000         150.000
  20870450.123      588818.72549    454562.80647  20870450.418    20870455.678
       244.000         209.000
 02  2 24 13 59 30.0000000  0  9G31G28G27G 3G 2G 8G 1G10G13
  21485508.721     -936352.30849   -697343.71047  21485508.372    21485514.883
       235.000         193.000
  22157455.291    -3927068.70949  -3045684.39947  22157454.883    22157460.718
       233.000         188.000
  20867097.665    -2078784.35249  -1614871.77547  20867097.569    20867103.803
       241.000         209.000
  24143569.281     1527975.09749   1177515.52045  24143569.695    24143578.451
       205.000         141.000
  22479747.965     1147703.26649    884341.78647  22479747.305    22479755.262
       233.000         188.000
  21275485.823    -3373197.63049  -2619340.61947  21275485.078    21275491.400
       235.000         195.000
  22868298.795     2291597.70849   1771794.63046  22868297.967    22868307.122
       222.000         169.000
  24228952.203    -2029741.81649  -1573596.48545  24228951.546    24228959.482
       210.000         150.000
  20881418.498      646457.51349    499476.08047  20881418.655    20881424.189
       244.000         209.000
 02  2 24 14  0  0.0000000  0  9G31G28G27G 3G 2G 8G 1G10G13
  21489456.863     -915604.97849   -681177.02347  21489456.489    21489463.443
       237.000         193.000
  22145680.377    -3988946.25649  -3093900.67447  22145679.665    22145685.500
       233.000         188.000
  20863722.756    -2096519.86249  -1628691.69447  20863722.475    20863728.870
       241.000         209.000
  24158705.310     1607514.57049   1239494.09645  24158705.376    24158713.973
       207.000         145.000
  22491787.135     1210968.90649    933639.59947  22491786.490    22491794.280
       232.000         188.000
  21265602.891    -3425133.00149  -2659809.75547  21265602.600    21265608.909
       235.000         195.000
  22886584.194     2387687.78749   1846669.86146  22886583.958    22886592.689
       221.000         168.000
  24226931.608    -2040360.51349  -1581870.82445  24226931.245    24226938.832
       211.000         150.000
  20892476.873      704569.32649    544757.95247  20892477.219    20892482.658
       244.000         208.000
 02  2 24 14  0 30.0000000  0  9G31G28G27G 3G 2G 8G 1G10G13
  21493523.048     -894237.50649   -664527.11147  21493522.694    21493529.333
       236.000         193.000
  22133963.567    -4050518.48349  -3141879.04547  22133963.086    22133968.896
       234.000         188.000
  20860380.536    -2114083.50649  -1642377.69347  20860380.149    20860386.721
       242.000         209.000
  24173910.451     1687417.54949   1301755.92045  24173911.030    24173919.668
       210.000         149.000
  22503842.467     1274319.92049    983003.93546  22503841.894    22503849.275
       231.000         187.000
  21255743.376    -3476945.23349  -2700182.94947  21255742.755    21255749.079
       235.000         195.000
  22904919.563     2484040.11849   1921749.43746  22904919.924    22904928.247
       220.000         168.000
  24225009.217    -2050463.12749  -1589742.99745  24225008.166    24225016.079
       211.000         150.000
  20903624.933      763152.56249    590407.16847  20903625.181    20903630.747
       244.000         209.000
 02  2 24 14  1  0.0000000  0  9G31G28G27G 3G 2G 8G 1G10G13
  21497707.175     -872250.20849   -647394.22447  21497706.537    21497713.539
       236.000         193.000
  22122304.983    -4111785.05249  -3189619.24347  22122304.727    22122310.158
       234.000         189.000
  20857071.283    -2131474.14649  -1655928.88647  20857071.130    20857077.634
       242.000         209.000
  24189184.413     1767681.95549   1364299.38045  24189184.136    24189193.551
       212.000         151.000
  22515913.778     1337754.96749   1032433.74646  22515913.248    22515920.655
       231.000         187.000
  21245907.441    -3528633.58649  -2740459.60547  21245906.475    21245913.448
       235.000         195.000
  22923304.459     2580652.79349   1997031.87846  22923304.247    22923313.094
       222.000         169.000
  24223184.855    -2060049.68849  -1597213.06745  24223183.719    24223190.759
       209.000         149.000
  20914862.474      822205.84349    636422.64147  20914862.782    20914868.331
       244.000         209.000
 02  2 24 14  1 30.0000000  0  9G31G28G27G 3G 2G 8G 1G10G13
  21502009.098     -849643.66749   -629778.80547  21502008.889    21502015.654
       236.000         193.000
  22110704.602    -4172745.57049  -3237120.94747  22110703.928    22110710.028
       234.000         189.000
  20853795.146    -2148690.62249  -1669344.36547  20853794.788    20853801.062
       242.000         209.000
  24204526.732     1848305.32949   1427122.55545  24204526.615    24204535.966
       214.000         153.000
  22528000.911     1401272.79449   1081928.06646  22528000.310    22528008.418
       231.000         187.000
  21236095.190    -3580197.20649  -2780639.07247  21236094.807    21236101.118
       235.000         196.000
  22941738.579     2677523.98449   2072515.76346  22941738.035    22941747.834
       223.000         169.000
  24221458.730    -2069120.20349  -1604281.01445  24221457.874    24221465.483
       211.000         148.000
  20926189.290      881728.36249    682803.75247  20926189.810    20926194.933
       244.000         208.000
 02  2 24 14  2  0.0000000  0  9G31G28G27G 3G 2G 8G 1G10G13
  21506428.772     -826418.63149   -611681.44247  21506428.250    21506434.998
       236.000         193.000
  22099162.437    -4233399.89149  -3284384.06847  22099162.068    22099167.249
       234.000         189.000
  20850552.313    -2165732.04949  -1682623.44247  20850551.873    20850558.467
       242.000         209.000
  24219936.844     1929285.13549   1490223.45545  24219937.176    24219946.439
       213.000         155.000
  22540103.533     1464872.04549   1131485.82346  22540102.871    22540110.559
       231.000         187.000
  21226306.857    -3631635.47049  -2820720.86147  21226306.374    21226312.696
       236.000         196.000
  22960221.515     2774651.56349   2148199.44146  22960221.739    22960230.320
       224.000         170.000
  24219830.976    -2077675.19349  -1610947.25745  24219830.300    24219838.171
       209.000         149.000
  20937605.075      941718.48749    729549.23547  20937605.307    20937610.916
       243.000         208.000
 02  2 24 14  2 30.0000000  0  9G31G28G27G 3G 2G 8G 1G10G13
  21510966.028     -802575.70949   -593102.61447  21510965.818    21510972.323
       236.000         193.000
  22087678.635    -4293747.67649  -3331408.32547  22087678.428    22087684.038
       235.000         189.000
  20847342.987    -2182597.34049  -1695765.26947  20847342.655    20847349.316
       242.000         209.000
  24235414.301     2010619.14249   1553600.36845  24235413.962    24235424.426
       213.000         155.000
  22552221.393     1528551.39849   1181106.00746  22552221.142    22552227.939
       231.000         186.000
  21216542.552    -3682947.58849  -2860704.35047  21216542.134    21216548.526
       236.000         197.000
  22978752.832     2872033.57649   2224081.36446  22978752.930    22978761.290
       222.000         169.000
  24218300.985    -2085715.01149  -1617212.06245  24218299.620    24218308.134
       209.000         149.000
  20949109.669     1002175.11549    776658.23247  20949109.843    20949115.677
       243.000         208.000
 02  2 24 14  3  0.0000000  0  9G31G28G27G 3G 2G 8G 1G10G13
  21515620.653     -778115.53649   -574042.80947  21515620.096    21515627.329
       236.000         193.000
  22076253.214    -4353788.68849  -3378193.54047  22076252.738    22076258.301
       234.000         190.000
  20844167.441    -2199285.22449  -1708768.86247  20844167.193    20844173.608
       241.000         209.000
  24250958.765     2092305.28349   1617251.66345  24250958.591    24250968.947
       211.000         154.000
  22564354.318     1592309.75549   1230787.74446  22564353.833    22564361.393
       231.000         186.000
  21206802.380    -3734132.87549  -2900589.01347  21206801.847    21206808.211
       237.000         197.000
  22997332.160     2969668.07849   2300160.03046  22997332.448    22997340.032
       222.000         167.000
  24216868.862    -2093239.98549  -1623075.71845  24216867.601    24216875.054
       210.000         149.000
  20960702.760     1063097.09749    824129.83047  20960702.907    20960708.814
       244.000         208.000
 02  2 24 14  3 30.0000000  0  9G31G28G27G 3G 2G 8G 1G10G13
  21520392.585     -753039.04449   -554502.76147  21520392.073    21520399.261
       236.000         193.000
  22064886.203    -4413523.02449  -3424739.78947  22064885.747    22064891.542
       234.000         190.000
  20841025.778    -2215794.91549  -1721633.60547  20841025.608    20841031.829
       242.000         209.000
  24266569.805     2174341.06649   1681175.40645  24266570.043    24266579.432
       210.000         152.000
  22576501.924     1656145.55549   1280529.83346  22576501.453    22576509.175
       231.000         185.000
  21197086.468    -3785190.64149  -2940374.31347  21197086.173    21197092.717
       236.000         198.000
  23015959.103     3067552.87749   2376433.72446  23015957.924    23015968.184
       221.000         166.000
  24215534.886    -2100251.19849  -1628539.00645  24215534.095    24215541.635
       211.000         150.000
  20972384.170     1124482.90749    871962.85447  20972384.410    20972390.176
       243.000         207.000
 02  2 24 14  4  0.0000000  0  9G31G28G27G 3G 2G 8G 1G10G13
  21525281.662     -727347.00649   -534483.06447  21525281.088    21525288.243
       236.000         193.000
  22053577.564    -4472950.51449  -3471046.93647  22053576.976    22053582.632
       235.000         190.000
  20837918.262    -2232125.30149  -1734358.62447  20837917.780    20837924.375
       241.000         209.000
  24282246.785     2256723.71949   1745369.42045  24282245.501    24282256.813
       207.000         148.000
  22588664.000     1720057.32149   1330331.12046  22588663.344    22588671.421
       231.000         185.000
  21187394.908    -3836120.34049  -2980059.81647  21187394.182    21187400.607
       237.000         198.000
  23034633.280     3165685.76549   2452900.72346  23034632.596    23034641.568
       219.000         165.000
  24214298.599    -2106748.79549  -1633602.08545  24214297.241    24214305.097
       210.000         150.000
  20984153.540     1186331.13149    920156.20347  20984153.813    20984159.344
       243.000         207.000
 02  2 24 14  4 30.0000000  0  9G31G28G27G 3G 2G 8G 1G10G13
  21530287.803     -701039.85349   -513984.05647  21530287.352    21530294.649
       236.000         193.000
  22042327.389    -4532070.40749  -3517114.39647  22042326.905    22042332.354
       235.000         191.000
  20834845.147    -2248274.77549  -1746942.67547  20834844.847    20834851.420
       241.000         209.000
  24297989.418     2339451.46749   1809832.33845  24297988.443    24297998.361
       205.000         144.000
  22600840.443     1784044.45049   1380191.11046  22600839.804    22600847.464
       230.000         185.000
  21177727.948    -3886920.59149  -3019644.45547  21177727.464    21177733.818
       237.000         198.000
  23053354.341     3264065.26649   2529559.89346  23053354.005    23053363.508
       220.000         165.000
  24213159.751    -2112732.98249  -1638265.10145  24213159.109    24213167.355
       209.000         150.000
  20996010.737     1248640.83449    968709.14247  20996011.084    20996016.511
       243.000         206.000
 02  2 24 14  5  0.0000000  0  9G31G28G27G 3G 2G 8G 1G10G13
  21535410.807     -674118.58649   -493006.52647  21535410.506    21535417.609
       236.000         193.000
  22031135.766    -4590882.80049  -3562942.25347  22031135.202    22031141.012
       235.000         191.000
  20831806.658    -2264242.33049  -1759384.97247  20831806.241    20831812.806
       241.000         209.000
  24313797.252     2422521.67149   1874562.10345  24313796.439    24313808.732
       202.000         140.000
  22613030.919     1848105.46049   1430108.67546  22613030.175    22613038.142
       230.000         185.000
  21168085.734    -3937590.88949  -3059127.83247  21168085.150    21168091.653
       237.000         198.000
  23072121.937     3362689.08249   2606409.42846  23072121.852    23072131.243
       220.000         164.000
  24212118.490    -2118204.42949  -1642528.59745  24212117.780    24212124.664
       211.000         150.000
  21007955.468     1311410.34149   1017620.37047  21007955.475    21007961.225
       242.000         206.000
 02  2 24 14  5 30.0000000  0  9G31G28G27G 3G 2G 8G 1G10G13
  21540650.547     -646584.18649   -471551.22947  21540650.188    21540657.057
       237.000         193.000
  22020002.659    -4649387.88749  -3608530.64747  22020002.499    22020008.110
       235.000         191.000
  20828802.916    -2280027.28949  -1771684.99147  20828802.740    20828809.242
       241.000         209.000
  24329669.709     2505931.48249   1939556.48845  24329670.060    24329679.395
       201.000         136.000
  22625235.154     1912238.82249   1480082.60646  22625234.636    22625242.357
       230.000         185.000
  21158468.340    -3988130.82949  -3098509.63647  21158467.718    21158474.395
       238.000         199.000
  23090935.666     3461555.02149   2683447.63046  23090935.568    23090943.873
       221.000         165.000
  24211174.879    -2123163.89349  -1646393.12445  24211174.063    24211181.356
       211.000         150.000
  21019987.355     1374638.15149   1066888.71547  21019987.436    21019993.006
       242.000         205.000
 02  2 24 14  6  0.0000000  0  9G31G28G27G 3G 2G 8G 1G10G13
  21546006.780     -618437.55549   -449618.86847  21546006.460    21546013.371
       236.000         193.000
  22008928.059    -4707585.46449  -3653879.42947  22008927.566    22008933.164
       235.000         191.000
  20825834.145    -2295628.53549  -1783841.85847  20825833.835    20825840.219
       241.000         209.000
  24345606.434     2589678.41449   2004813.57545  24345606.997    24345615.250
       203.000         132.000
  22637452.941     1976443.27749   1530111.93646  22637452.947    22637460.202
       231.000         185.000
  21148875.938    -4038539.70249  -3137789.31147  21148875.528    21148882.098
       238.000         199.000
  23109795.044     3560660.99549   2760672.87846  23109794.852    23109804.049
       220.000         164.000
  24210328.485    -2127611.99549  -1649859.20045  24210326.909    24210334.843
       209.000         149.000
  21032106.119     1438322.70949   1116512.96347  21032106.306    21032112.026
       241.000         204.000
 02  2 24 14  6 30.0000000  0  9G31G28G27G 3G 2G 8G 1G10G13
  21551479.364     -589679.26049   -427209.88847  21551479.291    21551486.192
       236.000         193.000
  21997912.090    -4765474.92949  -3698988.12647  21997911.333    21997917.277
       236.000         191.000
  20822900.594    -2311044.72049  -1795854.52447  20822900.366    20822906.893
       241.000         209.000
  24361606.935     2673760.32449   2070331.68444  24361609.499    24361615.027
       205.000         130.000
  22649684.079     2040717.85349   1580195.90746  22649684.000    22649691.400
       231.000         185.000
  21139308.662    -4088816.21749  -3176965.85147  21139308.161    21139314.937
       237.000         199.000
  23128699.807     3660005.25449   2838083.79946  23128699.584    23128709.165
       221.000         163.000
  24209579.151    -2131548.92349  -1652926.97345  24209579.017    24209586.528
       210.000         149.000
  21044311.658     1502463.11049   1166492.40447  21044311.756    21044317.509
       241.000         204.000
 02  2 24 14  7  0.0000000  0  9G31G28G27G 3G 2G 8G 1G10G13
  21557068.156     -560310.51749   -404325.23147  21557067.513    21557075.038
       236.000         192.000
  21986954.713    -4823056.57049  -3743856.95147  21986954.248    21986960.105
       235.000         192.000
  20820002.440    -2326274.92349  -1807722.26047  20820002.122    20820008.678
       241.000         209.000
  24377670.747     2758174.73149   2136108.87844  24377671.869    24377677.946
       206.000         130.000
  22661928.280     2105060.90749   1630333.24846  22661927.584    22661935.967
       231.000         185.000
  21129766.652    -4138959.86549  -3216038.84747  21129765.887    21129772.829
       238.000         199.000
  23147649.416     3759585.39249   2915678.52345  23147650.065    23147658.481
       222.000         162.000
  24208927.258    -2134975.53349  -1655597.07645  24208926.699    24208934.361
       211.000         150.000
  21056603.631     1567057.57649   1216825.67547  21056604.266    21056609.671
       241.000         204.000
 02  2 24 14  7 30.0000000  0  9G31G28G27G 3G 2G 8G 1G10G13
  21562772.914     -530332.10849   -380965.51747  21562772.413    21562779.395
       235.000         192.000
  21976055.919    -4880330.26949  -3788485.83147  21976055.204    21976061.124
       236.000         192.000
  20817139.922    -2341317.84549  -1819444.07347  20817139.584    20817146.231
       241.000         209.000
  24393797.315     2842919.18549   2202143.26544  24393798.305    24393807.279
       208.000         131.000
  22674185.318     2169471.42649   1680523.14646  22674185.108    22674192.248
       231.000         185.000
  21120250.079    -4188969.83249  -3255007.68647  21120249.396    21120256.211
       237.000         199.000
  23166643.566     3859399.40949   2993455.48645  23166644.256    23166653.329
       220.000         162.000
  24208372.305    -2137892.48749  -1657870.03945  24208371.333    24208378.681
       210.000         149.000
  21068981.788     1632104.80449   1267511.74147  21068982.247    21068988.014
       242.000         205.000
 02  2 24 14  8  0.0000000  0  9G31G28G27G 3G 2G 8G 1G10G13
  21568593.482     -499745.08149   -357131.55347  21568592.824    21568600.008
       235.000         192.000
  21965215.773    -4937295.56249  -3832874.39047  21965215.098    21965220.979
       236.000         192.000
  20814313.210    -2356172.38349  -1831019.09747  20814312.811    20814319.523
       241.000         209.000
  24409986.234     2927991.25749   2268432.93745  24409986.588    24409995.167
       211.000         133.000
  22686454.934     2233948.22949   1730764.69146  22686454.474    22686462.451
       230.000         184.000
  21110759.107    -4238845.25849  -3293871.68947  21110758.536    21110765.147
       237.000         199.000
  23185681.771     3959445.16049   3071413.01045  23185681.527    23185691.365
       219.000         162.000
  24207913.967    -2140300.47749  -1659746.43745  24207912.981    24207920.804
       210.000         150.000
  21081445.821     1697603.22549   1318549.38347  21081446.208    21081452.013
       243.000         206.000
 02  2 24 14  8 30.0000000  0  9G31G28G27G 3G 2G 8G 1G10G13
  21574529.694     -468550.21149   -332823.94447  21574529.134    21574536.421
       235.000         191.000
  21954434.346    -4993952.30449  -3877022.52147  21954433.602    21954439.607
       236.000         192.000
  20811522.655    -2370837.07549  -1842446.18347  20811522.343    20811528.795
       241.000         209.000
  24426237.115     3013388.66149   2334976.10745  24426236.298    24426247.073
       211.000         138.000
  22698736.943     2298490.28049   1781057.08346  22698736.462    22698744.324
       231.000         183.000
  21101294.006    -4288584.93249  -3332629.91247  21101293.578    21101300.058
       238.000         199.000
  23204763.764     4059720.96949   3149549.79445  23204763.107    23204772.988
       219.000         162.000
  24207552.521    -2142199.68049  -1661226.35645  24207552.300    24207559.669
       211.000         150.000
  21093995.502     1763551.52649   1369937.58547  21093995.911    21094001.958
       243.000         206.000
 02  2 24 14  9  0.0000000  0  9G31G28G27G 3G 2G 8G 1G10G13
  21580581.413     -436748.33649   -308043.35247  21580580.775    21580588.082
       234.000         191.000
  21943711.743    -5050300.23049  -3920930.01747  21943711.465    21943716.995
       235.000         193.000
  20808768.480    -2385310.71349  -1853724.40247  20808768.269    20808774.786
       242.000         209.000
  24442549.514     3099109.22249   2401771.07845  24442549.895    24442560.853
       213.000         141.000
  22711031.224     2363096.69049   1831399.61446  22711031.040    22711038.672
       229.000         183.000
  21091854.897    -4338188.20649  -3371281.85547  21091854.103    21091860.750
       237.000         199.000
  23223889.158     4160224.84549   3227864.30045  23223889.086    23223898.680
       219.000         161.000
  24207287.947    -2143590.90249  -1662310.44445  24207287.374    24207294.955
       211.000         150.000
  21106630.509     1829948.50149   1421675.40347  21106630.933    21106636.827
       243.000         206.000
 02  2 24 14  9 30.0000000  0  9G31G28G27G 3G 2G 8G 1G10G13
  21586748.292     -404341.17549   -282791.10947  21586747.895    21586754.849
       234.000         190.000
  21933047.725    -5106340.09349  -3964597.47047  21933047.487    21933053.156
       236.000         193.000
  20806050.753    -2399592.84249  -1864853.39647  20806050.501    20806056.957
       242.000         209.000
  24458922.787     3185149.68849   2468815.31045  24458924.349    24458933.013
       212.000         144.000
  22723337.353     2427765.36849   1881790.66746  22723336.621    22723345.330
       229.000         182.000
  21082441.741    -4387654.78649  -3409827.28647  21082440.950    21082448.018
       237.000         199.000
  23243057.394     4260954.04349   3306354.35545  23243057.996    23243067.067
       219.000         161.000
  24207119.583    -2144475.64249  -1662999.88845  24207118.231    24207126.257
       209.000         149.000
  21119350.432     1896791.84549   1473761.03447  21119350.828    21119356.768
       243.000         206.000
 02  2 24 14 10  0.0000000  0  9G31G28G27G 3G 2G 8G 1G10G13
  21593030.324     -371329.07249   -257067.48947  21593030.106    21593037.329
       234.000         191.000
  21922442.558    -5162070.73649  -4008023.97047  21922442.359    21922447.945
       236.000         193.000
  20803369.814    -2413681.47949  -1875831.61447  20803369.427    20803376.148
       241.000         209.000
  24475356.576     3271508.38349   2536107.51445  24475357.622    24475368.001
       212.000         146.000
  22735655.308     2492496.15849   1932230.12046  22735654.974    22735662.889
       229.000         182.000
  21073054.953    -4436982.83149  -3448264.76247  21073054.298    21073061.117
       237.000         199.000
  23262268.330     4361907.21949   3385018.95845  23262267.707    23262277.497
       220.000         161.000
  24207047.591    -2144853.49149  -1663294.34745  24207047.030    24207054.592
       211.000         150.000
  21132155.192     1964080.78149   1526193.88147  21132155.533    21132161.343
       243.000         206.000
 02  2 24 14 10 30.0000000  0  9G31G28G27G 3G 2G 8G 1G10G13
  21599427.234     -337713.53149   -230873.65347  21599427.288    21599434.132
       235.000         190.000
  21911896.177    -5217492.66049  -4051209.90647  21911895.480    21911901.426
       236.000         193.000
  20800725.800    -2427576.02349  -1886658.59047  20800725.407    20800732.053
       242.000         209.000
  24491850.329     3358182.30249   2603645.33545  24491850.645    24491860.873
       212.000         147.000
  22747984.694     2557287.11249   1982716.45546  22747984.718    22747991.871
       230.000         182.000
  21063694.513    -4486172.16249  -3486594.14547  21063693.758    21063701.173
       237.000         199.000
  23281521.379     4463081.66649   3463855.96445  23281521.428    23281530.689
       220.000         161.000
  24207072.031    -2144725.94549  -1663194.99145  24207071.553    24207078.472
       211.000         150.000
  21145044.367     2031813.42249   1578972.47447  21145044.570    21145050.865
       243.000         206.000
 02  2 24 14 11  0.0000000  0  9G31G28G27G 3G 2G 8G 1G10G13
  21605938.701     -303495.92949   -204210.68147  21605938.480    21605945.376
       235.000         190.000
  21901408.450    -5272606.15249  -4094155.50847  21901407.661    21901413.562
       236.000         194.000
  20798118.859    -2441275.80149  -1897333.80547  20798118.412    20798125.227
       241.000         209.000
  24508403.472     3445168.77749   2671426.72745  24508403.565    24508414.508
       211.000         148.000
  22760325.319     2622136.83949   2033248.58146  22760324.835    22760333.017
       230.000         182.000
  21054360.590    -4535222.22549  -3524815.02047  21054360.080    21054367.003
       237.000         199.000
  23300816.132     4564475.00849   3542863.54145  23300816.460    23300825.406
       220.000         161.000
  24207192.352    -2144094.07449  -1662702.65345  24207191.170    24207199.719
       210.000         150.000
  21158017.579     2099987.68649   1632095.18847  21158017.789    21158023.813
       243.000         205.000
 02  2 24 14 11 30.0000000  0  9G31G28G27G 3G 2G 8G 1G10G13
  21612564.608     -268676.87149   -177079.04047  21612563.923    21612571.505
       234.000         190.000
  21890979.512    -5327410.73749  -4136860.40647  21890978.871    21890984.893
       236.000         194.000
  20795549.352    -2454778.84749  -1907855.72247  20795549.011    20795555.759
       241.000         209.000
  24525015.773     3532465.78249   2739450.06245  24525016.205    24525027.191
       209.000         147.000
  22772676.985     2687044.68349   2083825.99346  22772676.194    22772684.684
       229.000         182.000
  21045053.501    -4584131.60749  -3562926.27147  21045053.173    21045059.731
       238.000         199.000
  23320152.239     4666085.64949   3622040.45345  23320152.085    23320162.354
       219.000         162.000
  24207408.531    -2142957.92449  -1661817.37945  24207407.501    24207415.550
       210.000         149.000
  21171074.651     2168602.67249   1685561.32047  21171075.010    21171080.934
       243.000         204.000
 02  2 24 14 12  0.0000000  0  9G31G28G27G 3G 2G 8G 1G10G13
  21619304.786     -233257.66949   -149479.76847  21619304.877    21619311.871
       234.000         190.000
  21880609.371    -5381906.20149  -4179324.43647  21880608.720    21880614.494
       236.000         194.000
  20793017.539    -2468083.91149  -1918223.37247  20793017.264    20793024.047
       241.000         209.000
  24541686.681     3620070.90049   2807713.48945  24541687.154    24541697.314
       208.000         146.000
  22785039.446     2752009.46749   2134447.77046  22785038.796    22785047.159
       229.000         182.000
  21035773.348    -4632899.32849  -3600927.14147  21035772.917    21035779.527
       238.000         199.000
  23339529.309     4767911.66449   3701385.16546  23339529.650    23339538.440
       218.000         163.000
  24207720.595    -2141318.35149  -1660539.82045  24207720.094    24207726.895
       210.000         149.000
  21184215.308     2237656.79949   1739369.63647  21184215.663    21184221.486
       242.000         204.000
 02  2 24 14 12 30.0000000  0  9G31G28G27G 3G 2G 8G 1G10G13
  21626158.878     -197239.83949   -121414.02047  21626158.552    21626166.008
       235.000         190.000
  21870298.007    -5436092.83449  -4221547.80947  21870297.328    21870303.778
       237.000         195.000
  20790523.500    -2481190.37949  -1928436.26447  20790523.260    20790529.942
       241.000         209.000
  24558415.744     3707981.23749   2876214.72945  24558416.742    24558427.123
       206.000         145.000
  22797412.484     2817029.75649   2185112.79346  22797412.010    22797419.723
       229.000         181.000
  21026520.204    -4681525.04449  -3638817.35547  21026519.613    21026526.165
       238.000         199.000
  23358946.860     4869950.60549   3780895.78746  23358946.548    23358956.256
       219.000         163.000
  24208128.128    -2139176.71049  -1658871.03445  24208127.842    24208135.183
       211.000         148.000
  21197439.156     2307148.12649   1793518.63147  21197439.598    21197445.547
       242.000         203.000
 02  2 24 14 13  0.0000000  0  9G31G28G27G 3G 2G 8G 1G10G13
  21633126.743     -160624.12849    -92882.39847  21633126.718    21633133.910
       234.000         191.000
  21860045.514    -5489970.35949  -4263530.33147  21860045.116    21860050.756
       237.000         195.000
  20788067.536    -2494096.78049  -1938493.27147  20788067.270    20788073.970
       241.000         209.000
  24575202.587     3796194.67849   2944952.16145  24575203.920    24575214.412
       205.000         143.000
  22809795.926     2882104.87349   2235820.54046  22809795.687    22809803.763
       227.000         180.000
  21017294.367    -4730007.26749  -3676595.76547  21017293.980    21017300.974
       238.000         199.000
  23378404.594     4972200.66249   3860570.91646  23378404.487    23378415.220
       217.000         163.000
  24208631.076    -2136533.43449  -1656811.38245  24208630.744    24208638.342
       210.000         149.000
  21210745.907     2377075.39649   1848007.31047  21210745.796    21210752.155
       240.000         202.000
 02  2 24 14 13 30.0000000  0  9G31G28G27G 3G 2G 8G 1G10G13
  21640208.001     -123412.28149    -63886.24847  21640207.636    21640215.052
       234.000         190.000
  21849851.704    -5543539.39749  -4305272.46847  21849851.393    21849856.958
       237.000         195.000
  20785649.824    -2506802.27349  -1948393.71947  20785649.474    20785656.183
       241.000         209.000
  24592046.504     3884708.47449   3013923.63745  24592046.470    24592057.936
       204.000         142.000
  22822189.434     2947233.00749   2286569.60046  22822189.017    22822197.569
       228.000         180.000
  21008095.918    -4778345.82049  -3714262.21347  21008095.388    21008102.221
       238.000         200.000
  23397901.969     5074659.15349   3940408.46745  23397902.059    23397912.101
       216.000         161.000
  24209229.212    -2133389.86949  -1654361.88845  24209229.069    24209235.907
       209.000         148.000
  21224135.213     2447436.47749   1902834.02447  21224135.187    21224141.473
       240.000         201.000
 02  2 24 14 14  0.0000000  0  9G31G28G27G 3G 2G 8G 1G10G13
  21647402.562      -85605.29449    -34426.36447  21647402.535    21647409.466
       234.000         190.000
  21839716.634    -5596799.65449  -4346773.99947  21839716.189    21839721.965
       237.000         195.000
  20783270.568    -2519305.50549  -1958136.56547  20783270.381    20783276.821
       241.000         209.000
  24608947.175     3973520.10949   3083127.18045  24608948.260    24608957.795
       204.000         141.000
  22834592.941     3012413.21449   2337359.23246  22834592.181    22834601.194
       228.000         180.000
  20998925.046    -4826539.58649  -3751815.85147  20998924.647    20998931.303
       238.000         200.000
  23417438.593     5177323.94649   4020406.76445  23417438.305    23417447.961
       216.000         159.000
  24209922.554    -2129746.87449  -1651523.22945  24209921.920    24209928.961
       210.000         148.000
  21237606.739     2518229.74649   1957997.50247  21237606.871    21237613.618
       240.000         201.000
 02  2 24 14 14 30.0000000  0  9G31G28G27G 3G 2G 8G 1G10G13
  21654710.033      -47204.50549     -4503.77647  21654709.467    21654717.275
       234.000         190.000
  21829640.371    -5649750.83049  -4388034.68947  21829640.015    21829645.716
       237.000         195.000
  20780930.104    -2531605.12349  -1967720.74847  20780929.782    20780936.562
       241.000         209.000
  24625903.826     4062626.98749   3152560.79145  24625904.641    24625915.299
       205.000         140.000
  22847006.203     3077644.72349   2388188.83346  22847006.107    22847014.625
       228.000         180.000
  20989781.930    -4874587.38449  -3789255.74647  20989781.457    20989788.096
       238.000         200.000
  23437014.140     5280193.25349   4100564.42745  23437013.793    23437023.635
       217.000         157.000
  24210710.885    -2125605.19849  -1648295.97845  24210710.314    24210717.810
       213.000         149.000
  21251160.217     2589453.54549   2013496.45947  21251160.548    21251166.492
       241.000         201.000
 02  2 24 14 15  0.0000000  0  9G31G28G27G 3G 2G 8G 1G10G13
  21662130.273       -8211.23849     25880.49147  21662129.900    21662137.376
       234.000         189.000
  21819622.884    -5702393.17449  -4429054.72947  21819622.240    21819628.149
       238.000         195.000
  20778628.602    -2543699.97449  -1977145.37047  20778628.275    20778635.230
       241.000         209.000
  24642916.206     4152026.78549   3222222.65645  24642916.064    24642928.214
       206.000         138.000
  22859429.025     3142926.41049   2439057.54146  22859428.637    22859437.104
       227.000         180.000
  20980666.755    -4922488.34749  -3826581.22547  20980666.357    20980672.753
       238.000         200.000
  23456628.229     5383264.92949   4180879.79145  23456628.284    23456638.326
       216.000         156.000
  24211593.809    -2120965.92949  -1644681.00745  24211592.843    24211600.767
       210.000         148.000
  21264795.519     2661106.72149   2069330.00347  21264795.948    21264802.057
       242.000         203.000
 02  2 24 14 15 30.0000000  0  8G31G28G27G 2G 8G 1G10G13
  21669663.645       31376.42449     56727.91447  21669663.024    21669670.549
       234.000         189.000
  21809664.851    -5754723.15549  -4469831.36947  21809664.364    21809670.147
       239.000         196.000
  20776366.909    -2555585.57049  -1986406.93947  20776366.581    20776373.641
       241.000         209.000
  22871861.767     3208260.32149   2489966.93546  22871861.360    22871870.243
       227.000         179.000
  20971580.327    -4970238.17049  -3863788.92747  20971579.857    20971586.298
       238.000         201.000
  23476280.999     5486540.04449   4261353.67145  23476282.138    23476290.605
       217.000         155.000
  24212571.725    -2115826.68149  -1640676.43845  24212571.036    24212578.489
       210.000         148.000
  21278512.821     2733190.59949   2125499.15847  21278513.312    21278519.267
       242.000         204.000
 02  2 24 14 16  0.0000000  0  8G31G28G27G 2G 8G 1G10G13
  21677309.395       71554.65549     88035.51947  21677308.542    21677316.782
       234.000         189.000
  21799765.711    -5806743.78949  -4510366.96847  21799765.157    21799770.961
       239.000         196.000
  20774144.745    -2567263.35649  -1995506.58647  20774144.489    20774151.289
       241.000         209.000
  22884303.720     3273642.67449   2540914.06346  22884302.687    22884311.408
       227.000         179.000
  20962522.296    -5017838.74849  -3900880.34147  20962521.628    20962528.393
       238.000         201.000
  23495971.606     5590013.71849   4341982.26445  23495970.468    23495981.898
       216.000         154.000
  24213644.100    -2110191.26449  -1636285.24145  24213642.914    24213650.208
       210.000         147.000
  21292311.145     2805700.61949   2182000.36547  21292311.440    21292317.727
       242.000         204.000
 02  2 24 14 16 30.0000000  0  8G31G28G27G 2G 8G 1G10G13
  21685066.760      112319.59549    119800.31147  21685066.331    21685073.974
       234.000         189.000
  21789925.021    -5858457.28449  -4550663.23347  21789924.649    21789930.478
       239.000         196.000
  20771961.894    -2578734.56549  -2004445.25747  20771961.670    20771968.454
       241.000         209.000
  22896754.298     3339070.12649   2591896.35046  22896753.248    22896762.071
       227.000         178.000
  20953492.363    -5065291.53349  -3937856.59247  20953491.849    20953498.760
       239.000         201.000
  23515699.091     5693681.49649   4422762.10545  23515699.510    23515709.213
       215.000         155.000
  24214810.291    -2104062.99649  -1631510.00845  24214809.136    24214817.181
       210.000         147.000
  21306189.739     2878632.61849   2238830.39147  21306190.122    21306196.129
       242.000         204.000
 02  2 24 14 17  0.0000000  0  8G31G28G27G 2G 8G 1G10G13
  21692935.752      153670.91849    152022.01147  21692935.313    21692942.844
       233.000         189.000
  21780142.886    -5909862.98549  -4590719.66147  21780142.481    21780148.182
       238.000         196.000
  20769818.750    -2589997.11149  -2013221.33147  20769818.604    20769825.398
       241.000         209.000
  22909213.419     3404542.48949   2642913.63146  22909213.222    22909221.937
       228.000         178.000
  20944490.937    -5112594.54349  -3974716.13147  20944490.461    20944497.121
       239.000         202.000
  23535463.293     5797541.88249   4503692.01945  23535463.028    23535473.926
       215.000         154.000
  24216070.253    -2097441.98049  -1626350.81945  24216069.164    24216077.478
       208.000         146.000
  21320148.459     2951985.80849   2295988.61747  21320148.728    21320155.239
       242.000         203.000
 02  2 24 14 17 30.0000000  0  8G31G28G27G 2G 8G 1G10G13
  21700916.055      195607.12649    184699.47047  21700915.759    21700923.018
       233.000         189.000
  21770419.303    -5960960.85149  -4630536.21747  21770418.773    21770424.897
       238.000         196.000
  20767715.623    -2601049.53049  -2021833.67547  20767715.500    20767722.378
       241.000         209.000
  22921680.924     3470058.73349   2693965.10046  22921680.421    22921688.945
       228.000         179.000
  20935518.218    -5159746.80849  -4011458.21547  20935517.523    20935524.605
       239.000         202.000
  23555263.682     5901592.97649   4584770.51845  23555263.331    23555274.035
       214.000         154.000
  24217423.922    -2090329.13949  -1620808.38445  24217423.147    24217430.600
       208.000         146.000
  21334187.068     3025758.70549   2353473.88947  21334187.050    21334193.491
       242.000         202.000
 02  2 24 14 18  0.0000000  0  8G31G28G27G 2G 8G 1G10G13
  21709007.417      238127.09949    217831.81047  21709006.947    21709014.655
       234.000         188.000
  21760754.405    -6011750.37749  -4670112.51147  21760753.973    21760759.918
       238.000         196.000
  20765652.801    -2611890.18749  -2030281.00947  20765652.508    20765659.527
       241.000         209.000
  22934156.635     3535618.18449   2745050.23646  22934156.404    22934164.917
       228.000         179.000
  20926574.435    -5206746.82849  -4048081.65947  20926573.904    20926580.493
       240.000         202.000
  23575100.105     6005833.04549   4665996.27545  23575100.238    23575109.811
       212.000         155.000
  24218870.906    -2082725.15249  -1614883.24545  24218869.585    24218878.076
       209.000         146.000
  21348305.263     3099950.01149   2411285.19347  21348305.386    21348311.478
       240.000         201.000
 02  2 24 14 18 30.0000000  0  8G31G28G27G 2G 8G 1G10G13
  21717209.642      281229.73749    251418.17947  21717209.179    21717216.688
       233.000         188.000
  21751148.217    -6062231.27949  -4709448.31947  21751147.874    21751153.479
       238.000         196.000
  20763630.565    -2622517.46249  -2038562.07247  20763630.288    20763637.324
       241.000         209.000
  22946640.433     3601220.29949   2796168.60546  22946640.182    22946648.280
       228.000         179.000
  20917659.880    -5253593.28749  -4084585.45047  20917659.396    20917666.232
       239.000         202.000
  23594972.111     6110260.08549   4747367.72445  23594972.161    23594982.333
       217.000         155.000
  24220411.154    -2074630.77149  -1608575.97945  24220409.979    24220418.133
       209.000         146.000
  21362502.760     3174558.18649   2469421.33647  21362503.017    21362509.372
       240.000         200.000
 02  2 24 14 19  0.0000000  0  8G31G28G27G 2G 8G 1G10G13
  21725522.449      324913.42049    285457.30547  21725522.004    21725529.689
       233.000         188.000
  21741600.727    -6112403.79249  -4748543.82547  21741600.233    21741606.101
       238.000         196.000
  20761649.088    -2632930.48149  -2046676.19047  20761648.750    20761655.932
       241.000         209.000
  22959132.067     3666863.78349   2847319.21046  22959131.274    22959139.902
       228.000         179.000
  20908774.713    -5300285.29749  -4120968.89447  20908774.147    20908780.951
       239.000         202.000
  23614879.339     6214871.90049   4828883.15745  23614879.879    23614889.198
       216.000         155.000
  24222044.574    -2066047.25949  -1601887.57345  24222043.009    24222051.677
       209.000         146.000
  21376779.231     3249581.17349   2527880.69647  21376779.464    21376785.704
       240.000         199.000
 02  2 24 14 19 30.0000000  0  8G31G28G27G 2G 8G 1G10G13
  21733945.524      369176.59449    319947.98347  21733945.063    21733953.103
       233.000         188.000
  21732111.893    -6162268.15249  -4787399.21147  21732111.472    21732117.495
       239.000         197.000
  20759708.598    -2643128.05149  -2054622.41847  20759708.373    20759715.261
       241.000         209.000
  22971631.457     3732547.69549   2898501.32646  22971631.181    22971639.506
       227.000         179.000
  20899919.096    -5346822.13049  -4157231.41947  20899918.517    20899925.242
       239.000         203.000
  23634821.253     6319666.30749   4910540.87945  23634821.623    23634831.006
       216.000         155.000
  24223770.927    -2056975.94049  -1594819.05845  24223770.173    24223778.238
       209.000         146.000
  21391134.241     3325016.93549   2586661.69547  21391134.666    21391140.811
       240.000         199.000
 02  2 24 14 20  0.0000000  0  8G31G28G27G 2G 8G 1G10G13
  21742478.568      414017.47249    354888.81947  21742478.026    21742485.540
       233.000         188.000
  21722681.654    -6211824.82649  -4826014.84747  21722681.081    21722686.917
       239.000         197.000
  20757809.374    -2653108.98349  -2062399.83547  20757809.128    20757816.026
       241.000         209.000
  22984138.263     3798270.69649   2949713.89746  22984137.653    22984146.140
       227.000         179.000
  20891093.211    -5393202.76949  -4193372.23747  20891092.598    20891099.518
       239.000         203.000
  23654797.469     6424640.80249   4992338.92245  23654798.054    23654807.977
       217.000         155.000
  24225589.795    -2047418.12249  -1587371.45445  24225589.583    24225596.596
       209.000         147.000
  21405567.505     3400863.88149   2645763.09547  21405567.904    21405574.261
       240.000         199.000
 02  2 24 14 20 30.0000000  0  8G31G28G27G 2G 8G 1G10G13
  21751121.257      459434.63049    390278.69347  21751121.102    21751128.520
       233.000         188.000
  21713310.015    -6261073.49149  -4864390.47647  21713309.419    21713315.313
       239.000         197.000
  20755951.628    -2662871.82049  -2070007.31447  20755951.524    20755958.293
       241.000         210.000
  22996652.345     3864032.07749   3000956.36246  22996651.739    22996660.588
       227.000         178.000
  20882297.271    -5439426.01449  -4229390.41247  20882296.627    20882303.960
       239.000         203.000
  23674807.539     6529793.41449   5074275.74345  23674807.702    23674817.536
       214.000         154.000
  24227501.034    -2037374.71049  -1579545.46945  24227499.591    24227506.654
       209.000         147.000
  21420078.695     3477120.21249   2705183.49547  21420078.908    21420085.540
       240.000         199.000
 02  2 24 14 21  0.0000000  0  8G31G28G27G 2G 8G 1G10G13
  21759873.373      505426.69349    426116.55747  21759873.213    21759880.841
       233.000         188.000
  21703996.928    -6310014.04449  -4902526.01547  21703996.546    21704002.245
       240.000         198.000
  20754135.651    -2672415.09249  -2077443.70447  20754135.321    20754142.490
       241.000         209.000
  23009173.533     3929830.99649   3052228.09146  23009172.182    23009181.242
       226.000         177.000
  20873531.465    -5485490.76849  -4265285.08247  20873531.025    20873537.842
       239.000         202.000
  23694851.175     6635122.11749   5156349.78145  23694850.896    23694861.605
       213.000         154.000
  24229504.402    -2026846.81949  -1571341.95645  24229503.644    24229511.132
       208.000         146.000
  21434667.509     3553784.47749   2764921.76847  21434667.798    21434674.248
       240.000         199.000
 02  2 24 14 21 30.0000000  0  8G31G28G27G 2G 8G 1G10G13
  21768734.624      551992.19849    462401.24947  21768734.419    21768742.593
       233.000         188.000
  21694742.536    -6358646.60449  -4940421.56947  21694741.923    21694747.851
       240.000         198.000
  20752361.756    -2681737.41749  -2084707.93347  20752361.629    20752368.406
       241.000         209.000
  23021701.732     3995666.65349   3103528.41546  23021701.138    23021710.387
       225.000         176.000
  20864796.114    -5531395.74149  -4301055.25647  20864795.703    20864802.310
       240.000         203.000
  23714927.871     6740625.03849   5238559.55345  23714927.637    23714940.235
       211.000         153.000
  24231599.752    -2015835.42149  -1562761.71345  24231598.863    24231606.791
       208.000         146.000
  21449333.589     3630854.71249   2824976.37647  21449333.915    21449340.684
       240.000         199.000
 02  2 24 14 22  0.0000000  0  8G31G28G27G 2G 8G 1G10G13
  21777704.653      599129.51349    499131.50647  21777704.539    21777711.828
       233.000         188.000
  21685546.724    -6406971.41649  -4978077.31847  21685546.149    21685552.068
       240.000         198.000
  20750630.072    -2690837.82549  -2091799.23247  20750629.938    20750636.733
       241.000         209.000
  23034236.687     4061537.75349   3154856.37446  23034236.300    23034244.993
       225.000         176.000
  20856091.312    -5577140.17549  -4336700.33547  20856090.839    20856097.693
       239.000         202.000
  23735037.222     6846299.46149   5320902.95545  23735037.056    23735047.493
       212.000         153.000
  24233787.018    -2004341.92049  -1553805.79245  24233786.119    24233793.835
       210.000         145.000
  21464076.517     3708328.78249   2885345.66347  21464076.929    21464083.699
       240.000         198.000
 02  2 24 14 22 30.0000000  0  8G31G28G27G 2G 8G 1G10G13
  21786783.070      646836.41049    536305.60047  21786782.614    21786790.503
       234.000         188.000
  21676409.240    -6454989.39849  -5015493.97747  21676408.774    21676414.732
       240.000         198.000
  20748940.720    -2699715.77849  -2098717.19547  20748940.577    20748947.650
       241.000         209.000
  23046778.122     4127442.71349   3206210.72446  23046777.818    23046786.694
       226.000         177.000
  20847417.126    -5622723.57849  -4372219.93547  20847416.524    20847423.503
       239.000         202.000
  23755178.704     6952142.66349   5403377.86445  23755178.672    23755189.491
       212.000         153.000
  24236065.646    -1992368.10449  -1544475.59345  24236064.392    24236072.601
       210.000         146.000
  21478895.829     3786204.22249   2946027.69847  21478896.180    21478902.338
       240.000         198.000
 02  2 24 14 23  0.0000000  0  8G31G28G27G 2G 8G 1G10G13
  21795969.583      695111.45849    573922.40547  21795968.885    21795977.513
       234.000         188.000
  21667330.245    -6502699.93549  -5052671.07347  21667329.590    21667335.558
       240.000         198.000
  20747294.058    -2708369.34449  -2105460.31247  20747293.697    20747300.747
       241.000         209.000
  23059325.964     4193381.18449   3257591.17646  23059325.331    23059334.563
       227.000         177.000
  20838773.842    -5668144.46349  -4407612.90147  20838773.148    20838780.295
       240.000         202.000
  23775352.023     7058153.15249   5485983.14245  23775351.766    23775363.267
       211.000         153.000
  24238435.458    -1979914.94949  -1534771.89945  24238434.971    24238441.878
       209.000         146.000
  21493791.307     3864479.99549   3007021.69247  21493791.488    21493798.072
       239.000         197.000
 02  2 24 14 23 30.0000000  0  8G31G28G27G 2G 8G 1G10G13
  21805263.858      743952.87049    611980.53246  21805263.560    21805271.290
       233.000         187.000
  21658309.665    -6550103.56449  -5089609.02147  21658309.045    21658315.354
       239.000         198.000
  20745690.297    -2716797.44749  -2112027.74947  20745689.898    20745697.168
       241.000         209.000
  23071879.944     4259351.87949   3308996.75446  23071879.590    23071888.364
       228.000         176.000
  20830161.667    -5713401.91049  -4442878.51147  20830161.100    20830168.077
       240.000         203.000
  23795556.730     7164328.16949   5568716.60045  23795556.909    23795567.644
       213.000         152.000
  24240896.152    -1966983.96749  -1524695.86945  24240895.577    24240904.208
       210.000         146.000
  21508762.481     3943153.57049   3068325.65147  21508762.973    21508768.925
       239.000         196.000
 02  2 24 14 24  0.0000000  0  8G31G28G27G 2G 8G 1G10G13
  21814665.644      793359.10549    650478.78146  21814665.291    21814673.253
       233.000         187.000
  21649347.484    -6597200.36649  -5126307.88247  21649347.019    21649352.872
       240.000         198.000
  20744129.708    -2724998.67349  -2118418.39547  20744129.448    20744136.626
       241.000         209.000
  23084439.875     4325354.05949   3360426.85046  23084439.365    23084448.803
       228.000         175.000
  20821580.848    -5758494.72949  -4478015.84247  20821580.410    20821587.405
       240.000         203.000
  23815792.300     7270665.75949   5651576.75745  23815792.690    23815803.161
       212.000         151.000
  24243447.534    -1953576.42949  -1514248.49745  24243446.631    24243453.689
       208.000         146.000
  21523808.996     4022223.03449   3129938.10147  21523809.197    21523816.004
       239.000         196.000
 02  2 24 14 24 30.0000000  0  8G31G28G27G 2G 8G 1G10G13
  21824174.547      843328.37749    689415.75946  21824174.348    21824182.144
       232.000         187.000
  21640443.693    -6643990.29149  -5162767.62247  21640443.363    21640449.190
       240.000         198.000
  20742612.503    -2732971.98749  -2124631.44647  20742612.198    20742619.241
       241.000         209.000
  23097005.561     4391386.67649   3411880.67646  23097005.406    23097014.266
       227.000         174.000
  20813031.596    -5803421.79449  -4513024.01547  20813031.048    20813038.013
       239.000         203.000
  23836058.447     7377163.77649   5734561.91345  23836058.210    23836069.646
       213.000         149.000
  24246089.342    -1939693.67349  -1503430.81945  24246089.601    24246096.352
       207.000         145.000
  21538930.542     4101686.81949   3191857.80547  21538930.938    21538937.513
       238.000         196.000
 02  2 24 14 25  0.0000000  0  8G31G28G27G 2G 8G 1G10G13
  21833790.341      893859.30649    728790.39346  21833789.772    21833797.934
       234.000         187.000
  21631598.321    -6690473.39749  -5198988.27747  21631597.657    21631603.720
       240.000         199.000
  20741139.023    -2740715.64049  -2130665.54747  20741138.808    20741145.890
       242.000         209.000
  23109576.944     4457449.28949   3463357.86646  23109576.573    23109586.120
       226.000         174.000
  20804514.095    -5848181.78149  -4547901.99647  20804513.555    20804520.635
       240.000         203.000
  23856354.770     7483820.33349   5817670.61645  23856356.258    23856365.268
       211.000         147.000
  24248821.443    -1925336.68849  -1492243.60845  24248821.011    24248828.514
       210.000         146.000
  21554126.803     4181543.22949   3254083.44447  21554127.148    21554134.227
       239.000         196.000
 02  2 24 14 25 30.0000000  0  8G31G28G27G 2G 8G 1G10G13
  21843512.600      944949.52749    768600.83346  21843512.221    21843520.234
       233.000         187.000
  21622811.118    -6736650.64349  -5234970.60147  21622810.620    21622816.411
       240.000         199.000
  20739709.348    -2748229.03049  -2136520.21847  20739709.158    20739716.106
       242.000         209.000
  23122153.744     4523540.32349   3514857.19946  23122152.627    23122162.819
       227.000         174.000
  20796028.498    -5892774.15449  -4582649.36747  20796027.780    20796035.151
       240.000         203.000
  23876680.628     7590632.46749   5900900.54645  23876681.557    23876691.218
       212.000         145.000
  24251643.427    -1910507.40449  -1480688.38245  24251643.137    24251651.162
       211.000         146.000
  21569397.295     4261789.65649   3316612.99847  21569397.617    21569404.557
       240.000         197.000
 02  2 24 14 26  0.0000000  0  8G31G28G27G 2G 8G 1G10G13
  21853340.882      996597.11949    808845.58846  21853340.707    21853348.643
       232.000         187.000
  21614082.073    -6782522.09149  -5270714.64647  21614081.653    21614087.572
       240.000         199.000
  20738323.705    -2755510.90549  -2142194.48647  20738323.577    20738330.383
       242.000         210.000
  23134735.726     4589658.84149   3566377.94246  23134734.407    23134744.362
       226.000         174.000
  20787574.974    -5937198.02349  -4617265.44047  20787574.622    20787581.564
       240.000         204.000
  23897035.767     7697597.97049   5984249.97945  23897037.225    23897047.501
       213.000         144.000
  24254555.045    -1895207.31049  -1468766.30145  24254554.212    24254562.140
       209.000         146.000
  21584741.652     4342423.98449   3379444.81747  21584741.954    21584748.764
       241.000         197.000
 02  2 24 14 26 30.0000000  0  8G31G28G27G 2G 8G 1G10G13
  21863275.056     1048801.14749    849523.92246  21863274.420    21863282.953
       232.000         186.000
  21605411.421    -6828086.89049  -5306219.74047  21605410.785    21605416.876
       240.000         199.000
  20736982.596    -2762558.94449  -2147686.54747  20736982.276    20736989.472
       242.000         210.000
  23147323.024     4655805.01849   3617920.23646  23147322.362    23147331.914
       225.000         174.000
  20779153.997    -5981450.94449  -4651748.31147  20779153.421    20779160.640
       240.000         204.000
  23917419.886     7804715.63749   6067717.98245  23917419.635    23917431.390
       212.000         145.000
  24257556.131    -1879436.83149  -1456477.67645  24257556.093    24257562.743
       208.000         146.000
  21600159.628     4423445.35949   3442578.23147  21600159.950    21600166.745
       240.000         197.000
 02  2 24 14 27  0.0000000  0  8G31G28G27G 2G 8G 1G10G13
  21873314.367     1101557.71449    890632.81046  21873313.930    21873322.094
       232.000         186.000
  21596798.706    -6873347.54249  -5341487.84347  21596798.468    21596804.172
       240.000         199.000
  20735685.787    -2769374.15449  -2152997.18347  20735685.524    20735692.608
       241.000         210.000
  23159914.986     4721975.54549   3669481.49646  23159914.635    23159923.632
       225.000         174.000
  20770765.264    -6025534.24849  -4686099.00847  20770764.659    20770771.761
       240.000         204.000
  23937832.051     7911980.95149   6151301.03045  23937831.754    23937843.473
       214.000         146.000
  24260646.089    -1863199.76749  -1443825.48245  24260645.994    24260653.009
       210.000         146.000
  21615650.390     4504849.43549   3506009.85947  21615650.736    21615657.293
       240.000         196.000
 02  2 24 14 27 30.0000000  0  8G31G28G27G 2G 8G 1G10G13
  21883458.829     1154866.49949    932171.99446  21883458.667    21883466.690
       232.000         185.000
  21588244.059    -6918302.79749  -5376517.96947  21588243.470    21588249.839
       239.000         199.000
  20734433.803    -2775953.70049  -2158124.18247  20734433.620    20734440.864
       242.000         210.000
  23172511.712     4788170.92749   3721062.12046  23172510.895    23172520.971
       225.000         174.000
  20762409.318    -6069445.39549  -4720315.55547  20762408.754    20762415.976
       240.000         204.000
  23958272.217     8019393.20449   6234998.57045  23958272.623    23958283.528
       214.000         149.000
  24263824.845    -1846495.82649  -1430809.47845  24263824.004    24263832.178
       209.000         145.000
  21631213.875     4586635.64749   3569739.24547  21631214.012    21631220.914
       240.000         196.000
 02  2 24 14 28  0.0000000  0  9G31G28G27G 7G 2G 8G 1G10G13
  21893707.913     1208725.29049    974139.76146  21893707.911    21893715.392
       232.000         185.000
  21579747.406    -6962953.10949  -5411310.48647  21579746.752    21579752.992
       239.000         199.000
  20733226.857    -2782296.59949  -2163066.78047  20733226.686    20733233.863
       242.000         210.000
  24386281.527    -3619173.24749  -2798550.50545  24386282.658    24386291.590
       208.000         140.000
  23185112.951     4854390.07549   3772661.27446  23185112.611    23185122.172
       225.000         174.000
  20754086.274    -6113183.53249  -4754397.29547  20754085.765    20754092.800
       240.000         204.000
  23978739.823     8126949.81049   6318808.58545  23978739.934    23978751.464
       214.000         150.000
  24267091.875    -1829326.95949  -1417431.21245  24267091.172    24267099.311
       208.000         145.000
  21646849.657     4668801.79749   3633764.68547  21646849.898    21646856.869
       239.000         195.000
 02  2 24 14 28 30.0000000  0  9G31G28G27G 7G 2G 8G 1G10G13
  21904060.771     1263129.23949   1016532.31946  21904060.405    21904068.742
       231.000         185.000
  21571308.150    -7007301.82849  -5445867.98947  21571307.714    21571313.596
       239.000         199.000
  20732064.632    -2788404.48649  -2167826.25547  20732064.390    20732071.758
       242.000         210.000
  24366223.851    -3724578.05849  -2880684.26945  24366224.084    24366232.938
       205.000         139.000
  23197718.028     4920629.12949   3824275.93646  23197717.714    23197727.497
       225.000         174.000
  20745795.897    -6156750.24049  -4788345.45147  20745795.515    20745802.506
       241.000         204.000
  23999233.877     8234645.49949   6402726.96945  23999234.885    23999245.009
       214.000         151.000
  24270446.629    -1811697.52349  -1403694.07145  24270445.041    24270454.119
       207.000         145.000
  21662556.780     4751342.73849   3698082.17147  21662556.864    21662563.953
       239.000         195.000
 02  2 24 14 29  0.0000000  0  9G31G28G27G 7G 2G 8G 1G10G13
  21914517.912     1318081.19549   1059351.90046  21914517.525    21914526.021
       230.000         185.000
  21562927.193    -7051344.29749  -5480186.85347  21562926.716    21562932.607
       239.000         199.000
  20730948.302    -2794271.40449  -2172397.96047  20730947.993    20730955.208
       243.000         211.000
  24346169.920    -3829963.30749  -2962802.79345  24346169.438    24346179.447
       202.000         138.000
  23210327.687     4986892.01149   3875909.17146  23210326.865    23210336.396
       226.000         174.000
  20737539.211    -6200139.80949  -4822155.57247  20737538.541    20737545.686
       241.000         204.000
  24019754.872     8342482.99249   6486755.84645  24019755.110    24019766.660
       211.000         150.000
  24273889.623    -1793604.50549  -1389595.67345  24273889.146    24273897.083
       209.000         145.000
  21678335.749     4834261.40549   3762693.98747  21678335.900    21678342.935
       239.000         195.000
 02  2 24 14 29 30.0000000  0  9G31G28G27G 7G 2G 8G 1G10G13
  21925078.712     1373578.06749   1102596.07446  21925078.494    21925086.154
       230.000         185.000
  21554604.261    -7095081.97749  -5514268.22847  21554603.818    21554610.007
       240.000         200.000
  20729877.873    -2799896.95849  -2176781.58747  20729877.704    20729884.768
       242.000         211.000
  24326119.925    -3935327.86249  -3044905.17145  24326120.667    24326130.103
       203.000         136.000
  23222941.487     5053176.96549   3927559.60046  23222941.952    23222951.092
       227.000         174.000
  20729316.267    -6243352.04249  -4855827.51447  20729315.773    20729322.949
       240.000         204.000
  24040302.269     8450458.96849   6570892.61845  24040302.675    24040314.121
       212.000         149.000
  24277420.549    -1775050.33949  -1375137.95045  24277420.102    24277428.112
       210.000         146.000
  21694186.032     4917554.77949   3827597.77747  21694186.347    21694193.308
       238.000         194.000
 02  2 24 14 30  0.0000000  0  9G31G28G27G 7G 2G 8G 1G10G13
  21935742.750     1429617.61849   1146263.12646  21935742.082    21935750.874
       230.000         184.000
  21546339.158    -7138515.63449  -5548112.69747  21546338.570    21546344.643
       239.000         200.000
  20728853.528    -2805280.30749  -2180976.48747  20728853.313    20728860.742
       242.000         211.000
  24306074.068    -4040669.68649  -3126989.84045  24306073.246    24306083.177
       203.000         136.000
  23235559.272     5119482.78749   3979226.29346  23235559.377    23235567.234
       226.000         173.000
  20721127.139    -6286386.43749  -4889360.88147  20721126.702    20721133.618
       240.000         205.000
  24060875.447     8558570.69549   6655135.17545  24060875.003    24060887.378
       209.000         148.000
  24281038.810    -1756037.07349  -1360322.48045  24281037.997    24281046.406
       208.000         146.000
  21710107.088     5001220.12049   3892791.41247  21710107.395    21710114.710
       237.000         193.000
 02  2 24 14 30 30.0000000  0  9G31G28G27G 7G 2G 8G 1G10G13
  21946509.741     1486198.35649   1190351.87846  21946509.518    21946517.554
       230.000         184.000
  21538131.986    -7181644.72349  -5581719.83547  21538131.392    21538137.766
       240.000         200.000
  20727875.607    -2810419.69249  -2184981.28947  20727875.211    20727882.511
       242.000         211.000
  24286033.156    -4145985.73149  -3209054.41645  24286032.510    24286042.956
       204.000         136.000
  23248180.921     5185809.11849   4030908.95346  23248180.879    23248189.923
       224.000         172.000
  20712972.226    -6329241.09449  -4922754.19147  20712971.748    20712978.897
       241.000         205.000
  24081474.114     8666816.56749   6739482.23745  24081475.421    24081486.378
       208.000         147.000
  24284744.014    -1736565.93449  -1345150.24945  24284742.652    24284750.898
       208.000         145.000
  21726098.686     5085255.94849   3958273.73347  21726098.895    21726106.110
       237.000         193.000
 02  2 24 14 31  0.0000000  0  9G31G28G27G 7G 2G 8G 1G10G13
  21957379.284     1543317.63049   1234860.27346  21957378.523    21957387.246
       230.000         183.000
  21529982.643    -7224470.11949  -5615090.34147  21529982.193    21529988.176
       240.000         200.000
  20726944.268    -2815314.23949  -2188795.30147  20726943.875    20726951.287
       242.000         210.000
  24265997.449    -4251274.33249  -3291097.60345  24265997.799    24266007.382
       203.000         136.000
  23260806.142     5252154.54349   4082606.50146  23260805.529    23260815.581
       224.000         170.000
  20704851.673    -6371915.29149  -4956006.88247  20704851.120    20704858.312
       241.000         205.000
  24102097.872     8775193.74449   6823931.61645  24102097.755    24102110.620
       209.000         146.000
  24288536.039    -1716638.92549  -1329622.78345  24288534.847    24288543.228
       208.000         144.000
  21742160.277     5169659.57149   4024042.65247  21742160.935    21742167.439
       237.000         193.000
 02  2 24 14 31 30.0000000  0  9G31G28G27G 7G 2G 8G 1G10G13
  21968350.883     1600973.28249   1279786.62246  21968350.567    21968359.388
       231.000         184.000
  21521890.961    -7266992.57349  -5648224.78247  21521890.495    21521896.784
       240.000         200.000
  20726059.670    -2819963.06749  -2192417.84447  20726059.368    20726066.770
       241.000         210.000
  24245967.512    -4356533.14949  -3373117.59445  24245967.466    24245977.920
       204.000         136.000
  23273434.768     5318518.02049   4134318.10846  23273435.276    23273443.696
       223.000         169.000
  20696765.581    -6414408.31949  -4989118.40247  20696765.268    20696772.391
       241.000         205.000
  24122746.126     8883699.54949   6908481.24245  24122747.160    24122758.727
       210.000         146.000
  24292414.574    -1696257.72449  -1313741.39045  24292413.742    24292421.664
       210.000         144.000
  21758291.413     5254428.60549   4090096.30547  21758291.808    21758299.010
       238.000         193.000
 02  2 24 14 32  0.0000000  0  9G31G28G27G 7G 2G 8G 1G10G13
  21979424.179     1659162.95249   1325129.08646  21979424.091    21979432.087
       231.000         184.000
  21513856.768    -7309212.78749  -5681123.71547  21513856.267    21513862.160
       240.000         201.000
  20725221.984    -2824365.28149  -2195848.22247  20725221.598    20725229.132
       241.000         210.000
  24225943.582    -4461760.21949  -3455112.82345  24225942.949    24225952.862
       204.000         136.000
  23286066.658     5384898.42249   4186042.89846  23286065.652    23286076.470
       223.000         168.000
  20688714.115    -6456719.40149  -5022088.15147  20688713.472    20688720.769
       241.000         205.000
  24143418.377     8992331.52149   6993129.17345  24143418.599    24143431.361
       212.000         147.000
  24296379.156    -1675424.13649  -1297507.50445  24296378.317    24296385.397
       208.000         144.000
  21774491.647     5339560.65149   4156432.81747  21774492.353    21774499.249
       238.000         192.000
 02  2 24 14 32 30.0000000  0  9G31G28G27G 7G 2G 8G 1G10G13
  21990598.740     1717884.82849   1370886.25746  21990599.035    21990606.847
       230.000         184.000
  21505880.111    -7351130.69249  -5713787.07447  21505879.749    21505885.805
       239.000         200.000
  20724431.519    -2828519.33949  -2199085.22947  20724431.195    20724438.795
       241.000         210.000
  24205926.171    -4566952.85949  -3537081.24545  24205926.376    24205937.100
       204.000         138.000
  23298701.655     5451295.11249   4237780.37946  23298701.455    23298710.986
       223.000         169.000
  20680697.544    -6498846.90349  -5054914.84647  20680697.141    20680703.964
       241.000         206.000
  24164114.251     9101087.61449   7077873.82445  24164114.981    24164127.317
       214.000         147.000
  24300429.354    -1654140.01849  -1280922.54645  24300427.554    24300436.295
       210.000         143.000
  21790760.620     5425053.95649   4223050.84147  21790760.920    21790768.152
       239.000         192.000
 02  2 24 14 33  0.0000000  0  9G31G28G27G 7G 2G 8G 1G10G13
  22001874.058     1777136.74949   1417056.44346  22001874.020    22001882.003
       230.000         184.000
  21497960.918    -7392746.53549  -5746215.06247  21497960.462    21497966.530
       240.000         201.000
  20723688.516    -2832423.89649  -2202127.82147  20723688.129    20723695.766
       241.000         209.000
  24185915.797    -4672108.67049  -3619020.95645  24185915.649    24185925.991
       206.000         139.000
  23311339.621     5517707.39249   4289530.02046  23311339.146    23311349.918
       222.000         169.000
  20672716.130    -6540789.83549  -5087597.72247  20672715.497    20672723.148
       241.000         206.000
  24184833.352     9209965.54549   7162713.41245  24184834.897    24184846.369
       214.000         147.000
  24304565.060    -1632406.95849  -1263987.75545  24304564.000    24304572.487
       209.000         144.000
  21807097.833     5510906.06649   4289948.45347  21807098.440    21807105.444
       239.000         192.000
 02  2 24 14 33 30.0000000  0  9G31G28G27G 7G 2G 8G 1G10G13
  22013249.870     1836916.35949   1463637.82346  22013249.494    22013258.100
       230.000         183.000
  21490099.067    -7434061.00449  -5778408.21747  21490098.494    21490104.672
       240.000         201.000
  20722993.198    -2836078.03449  -2204975.28147  20722993.000    20723000.312
       241.000         209.000
  24165912.821    -4777225.71949  -3700930.46945  24165913.166    24165922.909
       208.000         141.000
  23323980.314     5584133.94949   4341290.77846  23323979.955    23323990.250
       223.000         170.000
  20664769.990    -6582547.29149  -5120136.07247  20664769.498    20664776.978
       241.000         206.000
  24205575.052     9318962.64249   7247645.85745  24205575.199    24205587.958
       211.000         146.000
  24308785.828    -1610227.20049  -1246704.90945  24308784.629    24308792.731
       208.000         144.000
  21823502.906     5597114.83249   4357123.97547  21823503.473    21823510.240
       238.000         191.000
 02  2 24 14 34  0.0000000  0  9G31G28G27G 7G 2G 8G 1G10G13
  22024725.695     1897221.76549   1510628.91446  22024725.520    22024734.075
       231.000         183.000
  21482294.491    -7475074.42349  -5810366.78647  21482294.057    21482300.428
       240.000         201.000
  20722345.856    -2839480.10249  -2207626.32747  20722345.659    20722352.769
       242.000         209.000
  24145917.695    -4882301.10049  -3782807.51345  24145917.699    24145927.234
       207.000         142.000
  23336623.683     5650574.38849   4393062.34446  23336623.282    23336633.032
       223.000         170.000
  20656859.493    -6624117.54749  -5152528.55247  20656859.234    20656865.981
       241.000         206.000
  24226339.138     9428076.97349   7332669.64145  24226339.784    24226351.869
       213.000         145.000
  24313091.347    -1587601.74849  -1229074.76345  24313089.948    24313099.087
       206.000         144.000
  21839975.477     5683678.21349   4424575.82147  21839975.779    21839982.893
       238.000         191.000
 02  2 24 14 34 30.0000000  0  9G31G28G27G 7G 2G 8G 1G10G13
  22036301.216     1958050.96749   1558028.16046  22036300.477    22036309.343
       230.000         183.000
  21474547.240    -7515786.86849  -5842090.83047  21474547.030    21474552.947
       240.000         201.000
  20721746.760    -2842628.71849  -2210079.87747  20721746.583    20721754.070
       241.000         209.000
  24125930.979    -4987332.33249  -3864650.14145  24125930.416    24125940.742
       207.000         142.000
  23349269.530     5717028.05949   4444844.22146  23349269.247    23349279.648
       223.000         170.000
  20648984.846    -6665499.47749  -5184774.28347  20648984.346    20648991.899
       241.000         206.000
  24247125.095     9537306.46549   7417783.16245  24247126.314    24247137.952
       209.000         144.000
  24317481.413    -1564532.14849  -1211098.53045  24317480.199    24317488.161
       208.000         144.000
  21856515.142     5770594.14549   4492302.38847  21856515.119    21856522.963
       237.000         190.000
 02  2 24 14 35  0.0000000  0  9G31G28G27G 7G 2G 8G 1G10G13
  22047975.988     2019401.58549   1605833.69546  22047975.834    22047983.938
       230.000         183.000
  21466857.129    -7556199.02349  -5873580.88947  21466856.754    21466862.912
       240.000         202.000
  20721196.057    -2845523.11849  -2212335.34147  20721195.925    20721203.434
       242.000         210.000
  24105953.054    -5092317.52449  -3946456.89945  24105952.696    24105963.605
       208.000         141.000
  23361917.682     5783493.77049   4496635.47846  23361917.371    23361926.825
       223.000         170.000
  20641146.136    -6706692.34849  -5216872.70047  20641145.522    20641153.023
       241.000         206.000
  24267932.383     9646648.23249   7502984.16045  24267933.919    24267944.764
       210.000         143.000
  24321955.441    -1541020.86549  -1192778.12545  24321954.661    24321962.381
       208.000         144.000
  21873121.371     5857860.04149   4560301.63347  21873121.493    21873129.155
       236.000         190.000
 02  2 24 14 35 30.0000000  0  9G31G28G27G 7G 2G 8G 1G10G13
  22059749.562     2081271.56249   1654043.93446  22059749.014    22059758.117
       229.000         183.000
  21459224.099    -7596311.21449  -5904837.19847  21459223.589    21459229.938
       241.000         202.000
  20720694.030    -2848161.72149  -2214391.47847  20720693.982    20720701.264
       242.000         210.000
  24085984.305    -5197254.09649  -4028225.76645  24085983.940    24085994.676
       208.000         142.000
  23374567.985     5849970.93149   4548435.66046  23374568.013    23374577.688
       224.000         170.000
  20633343.714    -6747694.62849  -5248822.60147  20633343.214    20633350.558
       241.000         206.000
  24288760.649     9756100.23549   7588271.04145  24288761.400    24288773.967
       207.000         140.000
  24326513.300    -1517069.72749  -1174114.98745  24326512.706    24326520.487
       207.000         143.000
  21889793.812     5945473.84449   4628571.98247  21889794.391    21889801.265
       236.000         189.000
 02  2 24 14 36  0.0000000  0  9G31G28G27G 7G 2G 8G 1G10G13
  22071621.518     2143658.80049   1702657.21246  22071620.795    22071629.560
       228.000         182.000
  21451648.106    -7636123.55049  -5935859.86047  21451647.863    21451654.112
       240.000         203.000
  20720240.944    -2850543.12049  -2216247.20447  20720240.756    20720248.293
       242.000         210.000
  24066025.370    -5302139.37849  -4109954.66745  24066024.658    24066034.738
       208.000         142.000
  23387220.400     5916458.88849   4600244.25646  23387220.964    23387229.971
       224.000         170.000
  20625577.823    -6788504.96449  -5280622.93547  20625577.330    20625584.735
       241.000         206.000
  24309609.489     9865660.41749   7673642.22645  24309610.197    24309622.795
       209.000         140.000
  24331154.560    -1492680.17049  -1155110.20845  24331154.722    24331161.828
       209.000         143.000
  21906532.145     6033433.66049   4697111.94747  21906532.943    21906539.939
       236.000         189.000
 02  2 24 14 36 30.0000000  0  9G31G28G27G 7G 2G 8G 1G10G13
  22083591.509     2206561.20949   1751671.92746  22083591.358    22083599.831
       228.000         182.000
  21444129.054    -7675636.63949  -5966649.34247  21444128.709    21444134.956
       241.000         203.000
  20719837.023    -2852666.27849  -2217901.70247  20719836.785    20719844.108
       242.000         210.000
  24046076.612    -5406971.15949  -4191641.88945  24046076.408    24046085.969
       210.000         142.000
  23399874.706     5982956.67149   4652060.50946  23399874.544    23399885.029
       224.000         170.000
  20617848.643    -6829122.32649  -5312272.90047  20617848.201    20617855.580
       241.000         206.000
  24330478.530     9975326.33249   7759095.78145  24330479.140    24330491.691
       206.000         139.000
  24335878.912    -1467854.02849  -1135765.24245  24335878.792    24335885.640
       209.000         143.000
  21923335.707     6121736.45849   4765919.17547  21923336.160    21923343.697
       236.000         188.000
 02  2 24 14 37  0.0000000  0  9G31G28G27G 7G 2G 8G 1G10G13
  22095659.096     2269976.23249   1801086.08746  22095658.694    22095667.873
       229.000         182.000
  21436666.861    -7714851.15249  -5997206.16347  21436666.485    21436672.677
       241.000         203.000
  20719482.394    -2854530.19449  -2219354.19247  20719482.191    20719489.585
       243.000         210.000
  24026138.517    -5511747.30449  -4273285.76445  24026138.710    24026147.778
       211.000         142.000
  23412530.674     6049463.20949   4703883.57446  23412530.642    23412539.889
       223.000         170.000
  20610156.358    -6869545.86249  -5343771.83147  20610155.976    20610163.077
       241.000         206.000
  24351367.097    10085095.31349   7844629.65645  24351366.520    24351380.825
       206.000         138.000
  24340685.864    -1442593.53749  -1116081.81845  24340684.825    24340692.799
       210.000         143.000
  21940204.174     6210380.46749   4834992.27347  21940204.552    21940212.632
       235.000         188.000
 02  2 24 14 37 30.0000000  0  9G31G28G27G 7G 2G 8G 1G10G13
  22107823.809     2333901.54849   1850897.88746  22107823.792    22107832.202
       228.000         182.000
  21429261.374    -7753767.52049  -6027530.66847  21429260.951    21429267.361
       241.000         203.000
  20719177.406    -2856133.44649  -2220603.56447  20719177.122    20719184.841
       242.000         210.000
  24006211.433    -5616465.28149  -4354884.30945  24006212.165    24006221.860
       211.000         142.000
  23425188.172     6115977.98449   4755713.07046  23425187.730    23425198.415
       223.000         169.000
  20602501.284    -6909774.04249  -5375118.53347  20602501.015    20602508.069
       241.000         206.000
  24372274.916    10194965.18249   7930242.13845  24372276.894    24372287.837
       207.000         138.000
  24345575.155    -1416900.33949  -1096061.22345  24345574.589    24345582.396
       207.000         143.000
  21957137.200     6299363.68549   4904329.69347  21957137.370    21957145.354
       235.000         188.000
 02  2 24 14 38  0.0000000  0  9G31G28G27G 7G 2G 8G 1G10G13
  22120085.247     2398335.14649   1901105.73846  22120085.094    22120094.040
       229.000         182.000
  21421912.583    -7792385.92849  -6057622.99847  21421912.049    21421918.601
       241.000         203.000
  20718922.290    -2857474.51949  -2221648.63847  20718922.029    20718929.505
       242.000         211.000
  23986295.852    -5721122.70249  -4436435.67845  23986295.873    23986306.224
       211.000         143.000
  23437847.115     6182500.32849   4807548.43446  23437846.047    23437856.401
       222.000         168.000
  20594883.614    -6949805.52749  -5406311.97247  20594882.989    20594890.608
       242.000         206.000
  24393201.547    10304933.70049   8015931.48445  24393202.048    24393214.767
       208.000         139.000
  24350546.513    -1390776.08449  -1075704.74845  24350545.388    24350553.572
       209.000         144.000
  21974134.359     6388683.61849   4973929.47847  21974134.643    21974142.334
       235.000         188.000
 02  2 24 14 38 30.0000000  0  9G31G28G27G 7G 2G 8G 1G10G13
  22132442.939     2463274.69149   1951707.84346  22132442.359    22132451.672
       228.000         181.000
  21414620.394    -7830706.82949  -6087483.50247  21414619.807    21414626.107
       241.000         203.000
  20718717.260    -2858552.24549  -2222488.50847  20718717.001    20718724.722
       242.000         211.000
  23966392.300    -5825716.95049  -4517937.82445  23966391.392    23966402.472
       212.000         144.000
  23450507.338     6249029.73449   4859389.31446  23450507.122    23450516.932
       220.000         166.000
  20587303.573    -6989639.23349  -5437351.29747  20587302.947    20587310.651
       241.000         207.000
  24414146.551    10414998.77949   8101696.06145  24414147.497    24414160.675
       209.000         140.000
  24355599.467    -1364222.94149  -1055014.06345  24355598.360    24355607.986
       210.000         144.000
  21991195.166     6478337.99549   5043789.87747  21991195.412    21991203.142
       235.000         188.000
 02  2 24 14 39  0.0000000  0  9G31G28G27G 7G 2G 8G 1G10G13
  22144896.495     2528717.99249   2002702.46846  22144896.097    22144905.232
       227.000         180.000
  21407384.751    -7868730.53249  -6117112.42247  21407384.406    21407390.783
       241.000         203.000
  20718562.577    -2859365.39349  -2223122.21147  20718562.188    20718569.911
       242.000         211.000
  23946501.235    -5930245.67749  -4599388.89845  23946500.643    23946511.841
       213.000         145.000
  23463168.796     6315565.32749   4911235.00846  23463168.466    23463178.495
       220.000         166.000
  20579761.407    -7029273.80549  -5468235.45547  20579760.768    20579768.250
       241.000         207.000
  24435109.512    10525158.12349   8187534.10845  24435110.695    24435124.985
       210.000         141.000
  24360733.716    -1337242.80349  -1033990.66745  24360732.246    24360741.378
       209.000         143.000
  22008319.212     6568324.74149   5113909.25046  22008319.557    22008326.898
       234.000         187.000
 02  2 24 14 39 30.0000000  0  9G31G28G27G 7G 2G 8G 1G10G13
  22157445.360     2594662.31349   2054087.50246  22157444.990    22157454.068
       228.000         180.000
  21400205.582    -7906457.66849  -6146510.25547  21400205.036    21400211.537
       241.000         204.000
  20718458.459    -2859912.75849  -2223548.82147  20718458.130    20718465.823
       242.000         211.000
  23926623.031    -6034706.76749  -4680787.27645  23926622.694    23926633.725
       212.000         146.000
  23475831.282     6382106.22649   4963084.84346  23475831.250    23475841.715
       220.000         166.000
  20572257.383    -7068707.98649  -5498963.46147  20572256.843    20572264.190
       242.000         207.000
  24456089.940    10635409.13949   8273443.57845  24456090.591    24456103.179
       211.000         140.000
  24365948.729    -1309837.54149  -1012636.00045  24365947.526    24365955.393
       209.000         142.000
  22025505.976     6658641.10549   5184285.48446  22025505.850    22025514.179
       235.000         187.000
 02  2 24 14 40  0.0000000  0  9G31G28G27G 7G 2G 8G 1G10G13
  22170089.079     2661104.65549   2105860.59146  22170088.527    22170097.843
       228.000         181.000
  21393082.567    -7943889.69049  -6175678.13047  21393082.117    21393088.509
       241.000         204.000
  20718405.049    -2860193.92449  -2223768.00147  20718404.767    20718412.420
       242.000         211.000
  23906758.057    -6139098.51549  -4762131.60045  23906757.936    23906768.795
       213.000         147.000
  23488494.511     6448650.99349   5014937.68546  23488493.644    23488503.846
       222.000         166.000
  20564791.510    -7107941.74349  -5529535.29647  20564791.141    20564798.512
       242.000         207.000
  24477087.165    10745748.63049   8359421.99945  24477088.234    24477101.416
       210.000         141.000
  24371244.195    -1282010.04249   -990952.31145  24371242.280    24371251.690
       211.000         142.000
  22042754.905     6749284.08649   5254916.21446  22042755.218    22042762.530
       235.000         187.000
 02  2 24 14 40 30.0000000  0  9G31G28G27G 7G 2G 8G 1G10G13
  22182827.344     2728043.95749   2158020.93346  22182827.548    22182835.772
       229.000         182.000
  21386015.915    -7981025.49749  -6204615.18647  21386015.290    21386021.987
       241.000         204.000
  20718402.784    -2860206.13949  -2223777.60847  20718402.638    20718410.246
       242.000         211.000
  23886906.966    -6243417.17349  -4843418.97445  23886906.549    23886917.426
       212.000         148.000
  23501158.609     6515200.32549   5066794.09446  23501158.467    23501169.068
       221.000         166.000
  20557364.351    -7146972.10849  -5559948.64247  20557363.903    20557371.398
       242.000         207.000
  24498101.059    10856175.76149   8445468.71145  24498102.217    24498115.321
       208.000         140.000
  24376619.826    -1253761.00149   -968940.15745  24376619.418    24376626.917
       209.000         143.000
  22060065.798     6840252.74749   5325800.71846  22060066.584    22060073.632
       235.000         187.000
 02  2 24 14 41  0.0000000  0  9G31G28G27G 7G 2G 8G 1G10G13
  22195659.755     2795477.74049   2210566.58646  22195659.445    22195668.252
       228.000         182.000
  21379005.465    -8017865.96549  -6233322.10947  21379004.883    21379011.341
       241.000         204.000
  20718451.877    -2859948.68649  -2223577.07847  20718451.624    20718459.137
       242.000         210.000
  23867070.086    -6347660.76349  -4924647.83445  23867069.671    23867080.292
       211.000         148.000
  23513823.325     6581752.94249   5118653.04446  23513822.959    23513832.926
       222.000         166.000
  20549976.040    -7185798.33849  -5590202.92147  20549975.488    20549983.197
       242.000         207.000
  24519131.172    10966687.84549   8531581.60045  24519131.488    24519147.256
       209.000         139.000
  24382075.377    -1225092.55449   -946601.18845  24382074.441    24382082.265
       210.000         144.000
  22077438.162     6931544.44149   5396936.93746  22077438.597    22077446.041
       235.000         187.000
 02  2 24 14 41 30.0000000  0  8G31G28G27G 7G 2G 8G10G13
  22208585.844     2863404.14749   2263496.09546  22208585.356    22208594.704
       227.000         181.000
  21372051.202    -8054411.20149  -6261798.98247  21372050.627    21372056.989
       241.000         204.000
  20718552.587    -2859419.79049  -2223165.03847  20718552.235    20718560.022
       242.000         210.000
  23847248.127    -6451826.25249  -5005815.82745  23847247.304    23847258.118
       212.000         149.000
  23526488.644     6648308.72449   5170514.46546  23526488.231    23526498.247
       221.000         166.000
  20542626.902    -7224418.55449  -5620296.67147  20542626.256    20542633.948
       242.000         208.000
  24387610.503    -1196006.34049   -923936.69245  24387609.599    24387618.569
       211.000         145.000
  22094871.671     7023157.35849   5468323.46546  22094872.158    22094879.810
       235.000         186.000
 02  2 24 14 42  0.0000000  0  8G31G28G27G 7G 2G 8G10G13
  22221605.583     2931822.75849   2316809.13646  22221605.942    22221614.553
       227.000         180.000
  21365153.394    -8090659.43749  -6290044.43347  21365152.942    21365158.951
       241.000         204.000
  20718705.592    -2858616.08249  -2222538.86447  20718705.369    20718713.210
       242.000         210.000
  23827441.870    -6555909.31249  -5086919.59645  23827441.366    23827452.229
       210.000         149.000
  23539154.840     6714869.18949   5222379.52346  23539154.073    23539165.712
       221.000         166.000
  20535317.611    -7262829.49349  -5650227.34847  20535317.076    20535324.479
       242.000         208.000
  24393225.078    -1166502.19749   -900946.54545  24393224.862    24393232.452
       210.000         145.000
  22112366.169     7115090.87949   5539959.80346  22112366.517    22112374.266
       234.000         185.000
 02  2 24 14 42 30.0000000  0  8G31G28G27G 7G 2G 8G10G13
  22234717.809     3000727.45949   2370500.94746  22234717.216    22234726.994
       227.000         179.000
  21358311.294    -8126615.17649  -6318061.95447  21358310.779    21358317.510
       241.000         204.000
  20718910.367    -2857540.14149  -2221700.56047  20718910.127    20718918.001
       242.000         210.000
  23807650.958    -6659911.35349  -5167960.22345  23807650.626    23807661.047
       211.000         150.000
  23551821.063     6781429.73649   5274244.66246  23551820.244    23551831.002
       221.000         166.000
  20528047.628    -7301033.74049  -5679996.96347  20528047.289    20528054.825
       242.000         208.000
  24398917.893    -1136586.32249   -877635.56045  24398917.471    24398925.375
       209.000         144.000
  22129920.578     7207339.19849   5611841.44446  22129921.014    22129928.591
       234.000         185.000
 02  2 24 14 43  0.0000000  0  8G31G28G27G 7G 2G 8G10G13
  22247922.179     3070116.27049   2424569.98446  22247922.624    22247931.130
       228.000         179.000
  21351524.854    -8162278.42149  -6345851.56447  21351524.437    21351530.846
       241.000         204.000
  20719167.322    -2856190.16749  -2220648.71947  20719166.959    20719174.977
       242.000         210.000
  23787876.072    -6763829.56149  -5248935.52445  23787875.476    23787885.727
       211.000         150.000
  23564487.257     6847990.19649   5326109.72346  23564486.595    23564497.930
       220.000         165.000
  20520817.333    -7339029.50849  -5709604.13047  20520816.864    20520824.342
       242.000         208.000
  24404688.752    -1106260.16549   -854004.89245  24404687.936    24404695.834
       208.000         144.000
  22147534.520     7299900.40449   5683966.88646  22147535.051    22147542.815
       233.000         184.000
 02  2 24 14 43 30.0000000  0  8G31G28G27G 7G 2G 8G10G13
  22261218.338     3139987.13549   2479014.65046  22261217.850    22261227.710
       229.000         180.000
  21344794.103    -8197649.00049  -6373413.12047  21344793.647    21344800.073
       241.000         204.000
  20719476.733    -2854564.42849  -2219381.99747  20719476.525    20719484.306
       242.000         210.000
  23768117.687    -6867660.88749  -5329843.11645  23768117.864    23768127.523
       212.000         151.000
  23577153.408     6914550.31349   5377974.51846  23577153.037    23577164.174
       221.000         165.000
  20513627.050    -7376814.94549  -5739047.40247  20513626.492    20513634.182
       242.000         208.000
  24410537.540    -1075524.85149   -830055.38345  24410537.187    24410544.509
       209.000         143.000
  22165207.588     7392772.49949   5756334.57846  22165207.666    22165216.159
       232.000         183.000
 02  2 24 14 44  0.0000000  0  8G31G28G27G 7G 2G 8G10G13
  22274605.675     3210337.48049   2533832.94246  22274605.292    22274614.608
       227.000         180.000
  21338118.928    -8232727.68749  -6400747.22747  21338118.678    21338124.963
       241.000         204.000
  20719838.921    -2852661.61249  -2217899.37047  20719838.704    20719846.467
       242.000         210.000
  23748376.301    -6971403.02249  -5410681.21645  23748375.482    23748386.693
       211.000         152.000
  23589819.394     6981109.64649   5429838.70146  23589818.219    23589829.807
       221.000         165.000
  20506477.007    -7414388.76849  -5768325.77747  20506476.442    20506484.079
       242.000         207.000
  24416463.747    -1044382.93049   -805789.05945  24416462.825    24416472.285
       209.000         143.000
  22182939.369     7485953.14749   5828942.69446  22182939.880    22182946.950
       232.000         183.000
 02  2 24 14 44 30.0000000  0  8G31G28G27G 7G 2G 8G10G13
  22288083.798     3281165.29049   2589023.27546  22288083.901    22288093.303
       226.000         180.000
  21331499.268    -8267514.52349  -6427853.92347  21331498.781    21331505.463
       241.000         204.000
  20720254.077    -2850480.22649  -2216199.68147  20720253.857    20720261.817
       242.000         210.000
  23728652.383    -7075053.19449  -5491447.65245  23728652.256    23728662.936
       213.000         153.000
  23602485.221     7047668.00249   5481702.11446  23602484.750    23602495.382
       222.000         165.000
  20499367.516    -7451749.60549  -5797438.19547  20499367.133    20499374.839
       242.000         208.000
  24422466.887    -1012836.27449   -781207.34645  24422466.049    24422474.941
       208.000         142.000
  22200729.470     7579440.35349   5901789.69046  22200729.685    22200737.875
       232.000         182.000
 02  2 24 14 45  0.0000000  0  9G31G28G27G11G 7G 2G 8G10G13
  22301651.781     3352465.48449   2644581.68746  22301651.218    22301661.331
       225.000         179.000
  21324934.460    -8302012.89949  -6454735.84247  21324933.985    21324940.680
       241.000         204.000
  20720721.984    -2848021.80449  -2214284.11347  20720721.743    20720729.670
       242.000         210.000
  24683651.218    -7551892.54649  -5694762.47345  24683650.604    24683665.812
       209.000         142.000
  23708945.863    -7178611.79249  -5572142.74045  23708945.429    23708956.716
       213.000         153.000
  23615150.230     7114221.82949   5533562.01046  23615149.632    23615161.015
       222.000         165.000
  20492298.353    -7488898.69149  -5826385.61347  20492297.817    20492305.721
       242.000         208.000
  24428546.238     -980889.36749   -756313.75945  24428545.210    24428554.892
       207.000         142.000
  22218576.969     7673228.94449   5974871.53446  22218577.139    22218586.166
       232.000         181.000
 02  2 24 14 45 30.0000000  0  9G31G28G27G11G 7G 2G 8G10G13
  22315309.841     3424238.90149   2700508.85046  22315309.972    22315319.214
       226.000         178.000
  21318425.115    -8336220.07149  -6481390.85247  21318424.562    21318431.171
       241.000         204.000
  20721243.473    -2845281.76749  -2212149.10747  20721243.232    20721251.205
       242.000         210.000
  24672209.835    -7612017.37149  -5741612.97845  24672210.014    24672224.530
       213.000         147.000
  23689257.912    -7282073.03449  -5652761.95145  23689257.548    23689268.885
       213.000         154.000
  23627814.882     7180773.88349   5585420.51646  23627815.204    23627826.265
       222.000         165.000
  20485270.369    -7525831.34749  -5855164.37947  20485269.783    20485277.486
       244.000         208.000
  24434702.025     -948541.04549   -731107.39045  24434701.958    24434708.029
       209.000         142.000
  22236482.003     7767319.82349   6048188.91946  22236481.914    22236489.942
       232.000         181.000
 02  2 24 14 46  0.0000000  0  9G31G28G27G11G 7G 2G 8G10G13
  22329057.576     3496482.87149   2756802.67746  22329057.465    22329066.688
       227.000         178.000
  21311971.088    -8370136.56549  -6507819.35347  21311970.540    21311977.179
       241.000         204.000
  20721818.772    -2842259.07349  -2209793.85447  20721818.474    20721826.454
       242.000         210.000
  24660785.426    -7672053.92349  -5788394.70245  24660785.404    24660800.462
       215.000         150.000
  23669588.917    -7385434.95449  -5733303.76845  23669588.855    23669598.975
       214.000         154.000
  23640479.005     7247323.15249   5637276.85446  23640478.317    23640490.436
       222.000         165.000
  20478283.732    -7562546.67749  -5883773.80447  20478283.329    20478290.832
       244.000         208.000
  24440933.766     -915793.68549   -705590.05945  24440932.604    24440942.285
       212.000         142.000
  22254444.080     7861710.45049   6121739.88646  22254444.309    22254452.847
       231.000         180.000
 02  2 24 14 46 30.0000000  0  9G31G28G27G11G 7G 2G 8G10G13
  22342894.407     3569194.83449   2813461.18546  22342894.296    22342904.031
       228.000         178.000
  21305572.227    -8403763.11349  -6534021.92347  21305571.889    21305578.283
       241.000         204.000
  20722448.062    -2838952.48149  -2207217.38347  20722447.678    20722455.764
       242.000         210.000
  24649378.396    -7731999.36749  -5835105.43845  24649379.650    24649392.551
       214.000         150.000
  23649939.283    -7488694.91649  -5813766.15145  23649938.958    23649950.251
       213.000         155.000
  23653142.505     7313869.10749   5689130.60346  23653142.300    23653153.313
       221.000         165.000
  20471338.746    -7599043.14849  -5912212.68747  20471338.217    20471345.979
       244.000         208.000
  24447240.990     -882649.41749   -679763.46945  24447240.448    24447249.517
       209.000         142.000
  22272462.709     7956398.38449   6195522.51046  22272463.005    22272471.215
       230.000         180.000
 02  2 24 14 47  0.0000000  0  9G31G28G27G11G 7G 2G 8G10G13
  22356819.759     3642372.00049   2870482.18546  22356819.296    22356829.225
       228.000         178.000
  21299228.378    -8437100.56949  -6559999.22847  21299228.101    21299234.579
       241.000         204.000
  20723131.564    -2835361.14949  -2204419.03347  20723131.475    20723139.410
       242.000         210.000
  24637989.137    -7791851.20949  -5881743.23845  24637989.095    24638003.708
       213.000         148.000
  23630309.415    -7591851.05749  -5894147.62545  23630309.417    23630319.748
       214.000         155.000
  23665805.148     7380410.74549   5740980.99946  23665805.654    23665815.404
       220.000         164.000
  20464435.546    -7635320.00149  -5940480.44047  20464435.076    20464442.726
       244.000         208.000
  24453623.270     -849110.96549   -653629.71145  24453622.969    24453631.601
       209.000         142.000
  22290537.438     8051380.91049   6269534.67546  22290537.972    22290545.352
       231.000         181.000
 02  2 24 14 47 30.0000000  0  9G31G28G27G11G 7G 2G 8G10G13
  22370833.103     3716011.80049   2927863.67546  22370832.885    22370842.121
       226.000         177.000
  21292939.480    -8470149.30049  -6585751.55347  21292939.055    21292945.719
       241.000         204.000
  20723869.480    -2831483.76649  -2201397.78947  20723869.234    20723877.340
       242.000         210.000
  24626618.104    -7851606.58649  -5928305.84545  24626617.398    24626630.697
       210.000         143.000
  23610699.780    -7694900.72149  -5974446.13545  23610699.423    23610710.274
       213.000         156.000
  23678466.852     7446947.76349   5792827.77946  23678466.849    23678477.966
       220.000         163.000
  20457574.500    -7671375.49749  -5968575.70847  20457573.936    20457581.778
       244.000         209.000
  24460080.146     -815180.56349   -627190.56345  24460079.689    24460088.389
       208.000         142.000
  22308667.780     8146655.59849   6343774.50646  22308668.730    22308675.868
       231.000         181.000
 02  2 24 14 48  0.0000000  0  9G31G28G27G11G 7G 2G 8G10G13
  22384934.057     3790112.09249   2985603.97846  22384933.893    22384943.507
       225.000         176.000
  21286705.414    -8502909.61649  -6611279.13347  21286704.961    21286711.594
       241.000         205.000
  20724662.148    -2827318.81949  -2198152.46747  20724661.825    20724669.782
       242.000         210.000
  24615265.837    -7911262.37549  -5974790.87345  24615264.497    24615279.046
       208.000         139.000
  23591110.865    -7797841.32049  -6054659.65345  23591110.264    23591121.013
       215.000         157.000
  23691127.595     7513479.81649   5844670.68845  23691126.964    23691139.033
       220.000         162.000
  20450755.804    -7707208.42049  -5996497.54147  20450755.397    20450763.009
       244.000         209.000
  24466611.226     -780859.85649   -600447.25545  24466610.878    24466618.955
       208.000         141.000
  22326853.303     8242220.19949   6418240.24746  22326853.511    22326862.045
       231.000         182.000
 02  2 24 14 48 30.0000000  0  9G31G28G27G11G 7G 2G 8G10G13
  22399121.979     3864669.65849   3043700.59546  22399121.361    22399131.604
       224.000         175.000
  21280526.012    -8535382.88249  -6636583.04147  21280525.908    21280532.162
       241.000         205.000
  20725509.624    -2822865.63749  -2194682.54847  20725509.518    20725517.396
       242.000         210.000
  24603933.030    -7970816.28349  -6021196.51745  24603932.642    24603946.520
       209.000         136.000
  23571543.099    -7900670.99349  -6134786.72345  23571542.001    23571553.922
       215.000         158.000
  23703787.146     7580005.60049   5896508.70645  23703787.829    23703797.369
       219.000         161.000
  20443979.633    -7742817.73249  -6024245.13147  20443979.248    20443987.138
       244.000         209.000
  24473216.005     -746151.73049   -573402.08745  24473215.755    24473224.277
       206.000         141.000
  22345093.469     8338071.80149   6492929.62746  22345093.664    22345102.839
       232.000         182.000
 02  2 24 14 49  0.0000000  0  9G31G28G27G11G 7G 2G 8G10G13
  22413396.503     3939682.46749   3102151.95246  22413396.369    22413405.987
       224.000         175.000
  21274401.245    -8567569.13149  -6661663.29647  21274400.789    21274407.397
       242.000         205.000
  20726412.269    -2818122.70149  -2190986.83347  20726411.924    20726420.015
       242.000         210.000
  24592620.276    -8030265.44149  -6067520.54745  24592618.864    24592633.764
       207.000         133.000
  23551996.948    -8003387.02149  -6214825.24945  23551997.122    23552007.860
       215.000         158.000
  23716445.511     7646524.98549   5948341.76645  23716445.906    23716456.399
       219.000         161.000
  20437246.351    -7778201.74449  -6051817.15747  20437245.939    20437253.578
       244.000         209.000
  24479894.176     -711058.03949   -546056.46245  24479893.722    24479902.567
       206.000         141.000
  22363387.790     8434208.37349   6567841.05646  22363388.348    22363396.834
       231.000         182.000
 02  2 24 14 49 30.0000000  0  9G31G28G27G11G 7G 2G 8G10G13
  22427757.071     4015147.33649   3160955.55146  22427756.937    22427766.671
       226.000         176.000
  21268330.914    -8599469.31749  -6686520.65047  21268330.711    21268337.338
       242.000         205.000
  20727370.186    -2813088.99749  -2187064.55347  20727369.850    20727378.001
       242.000         210.000
  24581327.837    -8089607.06549  -6113760.77144  24581327.031    24581340.044
       202.000         131.000
  23532472.834    -8105987.35049  -6294773.61545  23532472.808    23532483.011
       216.000         158.000
  23729102.517     7713037.16549   6000169.19545  23729102.484    23729113.429
       219.000         160.000
  20430556.098    -7813359.62249  -6079212.98347  20430555.501    20430563.266
       244.000         209.000
  24486645.267     -675581.38449   -518412.45445  24486644.149    24486652.283
       211.000         141.000
  22381735.832     8530627.22149   6642972.42846  22381736.276    22381744.499
       230.000         181.000
 02  2 24 14 50  0.0000000  0  9G31G28G27G11G 7G 2G 8G10G13
  22442203.278     4091061.88549   3220109.56246  22442203.036    22442212.871
       226.000         176.000
  21262314.904    -8631083.74949  -6711155.33247  21262314.476    21262321.199
       242.000         206.000
  20728383.711    -2807763.12549  -2182914.61047  20728383.509    20728391.479
       242.000         210.000
  24570056.126    -8148838.53449  -6159915.12844  24570052.467    24570067.373
       200.000         129.000
  23512971.195    -8208469.42549  -6374629.83945  23512970.829    23512981.599
       216.000         157.000
  23741758.106     7779541.80449   6051990.75045  23741758.043    23741769.443
       218.000         160.000
  20423909.158    -7848289.72749  -6106431.31847  20423908.532    20423916.396
       244.000         209.000
  24493468.844     -639723.95349   -490471.70745  24493468.565    24493476.558
       211.000         140.000
  22400137.050     8627325.83049   6718321.79746  22400137.238    22400145.922
       230.000         180.000
 02  2 24 14 50 30.0000000  0  9G31G28G27G11G 7G 2G 8G10G13
  22456734.618     4167423.41849   3279611.87146  22456734.936    22456744.216
       226.000         175.000
  21256353.137    -8662413.45349  -6735568.14747  21256352.683    21256359.293
       242.000         206.000
  20729452.999    -2802144.20649  -2178536.32147  20729452.599    20729460.878
       242.000         210.000
  24558805.874    -8207957.32649  -6205981.71344  24558806.172    24558818.321
       203.000         129.000
  23493492.521    -8310830.95149  -6454392.13045  23493491.724    23493503.003
       217.000         157.000
  23754412.101     7846037.96049   6103805.68545  23754411.713    23754423.073
       217.000         160.000
  20417305.789    -7882990.88849  -6133471.25647  20417305.214    20417312.891
       244.000         209.000
  24500364.284     -603488.21749   -462236.18745  24500363.281    24500371.754
       209.000         140.000
  22418591.041     8724301.63249   6793887.16146  22418591.082    22418600.373
       231.000         179.000
 02  2 24 14 51  0.0000000  0  9G31G28G27G11G 7G 2G 8G10G13
  22471350.515     4244229.29049   3339460.41946  22471350.688    22471360.086
       224.000         174.000
  21250445.483    -8693458.73449  -6759759.34047  21250445.003    21250451.660
       242.000         206.000
  20730578.355    -2796230.78649  -2173928.55047  20730577.960    20730586.202
       242.000         210.000
  24547578.064    -8266960.30749  -6251958.06645  24547578.015    24547590.795
       206.000         132.000
  23474037.225    -8413069.59149  -6534058.67045  23474036.753    23474048.200
       217.000         156.000
  23767064.413     7912525.31649   6155613.77245  23767063.554    23767076.305
       216.000         159.000
  20410746.220    -7917461.62749  -6160331.64347  20410745.635    20410753.570
       244.000         209.000
  24507331.375     -566876.11149   -433707.39445  24507331.388    24507339.427
       207.000         141.000
  22437097.395     8821552.39749   6869666.79146  22437097.690    22437107.096
       230.000         178.000
 02  2 24 14 51 30.0000000  0  9G31G28G27G11G 7G 2G 8G10G13
  22486050.377     4321476.76449   3399653.06746  22486049.512    22486059.555
       223.000         173.000
  21244591.740    -8724220.66649  -6783729.74147  21244591.136    21244597.967
       242.000         206.000
  20731759.871    -2790022.00049  -2169090.62647  20731759.621    20731767.628
       242.000         209.000
  24536372.941    -8325845.05249  -6297842.29245  24536373.572    24536387.230
       209.000         133.000
  23454605.701    -8515183.18149  -6613627.75945  23454604.445    23454616.387
       215.000         155.000
  23779714.879     7979002.97449   6207414.29845  23779714.826    23779726.925
       217.000         159.000
  20404230.744    -7951700.98249  -6187011.72747  20404230.035    20404238.121
       244.000         209.000
  24514369.657     -529890.33749   -404887.42445  24514367.876    24514377.700
       210.000         141.000
  22455655.515     8919075.18949   6945658.38946  22455656.163    22455665.012
       230.000         178.000
 02  2 24 14 52  0.0000000  0  9G31G28G27G11G 7G 2G 8G10G13
  22500833.773     4399163.47449   3460187.98646  22500833.897    22500842.823
       223.000         172.000
  21238791.863    -8754699.50049  -6807479.54847  21238791.321    21238797.815
       242.000         206.000
  20732997.918    -2783516.43249  -2164021.44847  20732997.734    20733005.780
       241.000         209.000
  24525190.856    -8384608.59649  -6343632.11945  24525191.673    24525204.557
       210.000         135.000
  23435198.430    -8617169.14649  -6693097.40645  23435198.160    23435209.073
       216.000         154.000
  23792363.421     8045470.72649   6259207.09245  23792363.489    23792374.406
       217.000         159.000
  20397759.600    -7985707.35349  -6213510.25947  20397759.105    20397767.093
       244.000         209.000
  24521478.637     -492533.17249   -375778.07445  24521478.444    24521486.776
       208.000         141.000
  22474264.949     9016867.67549   7021860.13046  22474265.240    22474274.444
       229.000         178.000
 02  2 24 14 52 30.0000000  0  9G31G28G27G11G 7G 2G 8G10G13
  22515700.327     4477286.97549   3521063.24646  22515700.485    22515710.164
       224.000         173.000
  21233045.740    -8784895.93949  -6831009.30547  21233045.169    21233051.895
       242.000         206.000
  20734292.694    -2776712.70249  -2158719.94047  20734292.238    20734300.583
       241.000         209.000
  24514032.374    -8443247.87749  -6389325.09245  24514032.528    24514045.041
       211.000         137.000
  23415815.947    -8719024.82249  -6772465.51245  23415815.019    23415825.706
       215.000         154.000
  23805010.009     8111928.28849   6310991.94145  23805010.354    23805021.196
       216.000         160.000
  20391333.064    -8019479.28049  -6239826.11247  20391332.544    20391340.420
       244.000         209.000
  24528657.879     -454806.77649   -346380.99845  24528657.814    24528667.019
       209.000         141.000
  22492925.228     9114927.54349   7098270.21746  22492925.672    22492935.048
       228.000         177.000
 02  2 24 14 53  0.0000000  0  9G31G28G27G11G 7G 2G 8G10G13
  22530649.551     4555844.58049   3582276.77146  22530649.396    22530658.942
       226.000         174.000
  21227353.216    -8814810.48849  -6854319.40547  21227352.739    21227359.523
       242.000         206.000
  20735644.416    -2769609.65749  -2153185.18947  20735644.182    20735652.343
       242.000         209.000
  24502897.867    -8501760.41049  -6434919.30245  24502895.898    24502910.901
       207.000         137.000
  23396458.669    -8820748.04549  -6851730.40245  23396458.559    23396469.319
       216.000         155.000
  23817654.513     8178374.74549   6362768.15345  23817654.341    23817666.740
       216.000         160.000
  20384951.419    -8053015.33249  -6265958.16847  20384950.862    20384958.845
       244.000         209.000
  24535906.873     -416713.54649   -316698.07945  24535906.226    24535914.752
       208.000         139.000
  22511635.924     9213252.23949   7174886.66746  22511636.049    22511645.364
       228.000         176.000
 02  2 24 14 53 30.0000000  0  9G31G28G27G11G 7G 2G 8G10G13
  22545680.864     4634833.70449   3643826.55546  22545680.750    22545690.184
       226.000         175.000
  21221714.220    -8844443.76749  -6877410.33147  21221713.673    21221720.501
       242.000         206.000
  20737053.390    -2762205.94749  -2147416.15147  20737053.057    20737061.427
       242.000         209.000
  24491787.840    -8560143.24849  -6480412.41645  24491787.089    24491799.971
       207.000         137.000
  23377127.102    -8922336.35049  -6930890.15445  23377126.772    23377137.577
       216.000         156.000
  23830296.840     8244809.75049   6414535.42145  23830296.589    23830308.774
       218.000         161.000
  20378614.991    -8086313.96149  -6291905.21147  20378614.329    20378622.407
       244.000         209.000
  24543225.291     -378255.54449   -286730.92645  24543223.890    24543232.598
       206.000         138.000
  22530396.562     9311839.38449   7251707.62646  22530396.851    22530405.969
       228.000         175.000
 02  2 24 14 54  0.0000000  0  9G31G28G27G11G 7G 2G 8G10G13
  22560793.767     4714251.62849   3705710.45246  22560793.857    22560803.957
       225.000         176.000
  21216128.704    -8873796.21549  -6900282.43347  21216128.210    21216135.054
       242.000         207.000
  20738519.828    -2754500.18049  -2141411.75147  20738519.672    20738527.884
       241.000         209.000
  24480703.028    -8618393.35549  -6525802.09345  24480702.682    24480716.270
       206.000         136.000
  23357821.764    -9023787.05249  -7009942.68345  23357821.816    23357832.649
       217.000         157.000
  23842937.003     8311233.14149   6466293.65445  23842936.858    23842949.148
       218.000         162.000
  20372323.997    -8119373.66949  -6317666.08547  20372323.364    20372331.461
       244.000         209.000
  24550612.574     -339435.16349   -256481.39045  24550611.885    24550620.108
       206.000         137.000
  22549206.745     9410686.73249   7328731.34446  22549207.269    22549216.281
       228.000         174.000
 02  2 24 14 54 30.0000000  0  9G31G28G27G11G 7G 2G 8G10G13
  22575987.667     4794095.62049   3767926.36046  22575986.800    22575998.017
       224.000         175.000
  21210596.495    -8902868.42649  -6922936.17147  21210596.110    21210602.714
       243.000         207.000
  20740043.918    -2746491.37249  -2135171.21647  20740043.846    20740052.043
       242.000         209.000
  24469644.205    -8676508.05049  -6571086.27745  24469644.178    24469657.245
       205.000         136.000
  23338543.039    -9125097.79049  -7088886.14845  23338543.183    23338553.666
       219.000         158.000
  23855574.823     8377644.31449   6518042.35445  23855574.879    23855586.570
       217.000         161.000
  20366078.740    -8152193.14649  -6343239.76947  20366078.177    20366086.191
       244.000         209.000
  24558068.397     -300254.62549   -225951.22345  24558067.544    24558076.079
       206.000         137.000
  22568065.931     9509791.61449   7405955.73046  22568066.463    22568075.115
       227.000         173.000
 02  2 24 14 55  0.0000000  0  9G31G28G27G11G 7G 2G 8G10G13
  22591262.066     4874362.70949   3830471.93846  22591261.975    22591272.370
       224.000         174.000
  21205117.446    -8931661.39749  -6945372.31747  21205117.043    21205123.738
       243.000         207.000
  20741625.882    -2738178.53249  -2128693.77047  20741625.701    20741634.259
       242.000         209.000
  24458611.578    -8734484.84949  -6616263.02345  24458611.246    24458625.192
       206.000         136.000
  23319291.283    -9226266.63949  -7167719.05145  23319291.141    23319301.749
       219.000         159.000
  23868210.268     8444042.65549   6569781.05945  23868210.172    23868222.437
       217.000         161.000
  20359879.349    -8184771.44049  -6368625.51847  20359878.799    20359886.753
       244.000         209.000
  24565592.301     -260716.75649   -195142.62845  24565591.315    24565601.265
       207.000         137.000
  22586973.658     9609151.36249   7483378.70946  22586974.253    22586983.241
       228.000         173.000
 02  2 24 14 55 30.0000000  0  9G31G28G27G11G 7G 2G 8G10G13
  22606616.575     4955050.53449   3893345.36846  22606616.505    22606626.614
       223.000         173.000
  21199691.459    -8960175.65549  -6967591.28247  21199691.039    21199697.524
       243.000         207.000
  20743265.986    -2729560.32149  -2121978.36447  20743265.686    20743274.151
       242.000         209.000
  24447605.716    -8792320.83649  -6661330.01745  24447604.366    24447620.228
       205.000         136.000
  23300067.045    -9327290.99949  -7246439.35845  23300066.350    23300076.525
       218.000         159.000
  23880843.164     8510427.83649   6621509.51145  23880843.036    23880855.248
       219.000         161.000
  20353726.141    -8217107.00249  -6393822.12747  20353725.469    20353733.595
       244.000         209.000
  24573183.799     -220823.87649   -164057.39745  24573182.480    24573192.975
       207.000         139.000
  22605929.385     9708763.56349   7560998.41846  22605930.700    22605939.440
       228.000         173.000
 02  2 24 14 56  0.0000000  0  9G31G28G27G11G 7G 2G 8G10G13
  22622050.691     5036156.30949   3956544.48146  22622050.540    22622060.205
       224.000         172.000
  21194318.290    -8988411.95949  -6989593.65847  21194317.679    21194324.561
       243.000         207.000
  20744964.340    -2720635.70049  -2115024.20447  20744964.010    20744972.466
       242.000         209.000
  24436627.204    -8850013.21749  -6706285.10345  24436627.465    24436641.164
       209.000         137.000
  23280870.708    -9428168.60249  -7325045.30445  23280870.279    23280881.027
       219.000         159.000
  23893473.458     8576799.43149   6673227.38045  23893473.802    23893487.131
       218.000         161.000
  20347619.404    -8249198.39549  -6418828.47447  20347618.907    20347626.997
       244.000         209.000
  24580842.421     -180578.44549   -132697.45645  24580842.177    24580851.218
       205.000         139.000
  22624932.665     9808625.41149   7638812.64246  22624933.494    22624941.929
       229.000         174.000
 02  2 24 14 56 30.0000000  0  9G31G28G27G11G 7G 2G 8G10G13
  22637563.840     5117677.07149   4020066.95746  22637564.110    22637573.512
       224.000         172.000
  21188997.859    -9016371.24249  -7011380.17147  21188997.053    21189004.051
       242.000         207.000
  20746721.125    -2711403.97849  -2107830.74547  20746720.734    20746729.235
       241.000         209.000
  24425676.580    -8907559.56649  -6751126.42245  24425677.395    24425689.656
       209.000         138.000
  23261702.652    -9528897.41149  -7403535.29145  23261702.239    23261712.759
       218.000         159.000
  23906101.021     8643156.53749   6724933.95445  23906100.611    23906113.360
       218.000         160.000
  20341559.325    -8281044.60849  -6443643.77247  20341558.602    20341566.739
       244.000         209.000
  24588567.483     -139983.20349   -101064.94045  24588567.709    24588574.726
       206.000         139.000
  22643982.976     9908734.25549   7716819.33146  22643983.087    22643992.467
       228.000         175.000
 02  2 24 14 57  0.0000000  0  9G31G28G27G11G 7G 2G 8G10G13
  22653155.436     5199610.44549   4083910.95346  22653154.997    22653165.563
       224.000         172.000
  21183730.108    -9044053.76749  -7032951.03047  21183729.489    21183736.356
       243.000         207.000
  20748536.703    -2701863.39749  -2100396.61547  20748536.517    20748544.894
       241.000         209.000
  24414754.388    -8964956.68349  -6795851.43845  24414754.307    24414767.160
       210.000         139.000
  23242563.422    -9629474.64549  -7481907.17245  23242562.619    23242573.414
       217.000         160.000
  23918725.765     8709498.98849   6776629.10845  23918725.561    23918738.155
       217.000         160.000
  20335546.266    -8312643.80149  -6468266.59447  20335545.695    20335553.825
       245.000         210.000
  24596358.844      -99040.01449    -69161.29045  24596359.435    24596367.081
       207.000         138.000
  22663079.822    10009087.77349   7795016.68346  22663080.526    22663089.415
       228.000         175.000
 02  2 24 14 57 30.0000000  0  9G31G28G27G11G 7G 2G 8G10G13
  22668824.952     5281953.56349   4148074.22346  22668824.819    22668835.226
       224.000         172.000
  21178514.878    -9071460.20349  -7054306.75247  21178514.450    21178521.166
       242.000         207.000
  20750411.295    -2692012.86049  -2092720.96347  20750410.999    20750419.725
       241.000         209.000
  24403860.982    -9022201.89949  -6840458.08345  24403860.479    24403875.233
       213.000         139.000
  23223453.502    -9729898.01249  -7560159.14945  23223453.128    23223464.150
       217.000         161.000
  23931347.687     8775826.37149   6828312.52945  23931346.973    23931359.502
       217.000         160.000
  20329580.459    -8343994.70649  -6492695.94447  20329579.975    20329587.986
       244.000         210.000
  24604215.970      -57751.56249    -36988.61245  24604215.166    24604223.405
       205.000         139.000
  22682222.694    10109683.49749   7873402.74746  22682223.563    22682232.320
       227.000         173.000
 02  2 24 14 58  0.0000000  0  9G31G28G27G11G 7G 2G 8G10G13
  22684571.926     5364703.78649   4212554.70546  22684572.167    22684582.486
       223.000         173.000
  21173352.041    -9098591.46549  -7075448.05847  21173351.574    21173358.409
       242.000         207.000
  20752345.012    -2681851.43349  -2084803.06047  20752344.601    20752353.265
       241.000         209.000
  24392997.088    -9079292.58649  -6884944.32245  24392996.060    24393010.758
       214.000         143.000
  23204373.315    -9830165.15849  -7638289.39746  23204372.447    23204383.873
       219.000         163.000
  23943966.593     8842138.12249   6879983.75945  23943966.077    23943978.800
       218.000         160.000
  20323662.192    -8375095.79449  -6516930.62647  20323661.682    20323669.815
       245.000         210.000
  24612138.268      -16120.42449     -4548.88345  24612136.582    24612146.736
       208.000         138.000
  22701411.084    10210518.73049   7951975.44846  22701412.109    22701421.503
       225.000         172.000
 02  2 24 14 58 30.0000000  0  9G31G28G27G11G 7G 2G 8G10G13
  22700395.901     5447858.51949   4277350.38846  22700395.843    22700406.361
       223.000         172.000
  21168241.455    -9125448.07149  -7096375.34147  21168240.772    21168247.789
       243.000         207.000
  20754338.174    -2671377.69149  -2076641.79147  20754338.071    20754346.537
       241.000         209.000
  24382163.051    -9136225.95149  -6929307.96845  24382164.109    24382177.112
       214.000         144.000
  23185323.328    -9930273.76049  -7716296.10846  23185322.615    23185333.880
       218.000         163.000
  23956582.456     8908433.98749   6931642.61145  23956582.393    23956595.485
       217.000         160.000
  20317791.716    -8405945.63149  -6540969.52347  20317791.266    20317799.349
       245.000         210.000
  24620125.248       25850.98249     28155.97045  24620125.422    24620133.532
       206.000         138.000
  22720644.593    10311591.10749   8030732.93046  22720645.175    22720655.050
       225.000         171.000
 02  2 24 14 59  0.0000000  0  9G31G28G27G11G 7G 2G 8G10G13
  22716296.343     5531415.02749   4342459.12446  22716296.565    22716306.297
       222.000         172.000
  21163182.963    -9152030.72849  -7117089.16547  21163182.404    21163189.373
       242.000         207.000
  20756390.996    -2660590.46849  -2068236.25847  20756390.750    20756398.982
       241.000         209.000
  24371359.635    -9192998.89149  -6973546.61745  24371359.319    24371373.227
       212.000         145.000
  23166303.986   -10030221.39149  -7794177.39846  23166303.692    23166314.468
       218.000         163.000
  23969195.268     8974713.54749   6983288.74745  23969195.441    23969207.888
       218.000         159.000
  20311969.318    -8436542.92449  -6564811.63947  20311968.667    20311976.865
       244.000         210.000
  24628176.517       68160.45149     61124.24145  24628175.359    24628185.509
       206.000         137.000
  22739922.855    10412898.15149   8109673.26546  22739923.419    22739932.766
       225.000         172.000
 02  2 24 14 59 30.0000000  0  9G31G28G27G11G 7G 2G 8G10G13
  22732272.711     5615370.63149   4407878.85546  22732272.775    22732282.824
       223.000         171.000
  21158176.529    -9178339.91649  -7137589.89347  21158175.900    21158182.667
       242.000         207.000
  20758503.669    -2649488.64949  -2059585.57547  20758503.297    20758511.744
       241.000         209.000
  24360587.122    -9249608.61749  -7017658.08045  24360586.607    24360600.969
       210.000         144.000
  23147315.735   -10130005.43149  -7871931.20845  23147315.047    23147325.962
       217.000         162.000
  23981804.851     9040976.41449   7034921.88545  23981803.963    23981817.861
       218.000         158.000
  20306195.253    -8466885.90149  -6588455.58247  20306194.724    20306202.822
       245.000         210.000
  24636291.665      110805.64249     94354.12445  24636289.841    24636299.881
       203.000         136.000
  22759245.284    10514437.26449   8188794.42946  22759245.972    22759254.265
       226.000         172.000
 02  2 24 15  0  0.0000000  0  9G31G28G27G11G 7G 2G 8G10G13
  22748324.512     5699722.49449   4473607.36446  22748324.742    22748334.474
       222.000         170.000
  21153221.980    -9204376.52849  -7157878.22947  21153221.410    21153228.251
       243.000         207.000
  20760676.421    -2638071.13549  -2050688.90047  20760676.253    20760684.575
       241.000         209.000
  24349846.126    -9306052.42149  -7061640.24345  24349846.422    24349858.453
       210.000         142.000
  23128358.985   -10229623.88949  -7949556.00245  23128357.881    23128369.222
       217.000         161.000
  23994411.205     9107222.24549   7086541.72845  23994411.345    23994423.545
       217.000         158.000
  20300469.859    -8496973.36149  -6611900.42047  20300469.377    20300477.608
       244.000         210.000
  24644470.178      153783.70449    127843.36145  24644470.068    24644477.032
       203.000         135.000
  22778611.351    10616205.78249   8268094.36846  22778612.325    22778621.148
       226.000         172.000
 02  2 24 15  0 30.0000000  0  9G31G28G27G11G 7G 2G 8G10G13
  22764451.101     5784467.51249   4539642.22446  22764451.598    22764460.897
       223.000         169.000
  21148319.161    -9230141.45049  -7177954.85447  21148318.724    21148325.483
       243.000         207.000
  20762909.402    -2626337.10049  -2041545.58047  20762909.017    20762917.706
       241.000         209.000
  24339137.106    -9362327.93649  -7105491.27345  24339135.827    24339149.734
       210.000         142.000
  23109434.149   -10329074.44949  -8027049.96845  23109434.352    23109444.761
       216.000         160.000
  24007014.256     9173450.45249   7138147.84645  24007014.290    24007026.396
       217.000         157.000
  20294793.320    -8526804.17049  -6635145.26247  20294792.807    20294800.888
       244.000         210.000
  24652711.601      197092.03449    161589.97345  24652711.273    24652720.539
       204.000         134.000
  22798020.502    10718200.76949   8347570.76546  22798021.218    22798031.221
       226.000         171.000
 02  2 24 15  1  0.0000000  0  9G31G28G27G11G 7G 2G 8G10G13
  22780652.022     5869603.00949   4605981.35746  22780651.993    22780662.287
       223.000         168.000
  21143467.887    -9255635.16949  -7197820.16147  21143467.392    21143474.251
       242.000         207.000
  20765202.847    -2614285.09849  -2032154.49747  20765202.579    20765210.999
       241.000         208.000
  24328460.655    -9418432.28049  -7149208.92545  24328459.498    24328473.541
       210.000         142.000
  23090541.752   -10428354.69449  -8104411.22445  23090540.981    23090551.692
       218.000         161.000
  24019613.871     9239660.64849   7189739.92345  24019613.937    24019626.535
       216.000         155.000
  20289165.893    -8556376.77749  -6658188.91647  20289165.283    20289173.587
       244.000         210.000
  24661015.423      240728.04349    195591.91845  24661015.374    24661024.802
       204.000         134.000
  22817472.368    10820420.12149   8427221.98646  22817472.622    22817481.458
       226.000         170.000
 02  2 24 15  1 30.0000000  0  9G31G28G27G11G 7G 2G 8G10G13
  22796926.682     5955126.28349   4672622.67946  22796926.976    22796937.099
       222.000         168.000
  21138668.077    -9280858.51849  -7217474.78447  21138667.445    21138674.617
       242.000         207.000
  20767557.047    -2601913.98949  -2022514.74547  20767556.730    20767565.327
       241.000         208.000
  24317817.466    -9474362.50149  -7192790.90445  24317817.405    24317830.633
       213.000         145.000
  23071682.178   -10527462.32749  -8181637.98845  23071682.267    23071692.514
       219.000         162.000
  24032210.048     9305852.49849   7241317.71145  24032209.478    24032223.070
       215.000         154.000
  20283587.888    -8585689.67049  -6681030.18347  20283587.165    20283595.367
       245.000         210.000
  24669381.006      284689.28549    229847.28445  24669380.363    24669390.166
       203.000         133.000
  22836966.429    10922861.18249   8507045.97946  22836966.867    22836976.234
       225.000         169.000
 02  2 24 15  2  0.0000000  0  9G31G28G27G11G 7G 2G 8G10G13
  22813274.686     6041034.76449   4739564.14946  22813274.419    22813285.299
       222.000         168.000
  21133919.663    -9305811.95949  -7236919.09147  21133919.212    21133926.056
       242.000         207.000
  20769972.241    -2589222.47349  -2012625.34247  20769971.948    20769980.390
       241.000         208.000
  24307208.156    -9530115.78049  -7236235.01145  24307208.590    24307221.549
       213.000         147.000
  23052855.994   -10626394.69649  -8258728.18146  23052855.930    23052867.072
       220.000         163.000
  24044802.637     9372025.99649   7292881.19345  24044802.859    24044815.031
       215.000         154.000
  20278059.610    -8614741.30249  -6703667.88147  20278059.082    20278067.210
       245.000         210.000
  24677808.023      328973.41349    264354.25245  24677807.290    24677817.432
       201.000         133.000
  22856502.175    11025521.52749   8587040.83946  22856502.722    22856511.739
       226.000         169.000
 02  2 24 15  2 30.0000000  0  9G31G28G27G11G 7G 2G 8G10G13
  22829695.393     6127325.20549   4806803.25546  22829695.641    22829706.086
       223.000         169.000
  21129222.375    -9330496.63649  -7256153.97047  21129221.914    21129228.921
       243.000         207.000
  20772448.546    -2576209.89749  -2002485.76047  20772448.353    20772456.940
       242.000         209.000
  24296633.031    -9585689.72449  -7279539.39545  24296632.931    24296646.684
       213.000         148.000
  23034063.523   -10725150.04049  -8335680.43446  23034062.420    23034073.660
       220.000         164.000
  24057391.605     9438180.29349   7344429.69545  24057390.695    24057406.015
       216.000         153.000
  20272581.197    -8643530.66649  -6726101.20747  20272580.584    20272588.795
       243.000         210.000
  24686296.019      373577.44849    299110.48545  24686294.654    24686303.804
       203.000         133.000
  22876079.087    11128397.96049   8667204.06846  22876078.900    22876088.526
       227.000         168.000
 02  2 24 15  3  0.0000000  0  9G31G28G27G11G 7G 2G 8G10G13
  22846188.214     6213995.13049   4874338.04846  22846188.603    22846198.983
       223.000         170.000
  21124576.140    -9354912.93849  -7275179.72547  21124575.641    21124582.842
       242.000         207.000
  20774986.247    -2562874.80749  -1992094.87247  20774986.186    20774994.071
       241.000         209.000
  24286092.481    -9641081.17149  -7322701.54645  24286092.198    24286106.123
       209.000         148.000
  23015305.298   -10823725.36849  -8412492.41746  23015304.586    23015316.573
       219.000         164.000
  24069976.867     9504315.31549   7395963.18845  24069976.432    24069989.934
       215.000         153.000
  20267153.070    -8672055.80849  -6748328.64747  20267152.422    20267160.727
       243.000         210.000
  24694844.497      418499.11449    334114.22845  24694844.495    24694854.015
       203.000         134.000
  22895696.744    11231488.57249   8747534.20246  22895697.199    22895706.317
       226.000         168.000
 02  2 24 15  3 30.0000000  0  9G31G28G27G11G 7G 2G 8G10G13
  22862752.793     6301041.85849   4942166.44646  22862752.616    22862763.143
       222.000         169.000
  21119980.797    -9379061.80049  -7293997.08247  21119980.182    21119987.444
       243.000         208.000
  20777585.376    -2549216.26849  -1981451.94047  20777585.147    20777593.772
       241.000         208.000
  24275586.956    -9696287.62849  -7365719.55845  24275585.552    24275600.766
       208.000         146.000
  22996581.646   -10922118.86249  -8489162.71346  22996580.389    22996592.775
       221.000         164.000
  24082558.428     9570430.67949   7447481.36545  24082558.662    24082571.867
       214.000         152.000
  20261775.470    -8700315.63049  -6770349.34447  20261774.925    20261783.106
       243.000         210.000
  24703452.905      463735.80049    369363.44645  24703450.877    24703462.066
       206.000         134.000
  22915354.636    11334790.58849   8828029.05446  22915355.759    22915365.332
       226.000         168.000
 02  2 24 15  4  0.0000000  0  9G31G28G27G11G 7G 2G 8G10G13
  22879388.566     6388462.69449   5010286.36946  22879388.429    22879398.688
       221.000         168.000
  21115436.256    -9402943.79049  -7312606.48947  21115435.958    21115442.775
       242.000         208.000
  20780246.386    -2535233.01149  -1970555.98047  20780245.925    20780254.928
       241.000         208.000
  24265117.129    -9751305.98949  -7408591.00345  24265116.469    24265132.220
       211.000         145.000
  22977893.114   -11020327.86049  -8565689.23346  22977892.376    22977903.474
       221.000         163.000
  24095136.216     9636526.09849   7498983.99845  24095136.664    24095149.359
       214.000         153.000
  20256448.674    -8728308.47249  -6792162.00547  20256447.973    20256456.255
       243.000         210.000
  24712120.744      509284.89249    404856.09145  24712121.624    24712129.767
       202.000         135.000
  22935052.258    11438301.34849   8908686.55746  22935052.843    22935062.637
       225.000         168.000
 02  2 24 15  4 30.0000000  0  9G31G28G27G11G 7G 2G 8G10G13
  22896095.002     6476254.75549   5078695.56546  22896094.753    22896104.743
       222.000         167.000
  21110942.393    -9426559.44549  -7331008.36347  21110941.949    21110948.778
       242.000         208.000
  20782969.326    -2520924.03349  -1959406.22047  20782969.060    20782977.719
       241.000         208.000
  24254683.657    -9806133.92749  -7451314.08045  24254683.602    24254697.444
       209.000         145.000
  22959240.118   -11118350.12049  -8642070.24846  22959239.110    22959250.972
       222.000         164.000
  24107710.121     9702601.08249   7550470.70845  24107710.439    24107723.759
       214.000         153.000
  20251172.958    -8756032.81349  -6813765.44147  20251172.435    20251180.413
       243.000         211.000
  24720847.487      555143.84049    440590.17845  24720847.324    24720856.322
       202.000         135.000
  22954789.083    11542018.22749   8989504.67846  22954789.350    22954799.205
       225.000         167.000
 02  2 24 15  5  0.0000000  0  9G31G28G27G11G 7G 2G 8G10G13
  22912871.562     6564414.97949   5147391.65446  22912871.379    22912882.061
       223.000         165.000
  21106499.048    -9449909.62049  -7349203.36847  21106498.665    21106505.582
       242.000         208.000
  20785754.493    -2506288.26049  -1948001.81547  20785754.282    20785762.951
       241.000         208.000
  24244287.115    -9860768.48649  -7493886.47845  24244286.740    24244299.960
       211.000         145.000
  22940623.136   -11216183.41649  -8718304.01946  22940622.927    22940633.972
       223.000         164.000
  24120280.123     9768655.35949   7601941.28045  24120279.298    24120293.412
       213.000         154.000
  20245948.517    -8783487.58749  -6835158.82947  20245948.012    20245956.000
       243.000         211.000
  24729632.733      601310.19549    476563.79845  24729631.332    24729642.090
       203.000         136.000
  22974564.658    11645938.64049   9070481.40946  22974565.639    22974574.672
       223.000         166.000
 02  2 24 15  5 30.0000000  0  9G31G28G27G11G 7G 2G 8G10G13
  22929717.648     6652940.45649   5216372.34646  22929718.037    22929728.206
       223.000         164.000
  21102106.029    -9472995.40149  -7367192.34647  21102105.656    21102112.382
       242.000         208.000
  20788602.045    -2491324.75549  -1936342.03147  20788601.830    20788610.550
       241.000         208.000
  24233927.834    -9915207.01249  -7536306.12545  24233927.771    24233941.014
       210.000         144.000
  22922042.560   -11313825.48149  -8794388.78146  22922042.360    22922053.650
       224.000         165.000
  24132846.021     9834688.52649   7653395.40445  24132845.579    24132859.351
       215.000         154.000
  20240775.691    -8810671.27749  -6856340.98547  20240775.033    20240783.268
       244.000         211.000
  24738475.899      647780.61449    512774.34645  24738475.840    24738484.604
       204.000         137.000
  22994378.450    11750059.91949   9151614.63246  22994378.503    22994388.496
       222.000         165.000
 02  2 24 15  6  0.0000000  0  9G31G28G27G11G 7G 2G 8G10G13
  22946632.740     6741828.72449   5285635.74446  22946632.747    22946642.422
       223.000         163.000
  21097763.258    -9495817.19649  -7384975.62547  21097762.773    21097769.730
       243.000         208.000
  20791512.235    -2476032.23149  -1924425.87447  20791512.036    20791520.455
       241.000         208.000
  24223606.395    -9969446.54749  -7578570.71845  24223606.036    24223619.456
       209.000         143.000
  22903498.789   -11411273.86549  -8870322.60446  22903497.978    22903509.195
       223.000         166.000
  24145407.942     9900700.37049   7704832.89845  24145408.412    24145421.078
       216.000         155.000
  20235654.795    -8837582.21649  -6877310.60847  20235654.308    20235662.583
       244.000         211.000
  24747376.554      694553.02849    549220.22745  24747377.127    24747386.246
       203.000         137.000
  23014229.935    11854379.64049   9232902.48946  23014229.950    23014241.845
       221.000         163.000
 02  2 24 15  6 30.0000000  0  9G31G28G27G11G 7G 2G 8G10G13
  22963616.199     6831076.75149   5355179.47446  22963616.049    22963626.712
       221.000         163.000
  21093470.573    -9518375.78049  -7402553.80047  21093470.164    21093477.047
       243.000         208.000
  20794485.249    -2460409.63249  -1912252.51347  20794485.048    20794493.429
       242.000         208.000
  24213323.175   -10023484.39649  -7620678.13445  24213322.765    24213335.320
       206.000         140.000
  22884992.284   -11508526.31749  -8946103.76346  22884991.760    22885002.764
       223.000         166.000
  24157965.683     9966690.60549   7756253.56345  24157965.009    24157978.704
       215.000         155.000
  20230586.023    -8864219.04349  -6898066.63547  20230585.387    20230593.605
       244.000         211.000
  24756334.222      741624.77749    585899.34845  24756332.648    24756343.329
       202.000         138.000
  23034118.715    11958894.96649   9314342.75746  23034118.572    23034129.438
       220.000         163.000
 02  2 24 15  7  0.0000000  0  9G31G28G27G11G 7G 2G 8G10G13
  22980667.604     6920682.01749   5425001.54446  22980666.925    22980678.063
       219.000         163.000
  21089227.875    -9540671.69449  -7419927.30147  21089227.382    21089234.556
       242.000         208.000
  20797521.270    -2444455.67949  -1899820.95647  20797520.836    20797529.757
       241.000         208.000
  24203078.838   -10077317.54149  -7662626.02945  24203077.058    24203093.122
       206.000         139.000
  22866523.537   -11605580.22549  -9021730.19346  22866522.596    22866534.275
       223.000         167.000
  24170519.348    10032659.36249   7807657.49145  24170519.538    24170532.614
       214.000         155.000
  20225569.723    -8890580.01449  -6918607.71347  20225569.140    20225577.566
       244.000         211.000
  24765348.324      788993.65049    622809.99545  24765347.437    24765357.943
       202.000         137.000
  23054044.329    12063603.79549   9395933.81146  23054045.207    23054055.630
       222.000         163.000
 02  2 24 15  7 30.0000000  0  9G31G28G27G11G 7G 2G 8G10G13
  22997786.381     7010641.49749   5495099.61146  22997785.794    22997797.865
       217.000         163.000
  21085034.960    -9562705.76749  -7437096.77047  21085034.424    21085041.687
       242.000         208.000
  20800620.476    -2428169.48649  -1887130.50747  20800620.120    20800628.968
       241.000         208.000
  24192873.987   -10130943.48349  -7704412.46145  24192874.492    24192888.700
       207.000         140.000
  22848092.951   -11702433.41849  -9097200.22646  22848092.525    22848103.537
       223.000         167.000
  24183068.796    10098606.12749   7859044.25945  24183068.130    24183082.312
       214.000         155.000
  20220606.206    -8916663.87749  -6938932.85947  20220605.746    20220613.834
       244.000         212.000
  24774418.352      836656.70249    659949.85945  24774417.658    24774427.099
       202.000         137.000
  23074006.185    12168503.21549   9477673.38146  23074007.187    23074016.863
       221.000         164.000
 02  2 24 15  8  0.0000000  0  9G31G28G27G11G 7G 2G 8G10G13
  23014972.172     7100952.75249   5565471.77646  23014971.847    23014983.696
       218.000         164.000
  21080891.772    -9584478.62549  -7454062.69547  21080891.233    21080898.247
       242.000         208.000
  20803783.154    -2411549.88649  -1874180.26447  20803782.811    20803791.627
       241.000         208.000
  24182709.331   -10184359.43949  -7746035.28545  24182709.788    24182722.997
       210.000         142.000
  22829701.054   -11799083.57549  -9172512.05046  22829700.617    22829711.629
       222.000         168.000
  24195613.961    10164530.57149   7910413.65245  24195613.605    24195627.668
       214.000         155.000
  20215695.684    -8942469.11149  -6959040.89347  20215695.056    20215703.342
       244.000         212.000
  24783543.918      884611.27949    697316.91345  24783542.800    24783552.188
       201.000         136.000
  23094003.845    12273590.66749   9559559.45746  23094004.304    23094015.165
       221.000         164.000
 02  2 24 15  8 30.0000000  0  9G31G28G27G11G 7G 2G 8G10G13
  23032224.260     7191612.36249   5636115.37846  23032224.303    23032235.313
       219.000         165.000
  21076798.051    -9605991.56149  -7470826.08247  21076797.567    21076804.507
       243.000         208.000
  20807009.396    -2394596.32049  -1860969.78447  20807008.997    20807017.981
       241.000         208.000
  24172585.196   -10237563.16649  -7787492.75345  24172585.257    24172598.935
       212.000         143.000
  22811348.103   -11895528.90149  -9247664.26346  22811347.173    22811358.428
       223.000         169.000
  24208154.777    10230432.07349   7961765.16845  24208154.673    24208169.489
       213.000         155.000
  20210838.368    -8967994.61249  -6978930.95847  20210837.788    20210846.033
       244.000         212.000
  24792724.390      932854.23549    734908.64645  24792723.465    24792732.919
       200.000         136.000
  23114036.702    12378863.16249   9641589.72646  23114037.605    23114048.133
       223.000         165.000
 02  2 24 15  9  0.0000000  0  9G31G28G27G11G 7G 2G 8G10G13
  23049542.162     7282617.42149   5707028.17646  23049542.324    23049553.405
       219.000         165.000
  21072753.611    -9627245.44249  -7487387.60847  21072753.037    21072760.424
       242.000         208.000
  20810299.412    -2377307.61649  -1847498.15547  20810299.190    20810307.842
       241.000         208.000
  24162502.012   -10290551.74049  -7828782.58645  24162502.068    24162514.406
       214.000         145.000
  22793034.575   -11991766.93149  -9322654.93746  22793033.811    22793046.140
       224.000         170.000
  24220691.172    10296310.34849   8013098.58045  24220691.214    24220706.074
       215.000         154.000
  20206034.553    -8993239.04749  -6998602.01047  20206033.884    20206042.363
       244.000         212.000
  24801959.245      981383.15049    772723.22545  24801958.272    24801968.062
       204.000         135.000
  23134104.328    12484318.14449   9723762.20846  23134104.962    23134114.519
       223.000         165.000
 02  2 24 15  9 30.0000000  0  9G31G28G27G11G 7G 2G 8G10G13
  23066925.273     7373965.21949   5778208.04546  23066924.710    23066937.206
       219.000         165.000
  21068758.367    -9648240.81349  -7503747.70147  21068757.822    21068765.085
       242.000         208.000
  20813653.380    -2359682.72049  -1833764.56347  20813653.208    20813661.981
       241.000         208.000
  24152460.302   -10343322.25349  -7869902.50445  24152460.130    24152473.359
       213.000         145.000
  22774760.981   -12087795.38949  -9397482.32546  22774760.441    22774772.084
       224.000         171.000
  24233223.278    10362165.52649   8064413.98345  24233222.929    24233237.789
       214.000         154.000
  20201284.569    -9018200.60349  -7018052.63847  20201284.062    20201292.339
       244.000         212.000
  24811248.099     1030195.25149    810758.46445  24811248.060    24811258.227
       203.000         137.000
  23154206.242    12589953.20849   9806074.99346  23154206.946    23154217.430
       223.000         165.000
 02  2 24 15 10  0.0000000  0  9G31G28G27G11G 7G 2G 8G10G13
  23084373.041     7465652.87149   5849652.73646  23084372.991    23084383.316
       218.000         163.000
  21064812.171    -9668978.42249  -7519906.93547  21064811.774    21064818.973
       242.000         208.000
  20817071.470    -2341720.71149  -1819768.28347  20817070.962    20817080.002
       240.000         207.000
  24142460.316   -10395872.31949  -7910850.61645  24142459.503    24142475.473
       210.000         144.000
  22756527.703   -12183612.05649  -9472144.66346  22756527.214    22756538.501
       225.000         173.000
  24245750.879    10427997.05849   8115710.98245  24245751.436    24245765.089
       213.000         153.000
  20196588.651    -9042878.04649  -7037281.87847  20196588.113    20196596.273
       244.000         211.000
  24820590.142     1079287.88749    849012.28345  24820589.174    24820601.964
       204.000         137.000
  23174341.795    12695765.28849   9888525.73446  23174342.926    23174352.331
       223.000         164.000
 02  2 24 15 10 30.0000000  0  8G31G28G27G11G 7G 2G 8G13
  23101885.157     7557678.92149   5921361.11045  23101884.258    23101896.189
       217.000         161.000
  21060915.148    -9689457.67249  -7535864.85447  21060914.532    21060922.042
       242.000         208.000
  20820554.159    -2323419.14549  -1805507.41647  20820553.831    20820562.685
       241.000         207.000
  24132502.874   -10448197.92149  -7951623.81445  24132501.687    24132516.346
       209.000         143.000
  22738335.459   -12279213.22649  -9546639.09446  22738334.189    22738345.966
       224.000         174.000
  24258274.248    10493806.19049   8166990.51145  24258273.856    24258288.363
       213.000         153.000
  20191947.309    -9067268.66149  -7056287.61847  20191946.786    20191955.045
       243.000         211.000
  23194510.925    12801753.58649   9971113.76746  23194511.644    23194522.694
       223.000         164.000
 02  2 24 15 11  0.0000000  0  8G31G28G27G11G 7G 2G 8G13
  23119462.174     7650045.91849   5993335.15545  23119462.079    23119473.590
       216.000         159.000
  21057068.177    -9709673.88449  -7551617.80647  21057067.745    21057074.917
       243.000         209.000
  20824102.740    -2304771.62449  -1790976.96747  20824102.474    20824111.326
       241.000         207.000
  24122589.889   -10500290.73349  -7992215.63045  24122590.098    24122603.851
       212.000         143.000
  22720185.723   -12374591.15749  -9620959.56446  22720185.473    22720196.770
       224.000         175.000
  24270794.312    10559598.09449   8218256.62245  24270793.819    24270809.361
       212.000         153.000
  20187361.945    -9091365.25549  -7075064.24347  20187361.191    20187369.597
       244.000         211.000
  23214714.079    12907920.80149  10053841.22145  23214713.998    23214725.410
       223.000         162.000
 02  2 24 15 11 30.0000000  0  8G31G28G27G11G 7G 2G 8G13
  23137101.553     7742740.60549   6065564.52045  23137101.238    23137112.988
       216.000         159.000
  21053269.212    -9729638.10649  -7567174.39847  21053268.685    21053275.799
       243.000         209.000
  20827715.371    -2285787.36749  -1776184.13147  20827714.823    20827723.939
       240.000         207.000
  24112720.020   -10552158.09849  -8032631.76545  24112720.541    24112734.354
       213.000         146.000
  22702076.891   -12469753.92149  -9695112.37346  22702076.030    22702087.303
       223.000         175.000
  24283308.991    10625362.03249   8269500.94445  24283308.895    24283323.341
       213.000         152.000
  20182830.832    -9115176.85149  -7093618.79947  20182830.097    20182838.447
       244.000         212.000
  23234948.778    13014253.94449  10136697.97345  23234949.329    23234959.849
       221.000         161.000
 02  2 24 15 12  0.0000000  0  8G31G28G27G11G 7G 2G 8G13
  23154803.068     7835761.76849   6138048.29645  23154803.053    23154814.535
       219.000         161.000
  21049518.264    -9749349.68249  -7582534.11847  21049517.622    21049524.848
       243.000         209.000
  20831392.561    -2266463.97449  -1761127.02947  20831392.197    20831401.188
       240.000         207.000
  24102893.874   -10603795.90149  -8072869.01945  24102893.464    24102908.310
       213.000         148.000
  22684009.700   -12564697.75849  -9769094.58446  22684009.007    22684019.861
       222.000         174.000
  24295818.540    10691099.45549   8320724.60745  24295818.155    24295833.013
       212.000         151.000
  20178354.501    -9138700.40949  -7111948.90447  20178353.836    20178362.391
       244.000         212.000
  23255214.856    13120751.88249  10219683.12545  23255215.689    23255226.753
       221.000         160.000
 02  2 24 15 12 30.0000000  0  8G31G28G27G11G 7G 2G 8G13
  23172566.471     7929107.92949   6210785.31446  23172566.386    23172578.422
       220.000         164.000
  21045815.538    -9768807.87649  -7597696.40047  21045814.975    21045822.154
       243.000         209.000
  20835134.753    -2246799.06449  -1745803.81947  20835134.507    20835143.346
       240.000         207.000
  24093111.928   -10655200.29049  -8112924.37745  24093111.026    24093124.660
       211.000         147.000
  22665984.817   -12659419.05449  -9842903.38346  22665983.986    22665994.715
       221.000         173.000
  24308323.279    10756811.55149   8371928.52945  24308323.008    24308337.556
       212.000         151.000
  20173933.532    -9161933.11649  -7130052.37947  20173933.067    20173941.353
       244.000         212.000
  23275512.022    13227413.38749  10302795.73945  23275512.838    23275523.885
       219.000         159.000
 02  2 24 15 13  0.0000000  0  8G31G28G27G11G 7G 2G 8G13
  23190391.249     8022776.47649   6283773.53746  23190390.906    23190403.932
       222.000         167.000
  21042160.872    -9788013.37049  -7612661.77147  21042160.385    21042167.521
       243.000         209.000
  20838942.160    -2226791.43349  -1730213.54147  20838941.781    20838950.825
       240.000         207.000
  24083374.855   -10706368.39149  -8152795.61845  24083373.857    24083388.012
       212.000         147.000
  22648002.768   -12753915.27949  -9916536.78646  22648001.925    22648013.324
       221.000         173.000
  24320823.212    10822498.37149   8423112.74645  24320823.304    24320838.070
       214.000         151.000
  20169568.209    -9184873.23549  -7147927.86147  20169567.609    20169575.959
       244.000         212.000
  23295839.897    13334236.10349  10386033.96545  23295841.285    23295851.287
       220.000         158.000
 02  2 24 15 13 30.0000000  0  8G31G28G27G11G 7G 2G 8G13
  23208276.820     8116764.64149   6357010.81046  23208276.914    23208289.556
       222.000         168.000
  21038554.238    -9806966.68549  -7627430.64147  21038553.912    21038560.597
       243.000         209.000
  20842814.994    -2206439.85349  -1714355.25947  20842814.560    20842823.563
       240.000         207.000
  24073683.345   -10757297.01749  -8192480.26845  24073682.466    24073696.669
       212.000         145.000
  22630063.957   -12848184.06749  -9989992.96746  22630063.693    22630073.916
       222.000         173.000
  24333318.450    10888159.85049   8474277.22345  24333318.114    24333333.383
       213.000         151.000
  20165258.891    -9207519.14949  -7165574.08947  20165258.272    20165266.735
       244.000         212.000
  23316197.928    13441217.35749  10469395.71645  23316198.781    23316209.590
       219.000         158.000
 02  2 24 15 14  0.0000000  0  8G31G28G27G11G 7G 2G 8G13
  23226222.678     8211069.65649   6430494.97446  23226222.101    23226234.461
       221.000         168.000
  21034995.464    -9825668.48549  -7642003.52347  21034995.016    21035002.096
       243.000         209.000
  20846753.520    -2185743.18149  -1698228.07347  20846753.113    20846762.300
       240.000         206.000
  24064038.037   -10807983.45249  -8231976.19345  24064037.693    24064050.338
       213.000         144.000
  22612168.911   -12942222.97949 -10063270.01646  22612168.392    22612178.909
       223.000         174.000
  24345808.900    10953795.99649   8525421.96445  24345809.177    24345824.605
       213.000         151.000
  20161005.831    -9229869.33149  -7182989.87647  20161005.237    20161013.565
       244.000         212.000
  23336585.721    13548355.04649  10552879.36345  23336585.958    23336597.235
       218.000         157.000
 02  2 24 15 14 30.0000000  0  8G31G28G27G11G 7G 2G 8G13
  23244228.205     8305688.42749   6504223.63346  23244227.816    23244241.052
       219.000         165.000
  21031484.310    -9844119.87049  -7656381.27947  21031483.847    21031490.969
       243.000         209.000
  20850757.762    -2164701.02049  -1681831.67647  20850757.501    20850766.651
       240.000         206.000
  24054439.294   -10858425.58349  -8271281.75445  24054439.268    24054452.264
       213.000         143.000
  22594318.059   -13036030.16749 -10136366.50646  22594317.939    22594328.483
       225.000         175.000
  24358294.410    11019406.31949   8576546.58245  24358294.634    24358309.401
       214.000         151.000
  20156809.303    -9251922.50049  -7200174.22247  20156808.502    20156817.354
       244.000         212.000
  23357002.715    13655645.99749  10636482.42445  23357002.813    23357014.613
       217.000         157.000
 02  2 24 15 15  0.0000000  0  8G31G28G27G11G 7G 2G 8G13
  23262293.067     8400618.95049   6578195.20445  23262293.369    23262305.197
       217.000         162.000
  21028020.766    -9862321.10649  -7670564.10847  21028020.135    21028027.605
       243.000         209.000
  20854828.099    -2143311.76949  -1665164.81647  20854827.693    20854836.819
       241.000         207.000
  24044887.767   -10908619.97049  -8310394.27045  24044887.851    24044900.011
       216.000         143.000
  22576511.803   -13129602.74749 -10209280.18946  22576511.077    22576523.028
       224.000         175.000
  24370775.072    11084991.24949   8627651.41545  24370775.473    24370790.163
       213.000         151.000
  20152669.668    -9273676.79349  -7217125.68147  20152669.177    20152677.630
       244.000         212.000
  23377448.386    13763088.00849  10720203.21445  23377448.659    23377459.996
       216.000         157.000
 02  2 24 15 15 30.0000000  0  8G31G28G27G11G 7G 2G 8G13
  23280416.577     8495857.92149   6652407.12145  23280415.883    23280427.785
       216.000         158.000
  21024604.634    -9880273.27649  -7684552.86147  21024604.089    21024611.347
       243.000         209.000
  20858964.595    -2121574.76949  -1648226.98247  20858964.529    20858973.464
       241.000         207.000
  24035383.808   -10958564.18649  -8349311.85145  24035384.819    24035396.330
       216.000         145.000
  22558750.522   -13222938.98749 -10282009.70846  22558749.932    22558760.963
       225.000         174.000
  24383250.799    11150550.04749   8678735.87545  24383250.737    24383266.717
       213.000         151.000
  20148587.108    -9295130.89249  -7233843.21947  20148586.454    20148594.804
       244.000         212.000
  23397922.352    13870678.35349  10804039.56745  23397923.255    23397934.507
       218.000         157.000
 02  2 24 15 16  0.0000000  0  8G31G28G27G11G 7G 2G 8G13
  23298598.294     8591402.73949   6726857.36645  23298598.956    23298610.530
       215.000         155.000
  21021235.818    -9897976.75849  -7698347.83647  21021235.262    21021242.669
       243.000         209.000
  20863167.494    -2099488.82549  -1631017.24447  20863167.020    20863176.425
       241.000         207.000
  24025927.922   -11008255.35249  -8388032.22345  24025927.716    24025941.365
       213.000         147.000
  22541034.650   -13316036.32249 -10354553.06246  22541033.877    22541044.943
       225.000         173.000
  24395721.615    11216083.00349   8729800.19045  24395720.844    24395736.997
       212.000         151.000
  20144562.040    -9316283.13449  -7250325.54647  20144561.440    20144569.828
       244.000         212.000
  23418424.119    13978414.79849  10887989.77345  23418424.922    23418436.715
       219.000         158.000
 02  2 24 15 16 30.0000000  0  8G31G28G27G11G 7G 2G 8G13
  23316837.643     8687250.14449   6801543.39945  23316837.819    23316849.658
       216.000         154.000
  21017914.128    -9915432.67449  -7711949.90547  21017913.741    21017920.662
       243.000         209.000
  20867436.893    -2077053.25949  -1613535.07147  20867436.814    20867445.675
       241.000         207.000
  24016520.644   -11057691.07449  -8426553.53345  24016521.158    24016534.421
       214.000         150.000
  22523364.681   -13408892.55149 -10426908.55046  22523363.510    22523375.089
       227.000         174.000
  24408187.367    11281589.81649   8780844.15145  24408187.054    24408203.493
       212.000         150.000
  20140594.648    -9337132.20149  -7266571.63447  20140594.047    20140602.433
       244.000         212.000
  23438953.187    14086294.19449  10972051.37145  23438953.840    23438966.044
       220.000         158.000
 02  2 24 15 17  0.0000000  0  8G31G28G27G11G 7G 2G 8G13
  23335134.090     8783397.42749   6876463.11345  23335134.782    23335146.130
       217.000         154.000
  21014639.413    -9932641.77149  -7725359.64747  21014638.898    21014646.149
       243.000         209.000
  20871773.065    -2054267.03249  -1595779.65247  20871772.682    20871781.908
       241.000         207.000
  24007162.436   -11106868.69649  -8464873.72545  24007162.387    24007176.225
       213.000         151.000
  22505740.988   -13501505.59949 -10499074.54946  22505740.300    22505751.547
       227.000         175.000
  24420648.173    11347070.50049   8831867.73345  24420647.777    24420662.842
       212.000         149.000
  20136685.181    -9357676.69149  -7282580.38847  20136684.693    20136693.097
       244.000         212.000
  23459508.927    14194314.16049  11056222.50045  23459509.410    23459520.735
       220.000         159.000
 02  2 24 15 17 30.0000000  0  8G31G28G27G11G 7G 2G 8G13
  23353487.074     8879841.52149   6951614.09545  23353486.608    23353499.469
       219.000         154.000
  21011411.448    -9949604.96749  -7738577.77447  21011410.853    21011418.029
       243.000         209.000
  20876176.089    -2031129.44249  -1577750.44647  20876175.824    20876184.897
       241.000         207.000
  23997853.870   -11155785.85049  -8502990.94345  23997854.071    23997867.840
       213.000         152.000
  22488163.997   -13593873.41749 -10571049.46446  22488163.708    22488174.335
       228.000         176.000
  24433103.910    11412524.74349   8882870.71845  24433103.255    24433119.936
       211.000         149.000
  20132833.969    -9377915.27249  -7298350.76747  20132833.260    20132842.002
       243.000         212.000
  23480090.863    14302471.65749  11140500.79345  23480090.971    23480103.322
       221.000         159.000
 02  2 24 15 18  0.0000000  0  8G31G28G27G11G 7G 2G 8G13
  23371896.052     8976579.93649   7026994.42845  23371896.023    23371907.241
       219.000         155.000
  21008230.179    -9966322.83349  -7751604.73947  21008229.635    21008236.867
       244.000         209.000
  20880646.195    -2007639.38249  -1559446.58647  20880645.940    20880655.044
       241.000         207.000
  23988595.397   -11204439.30449  -8540902.69745  23988593.512    23988608.230
       210.000         150.000
  22470634.150   -13685993.59749 -10642831.41646  22470633.344    22470644.437
       229.000         177.000
  24445554.515    11477952.45549   8933853.01445  24445554.745    24445569.758
       212.000         148.000
  20129041.241    -9397846.21249  -7313881.42547  20129040.615    20129049.317
       243.000         212.000
  23500698.556    14410764.67249  11224884.69845  23500698.945    23500710.895
       221.000         158.000
 02  2 24 15 18 30.0000000  0  8G31G28G27G11G 7G 2G 8G13
  23390360.418     9073609.69249   7102601.76445  23390360.480    23390371.853
       217.000         155.000
  21005095.433    -9982796.26549  -7764441.23647  21005095.035    21005102.227
       243.000         209.000
  20885183.498    -1983796.03549  -1540867.43947  20885183.119    20885192.437
       241.000         207.000
  23979387.407   -11252826.58249  -8578607.02845  23979385.207    23979400.860
       208.000         147.000
  22453151.836   -13777863.85549 -10714418.62246  22453151.727    22453161.699
       228.000         178.000
  24458000.143    11543353.60749   8984814.63445  24457999.789    24458015.251
       211.000         147.000
  20125307.380    -9417467.94749  -7329171.14547  20125306.700    20125315.351
       243.000         212.000
  23521331.476    14519190.29349  11309371.91045  23521331.501    23521343.590
       219.000         157.000
 02  2 24 15 19  0.0000000  0  8G31G28G27G11G 7G 2G 8G13
  23408879.685     9170928.05049   7178433.97845  23408879.920    23408893.030
       217.000         155.000
  21002007.125    -9999025.82349  -7777087.70947  21002006.723    21002013.928
       243.000         209.000
  20889788.196    -1959598.42849  -1522012.24347  20889787.841    20889797.209
       241.000         207.000
  23970230.414   -11300945.00949  -8616101.85145  23970229.395    23970243.692
       210.000         144.000
  22435717.433   -13869482.12549 -10785809.46946  22435716.607    22435727.649
       228.000         179.000
  24470440.639    11608727.98249   9035755.37645  24470440.247    24470457.112
       210.000         147.000
  20121632.604    -9436779.24349  -7344218.96847  20121632.024    20121640.624
       244.000         212.000
  23541989.146    14627745.99049  11393960.47545  23541988.850    23542002.080
       218.000         156.000
 02  2 24 15 19 30.0000000  0  8G31G28G27G11G 7G 2G 8G13
  23427453.229     9268531.93649   7254488.68345  23427452.872    23427466.331
       213.000         154.000
  20998965.020   -10015012.41149  -7789544.84747  20998964.399    20998971.801
       243.000         210.000
  20894460.537    -1935045.66249  -1502880.30047  20894459.986    20894469.434
       241.000         207.000
  23961125.213   -11348792.00049  -8653385.17145  23961124.669    23961138.848
       212.000         143.000
  22418331.395   -13960846.15649 -10857002.21146  22418331.012    22418342.013
       228.000         179.000
  24482876.120    11674075.61449   9086675.28445  24482875.668    24482891.050
       211.000         147.000
  20118017.224    -9455778.38049  -7359023.55147  20118016.557    20118025.286
       243.000         212.000
  23562671.023    14736429.06049  11478648.29545  23562672.821    23562682.935
       217.000         154.000
 02  2 24 15 20  0.0000000  0  8G31G28G27G11G 7G 2G 8G13
  23446080.515     9366418.58649   7330763.70245  23446080.176    23446093.276
       212.000         153.000
  20995968.980   -10030756.99049  -7801813.40747  20995968.394    20995975.741
       243.000         210.000
  20899200.560    -1910136.94249  -1483470.99147  20899200.275    20899209.458
       241.000         207.000
  23952072.548   -11396365.03549  -8690455.06645  23952072.555    23952084.066
       215.000         146.000
  22400994.173   -14051953.76749 -10927995.14246  22400993.325    22401004.821
       228.000         178.000
  24495306.554    11739396.36149   9137574.23445  24495306.023    24495320.788
       210.000         146.000
  20114461.515    -9474464.05049  -7373583.87747  20114460.898    20114469.487
       244.000         212.000
  23583376.649    14845236.85049  11563433.29645  23583377.328    23583389.714
       217.000         152.000
 02  2 24 15 20 30.0000000  0  8G31G28G27G11G 7G 2G 8G13
  23464761.054     9464585.09649   7407256.80145  23464760.574    23464773.685
       212.000         152.000
  20993018.845   -10046260.28749  -7813893.94947  20993018.346    20993025.787
       243.000         210.000
  20904008.499    -1884871.53249  -1463783.74647  20904008.226    20904017.524
       241.000         206.000
  23943072.587   -11443661.61749  -8727309.54445  23943073.055    23943085.261
       217.000         149.000
  22383706.099   -14142803.03049 -10998786.75946  22383706.003    22383716.851
       226.000         177.000
  24507731.775    11804689.89349   9188452.00345  24507730.801    24507748.045
       212.000         147.000
  20110965.735    -9492834.90049  -7387898.88047  20110965.109    20110973.613
       244.000         212.000
  23604105.513    14954166.69149  11648313.40545  23604106.117    23604118.983
       217.000         152.000
 02  2 24 15 21  0.0000000  0  8G31G28G27G11G 7G 2G 8G13
  23483494.377     9563028.45549   7483965.61845  23483495.265    23483506.635
       215.000         153.000
  20990114.444   -10061523.20349  -7825787.18547  20990113.837    20990121.388
       243.000         210.000
  20908884.392    -1859248.82549  -1443818.09047  20908883.811    20908893.163
       241.000         206.000
  23934125.659   -11490679.30449  -8763946.68345  23934126.079    23934138.302
       215.000         151.000
  22366467.547   -14233392.00049 -11069375.55046  22366467.217    22366478.231
       226.000         177.000
  24520151.819    11869955.98749   9239308.38245  24520151.322    24520166.807
       211.000         147.000
  20107530.072    -9510889.75349  -7401967.65347  20107529.427    20107537.965
       244.000         212.000
  23624857.132    15063215.77649  11733286.43945  23624857.781    23624869.309
       218.000         151.000
 02  2 24 15 21 30.0000000  0  8G31G28G27G11G 7G 2G 8G13
  23502279.858     9661745.73049   7560887.88545  23502280.110    23502292.751
       216.000         153.000
  20987255.587   -10076546.79449  -7837493.93747  20987254.866    20987262.481
       243.000         210.000
  20913828.462    -1833267.78349  -1423573.21947  20913828.138    20913837.662
       240.000         206.000
  23925232.176   -11537415.40449  -8800364.39745  23925231.387    23925245.376
       213.000         151.000
  22349278.977   -14323718.30449 -11139759.67946  22349277.837    22349289.185
       226.000         176.000
  24532566.532    11935194.55349   9290143.30845  24532566.118    24532583.288
       210.000         147.000
  20104154.861    -9528627.01949  -7415788.95747  20104154.394    20104163.005
       244.000         212.000
  23645630.895    15172381.66749  11818350.47845  23645630.551    23645643.547
       218.000         151.000
 02  2 24 15 22  0.0000000  0  8G31G28G27G11G 7G 2G 8G13
  23521116.997     9760734.39849   7638021.63445  23521117.449    23521130.992
       217.000         154.000
  20984442.195   -10091331.50249  -7849014.53947  20984441.553    20984448.988
       243.000         210.000
  20918840.895    -1806927.58149  -1403048.47947  20918840.728    20918850.067
       240.000         206.000
  23916392.459   -11583867.32049  -8836560.64545  23916390.597    23916405.539
       211.000         150.000
  22332140.870   -14413779.75449 -11209937.41546  22332140.771    22332151.568
       227.000         177.000
  24544976.054    12000405.83549   9340956.97745  24544975.427    24544991.057
       208.000         146.000
  20100840.343    -9546045.15149  -7429361.58347  20100839.798    20100848.362
       244.000         212.000
  23666426.395    15281661.51749  11903503.32945  23666426.854    23666440.145
       218.000         150.000
 02  2 24 15 22 30.0000000  0  9G31G28G27G11G 7G26G 2G 8G13
  23540004.451     9859987.39649   7715361.34445  23540004.374    23540017.938
       217.000         155.000
  20981673.339   -10105882.17649  -7860352.77447  20981672.850    20981680.351
       243.000         209.000
  20923921.099    -1780231.54349  -1382246.45947  20923920.951    20923930.052
       241.000         206.000
  23907606.438   -11630036.59349  -8872536.66045  23907605.749    23907620.290
       211.000         150.000
  22315052.793   -14503578.37149 -11279910.34546  22315052.421    22315063.139
       227.000         178.000
  24588062.720    -5111272.50649  -3958726.39445  24588063.188    24588072.057
       209.000         144.000
  24557379.491    12065585.43849   9391745.94945  24557378.561    24557395.063
       209.000         146.000
  20097586.101    -9563146.65349  -7442687.48047  20097585.581    20097593.996
       244.000         212.000
  23687242.398    15391048.59149  11988739.72445  23687243.273    23687254.575
       216.000         150.000
 02  2 24 15 23  0.0000000  0  9G31G28G27G11G 7G26G 2G 8G13
  23558942.665     9959507.31249   7792909.05145  23558941.904    23558955.557
       216.000         155.000
  20978949.881   -10120194.21649  -7871505.06147  20978949.296    20978956.674
       243.000         209.000
  20929070.222    -1753173.24149  -1361162.16647  20929070.156    20929079.109
       241.000         206.000
  23898875.918   -11675914.85449  -8908285.93045  23898875.283    23898889.488
       214.000         149.000
  22298016.186   -14593106.53049 -11349672.53246  22298015.455    22298026.978
       228.000         178.000
  24571121.950    -5200297.53949  -4028096.72545  24571121.766    24571131.963
       208.000         145.000
  24569777.982    12130738.89749   9442514.55245  24569777.527    24569794.165
       209.000         146.000
  20094393.362    -9579924.75649  -7455761.38048  20094392.731    20094401.446
       244.000         213.000
  23708079.380    15500546.14149  12074062.18245  23708079.508    23708091.111
       215.000         150.000
 02  2 24 15 23 30.0000000  0  9G31G28G27G11G 7G26G 2G 8G13
  23577931.101    10059291.15149   7870662.40845  23577931.478    23577944.718
       215.000         154.000
  20976271.715   -10134268.39849  -7882471.99947  20976271.190    20976278.458
       243.000         209.000
  20934288.415    -1725751.95149  -1339795.02147  20934288.284    20934297.369
       240.000         206.000
  23890201.542   -11721499.74349  -8943806.60845  23890201.598    23890214.319
       213.000         148.000
  22281031.419   -14682361.98649 -11419222.21446  22281030.264    22281041.459
       229.000         179.000
  24554234.284    -5289043.39649  -4097249.51045  24554234.427    24554244.206
       207.000         144.000
  24582171.558    12195866.18749   9493262.75845  24582171.517    24582187.237
       212.000         145.000
  20091262.503    -9596377.85549  -7468582.02448  20091261.909    20091270.507
       244.000         213.000
  23728936.742    15610151.26549  12159468.47845  23728938.168    23728949.460
       215.000         150.000
 02  2 24 15 24  0.0000000  0  9G31G28G27G11G 7G26G 2G 8G13
  23596969.010    10159335.16449   7948618.47745  23596969.228    23596982.498
       214.000         154.000
  20973638.398   -10148106.67949  -7893255.12447  20973637.903    20973645.166
       243.000         209.000
  20939575.536    -1697968.09749  -1318145.36347  20939575.214    20939584.447
       240.000         205.000
  23881583.252   -11766789.83249  -8979097.56645  23881582.894    23881595.048
       214.000         148.000
  22264098.729   -14771343.74149 -11488558.63346  22264098.375    22264108.804
       229.000         179.000
  24537400.040    -5377508.61249  -4166183.60545  24537399.582    24537410.474
       205.000         143.000
  24594560.067    12260966.20049   9543989.72445  24594560.140    24594575.854
       209.000         145.000
  20088193.540    -9612505.63249  -7481149.16747  20088192.813    20088201.437
       244.000         212.000
  23749813.910    15719860.46449  12244955.84545  23749814.036    23749827.704
       214.000         150.000
 02  2 24 15 24 30.0000000  0  9G31G28G27G11G 7G26G 2G 8G13
  23616055.868    10259636.32849   8026774.92845  23616056.234    23616069.996
       213.000         153.000
  20971049.881   -10161709.74549  -7903854.96547  20971049.465    20971056.567
       243.000         209.000
  20944931.853    -1669820.71149  -1296212.43447  20944931.456    20944940.850
       240.000         204.000
  23873021.400   -11811782.57549  -9014156.81245  23873020.612    23873034.687
       214.000         149.000
  22247218.512   -14860049.78449 -11557680.21246  22247217.392    22247228.703
       230.000         179.000
  24520619.534    -5465690.66649  -4234897.04645  24520618.849    24520629.173
       204.000         143.000
  24606943.242    12326038.75649   9594695.27645  24606943.218    24606960.123
       211.000         145.000
  20085186.720    -9628306.68149  -7493461.72347  20085186.045    20085194.736
       244.000         212.000
  23770710.336    15829670.95949  12330522.15945  23770710.739    23770723.261
       215.000         151.000
 02  2 24 15 25  0.0000000  0  9G31G28G27G11G 7G26G 2G 8G13
  23635191.188    10360191.82749   8105129.54345  23635191.268    23635205.095
       212.000         153.000
  20968505.946   -10175078.58749  -7914272.29847  20968505.486    20968512.844
       243.000         209.000
  20950357.450    -1641309.13249  -1273995.72547  20950357.249    20950366.373
       240.000         204.000
  23864516.593   -11856475.51549  -9048982.45345  23864515.949    23864530.456
       213.000         151.000
  22230391.158   -14948478.04649 -11626585.34146  22230390.851    22230401.715
       230.000         180.000
  24503893.459    -5553587.15649  -4303387.97745  24503894.267    24503904.518
       202.000         142.000
  24619321.219    12391083.85049   9645379.42045  24619321.438    24619337.141
       209.000         144.000
  20082242.360    -9643779.62849  -7505518.61247  20082241.753    20082250.486
       244.000         212.000
  23791625.518    15939580.03249  12416165.27345  23791625.820    23791638.760
       215.000         151.000
 02  2 24 15 25 30.0000000  0  9G31G28G27G11G 7G26G 2G 8G13
  23654374.295    10460998.69549   8183680.02645  23654374.477    23654388.294
       212.000         152.000
  20966006.345   -10188214.15849  -7924507.86247  20966005.786    20966013.311
       243.000         210.000
  20955852.509    -1612432.91649  -1251494.88247  20955852.115    20955861.458
       240.000         204.000
  23856069.217   -11900866.04849  -9083572.45345  23856067.918    23856082.380
       214.000         152.000
  22213616.967   -15036626.71849 -11695272.61546  22213616.233    22213626.780
       230.000         180.000
  24487222.236    -5641195.67349  -4371654.48645  24487221.909    24487232.916
       199.000         140.000
  24631693.768    12456101.29549   9696042.03945  24631693.543    24631709.876
       209.000         143.000
  20079360.636    -9658923.23149  -7517318.87247  20079359.639    20079368.668
       244.000         212.000
  23812558.858    16049584.71649  12501882.89445  23812558.978    23812571.981
       216.000         152.000
 02  2 24 15 26  0.0000000  0  9G31G28G27G11G 7G26G 2G 8G13
  23673604.782    10562054.31949   8262424.33045  23673604.724    23673619.147
       211.000         152.000
  20963551.067   -10201116.88049  -7934561.98747  20963550.276    20963558.019
       243.000         209.000
  20961417.114    -1583191.05049  -1228709.12247  20961416.833    20961426.327
       240.000         204.000
  23847679.736   -11944951.84949  -9117925.00945  23847679.035    23847693.367
       214.000         151.000
  22196896.517   -15124493.35649 -11763740.11746  22196896.568    22196906.756
       231.000         181.000
  24470606.267    -5728513.42749  -4439694.42545  24470606.781    24470617.877
       199.000         139.000
  24644061.184    12521091.32849   9746683.29345  24644061.661    24644077.281
       210.000         143.000
  20076541.928    -9673735.78949  -7528861.17647  20076541.260    20076550.006
       244.000         212.000
  23833510.017    16159682.67449  12587673.18945  23833511.293    23833523.746
       215.000         153.000
 02  2 24 15 26 30.0000000  0  9G31G28G27G11G 7G26G 2G 8G13
  23692882.029    10663355.54149   8341360.01445  23692882.309    23692895.861
       213.000         153.000
  20961139.801   -10213788.13549  -7944435.74047  20961139.225    20961146.782
       243.000         209.000
  20967051.415    -1553583.19049  -1205638.16447  20967051.103    20967060.336
       241.000         204.000
  23839348.862   -11988730.62249  -9152038.32545  23839348.013    23839362.585
       214.000         150.000
  22180230.043   -15212076.28249 -11831986.54646  22180229.607    22180240.565
       231.000         182.000
  24454045.989    -5815538.31849  -4507506.13245  24454046.756    24454057.258
       197.000         138.000
  24656423.385    12586053.48949   9797302.83045  24656423.753    24656440.326
       209.000         142.000
  20073786.415    -9688216.22549  -7540144.67947  20073785.687    20073794.693
       244.000         212.000
  23854478.487    16269871.41549  12673534.23245  23854478.658    23854492.931
       217.000         153.000
 02  2 24 15 27  0.0000000  0  9G31G28G27G11G 7G26G 2G 8G13
  23712205.419    10764899.03249   8420484.47645  23712205.492    23712219.927
       213.000         153.000
  20958772.402   -10226229.13849  -7954130.07947  20958771.824    20958779.545
       243.000         209.000
  20972755.438    -1523608.85849  -1182281.64547  20972755.254    20972764.567
       240.000         204.000
  23831076.922   -12032200.17149  -9185910.69245  23831077.129    23831089.648
       216.000         149.000
  22163617.827   -15299374.00449 -11900010.73346  22163616.907    22163627.619
       230.000         182.000
  24437542.000    -5902268.21849  -4575087.99945  24437543.721    24437553.003
       201.000         139.000
  24668780.153    12650987.30649   9847900.29945  24668779.969    24668797.778
       208.000         141.000
  20071094.271    -9702363.65649  -7551168.70647  20071093.611    20071102.403
       244.000         212.000
  23875463.632    16380147.56649  12759463.36945  23875463.231    23875475.991
       215.000         153.000
 02  2 24 15 27 30.0000000  0  9G31G28G27G11G 7G26G 2G 8G13
  23731574.405    10866682.22049   8499795.70445  23731574.723    23731588.158
       214.000         153.000
  20956448.683   -10238440.50549  -7963645.48447  20956448.163    20956455.856
       243.000         210.000
  20978529.363    -1493267.25449  -1158638.93747  20978529.047    20978538.530
       240.000         204.000
  23822864.391   -12075357.89649  -9219540.10545  23822864.434    23822877.110
       217.000         150.000
  22147060.309   -15386384.14949 -11967810.82846  22147060.149    22147071.050
       230.000         183.000
  24421094.776    -5988700.30849  -4642437.80245  24421094.678    24421106.287
       203.000         142.000
  24681131.598    12715893.13949   9898475.95845  24681130.249    24681147.499
       208.000         141.000
  20068465.860    -9716176.36149  -7561931.90847  20068465.001    20068474.060
       243.000         212.000
  23896464.906    16490508.54549  12845458.61445  23896465.881    23896478.346
       215.000         152.000
 02  2 24 15 28  0.0000000  0  9G31G28G27G11G 7G26G 2G 8G13
  23750988.507    10968702.40849   8579291.61045  23750989.582    23751002.730
       214.000         153.000
  20954168.589   -10250422.82349  -7972982.41347  20954168.001    20954175.705
       243.000         210.000
  20984373.257    -1462557.69449  -1134709.52147  20984372.991    20984382.388
       240.000         204.000
  23814711.763   -12118201.36249  -9252924.63045  23814711.848    23814725.395
       218.000         152.000
  22130557.945   -15473104.56049 -12035385.16346  22130557.144    22130568.884
       230.000         183.000
  24404704.576    -6074832.16249  -4709553.66345  24404705.174    24404716.271
       204.000         143.000
  24693477.582    12780771.06049   9949029.86445  24693476.962    24693494.274
       207.000         139.000
  20065901.437    -9729652.76649  -7572433.05447  20065900.876    20065909.478
       244.000         212.000
  23917481.834    16600952.04449  12931518.14645  23917482.621    23917496.166
       213.000         151.000
 02  2 24 15 28 30.0000000  0  9G31G28G27G11G 7G26G 2G 8G13
  23770447.146    11070956.75849   8658969.99045  23770447.672    23770461.920
       214.000         152.000
  20951931.900   -10262176.93849  -7982141.52247  20951931.310    20951938.960
       243.000         210.000
  20990287.375    -1431479.46849  -1110492.82847  20990287.237    20990296.554
       240.000         204.000
  23806619.304   -12160727.92249  -9286062.21445  23806619.190    23806632.136
       216.000         152.000
  22114111.110   -15559533.32049 -12102732.24146  22114110.350    22114121.545
       231.000         183.000
  24388372.065    -6160661.04149  -4776433.43145  24388372.691    24388382.747
       208.000         144.000
  24705818.252    12845620.97649   9999561.93545  24705818.278    24705834.619
       207.000         139.000
  20063401.231    -9742791.61349  -7582671.17047  20063400.487    20063409.456
       244.000         212.000
  23938513.945    16711475.24249  13017639.79045  23938513.812    23938528.467
       214.000         150.000
 02  2 24 15 29  0.0000000  0  9G31G28G27G11G 7G26G 2G 8G13
  23789949.842    11173442.42749   8738828.61845  23789950.190    23789964.269
       214.000         150.000
  20949738.478   -10273703.64449  -7991123.42747  20949738.028    20949745.481
       243.000         210.000
  20996271.750    -1400031.82249  -1085988.27747  20996271.724    20996280.967
       241.000         204.000
  23798587.421   -12202935.14049  -9318950.95645  23798585.562    23798600.329
       213.000         152.000
  22097720.166   -15645668.23149 -12169850.35046  22097719.347    22097730.730
       231.000         184.000
  24372097.631    -6246184.59049  -4843075.28645  24372097.198    24372108.792
       207.000         146.000
  24718153.739    12910442.83549  10050072.14745  24718153.359    24718171.673
       206.000         139.000
  20060965.616    -9755591.18649  -7592644.91648  20060964.913    20060973.760
       244.000         213.000
  23959560.803    16822075.81249  13103821.69845  23959560.202    23959574.302
       212.000         148.000
 02  2 24 15 29 30.0000000  0  9G31G28G27G11G 7G26G 2G 8G13
  23809496.045    11276156.73449   8818865.42445  23809494.890    23809511.126
       214.000         147.000
  20947588.210   -10285003.67149  -7999928.69547  20947587.617    20947595.235
       243.000         210.000
  21002326.637    -1368214.00749  -1061195.27747  21002326.542    21002336.014
       241.000         205.000
  23790616.582   -12244820.53649  -9351588.91145  23790613.991    23790629.938
       213.000         150.000
  22081385.521   -15731507.26349 -12236737.88846  22081384.945    22081396.517
       231.000         185.000
  24355881.636    -6331400.12949  -4909477.12045  24355881.544    24355892.403
       208.000         145.000
  24730483.904    12975236.63549  10100560.49645  24730484.002    24730500.706
       209.000         138.000
  20058594.754    -9768050.38049  -7602353.42948  20058594.124    20058602.998
       245.000         213.000
  23980621.864    16932751.03649  13190061.77945  23980622.331    23980635.018
       212.000         147.000
 02  2 24 15 30  0.0000000  0  9G31G28G27G11G 7G26G 2G 8G13
  23829085.153    11379096.66349   8899078.02245  23829085.158    23829098.268
       211.000         145.000
  20945480.928   -10296077.78949  -8008557.93047  20945480.346    20945487.961
       243.000         210.000
  21008452.018    -1336025.39949  -1036113.35447  21008451.722    21008461.438
       240.000         204.000
  23782707.523   -12286381.61849  -9383974.16845  23782706.905    23782722.073
       215.000         151.000
  22065107.568   -15817048.41949 -12303393.32246  22065106.784    22065117.557
       231.000         185.000
  24339724.891    -6416305.12149  -4975636.97245  24339725.189    24339736.594
       210.000         144.000
  24742808.690    13040002.47349  10151027.06545  24742808.440    24742825.001
       208.000         137.000
  20056288.978    -9780167.59949  -7611795.47148  20056288.271    20056297.066
       244.000         213.000
  24001696.570    17043498.23049  13276357.96545  24001696.751    24001711.421
       212.000         146.000
 02  2 24 15 30 30.0000000  0  9G31G28G27G11G 7G26G 2G 8G13
  23848716.601    11482259.40849   8979464.26045  23848716.767    23848730.467
       211.000         142.000
  20943416.487   -10306926.81949  -8017011.77447  20943415.975    20943423.432
       243.000         210.000
  21014648.050    -1303465.36549  -1010742.00547  21014647.532    21014657.485
       240.000         204.000
  23774860.919   -12327615.94849  -9416104.82445  23774861.306    23774874.589
       217.000         154.000
  22048886.716   -15902289.71349 -12369815.09146  22048885.884    22048897.146
       231.000         186.000
  24323627.573    -6500897.25749  -5041553.04945  24323627.383    24323638.376
       209.000         144.000
  24755128.075    13104740.48749  10201471.95945  24755127.932    24755146.924
       203.000         136.000
  20054048.560    -9791941.34449  -7620969.86948  20054047.802    20054056.706
       244.000         213.000
  24022784.524    17154314.77849  13362708.16845  24022785.232    24022798.631
       213.000         145.000
 02  2 24 15 31  0.0000000  0  9G31G28G27G11G 7G26G 2G 8G13
  23868389.992    11585642.33949   9060022.04945  23868390.287    23868404.313
       210.000         141.000
  20941394.681   -10317551.66449  -8025290.92947  20941393.995    20941401.726
       243.000         209.000
  21020914.891    -1270533.16249   -985080.65647  21020914.454    21020924.459
       239.000         204.000
  23767077.047   -12368521.11249  -9447978.97445  23767076.775    23767091.674
       218.000         155.000
  22032723.296   -15987229.17149 -12436001.66046  22032722.783    22032733.175
       231.000         186.000
  24307590.224    -6585173.95749  -5107223.31745  24307590.405    24307601.572
       210.000         145.000
  24767442.146    13169450.67849  10251895.15645  24767441.517    24767460.205
       206.000         135.000
  20051873.756    -9803370.37349  -7629875.65448  20051873.107    20051881.842
       244.000         213.000
  24043885.203    17265198.12749  13449110.44245  24043886.424    24043899.368
       213.000         145.000
 02  2 24 15 31 30.0000000  0  9G31G28G27G11G 7G26G 2G 8G13
  23888104.684    11689242.24149   9140748.91445  23888104.669    23888119.015
       208.000         141.000
  20939415.360   -10327953.30049  -8033396.15447  20939414.675    20939422.457
       243.000         209.000
  21027252.584    -1237228.58049   -959129.13747  21027252.186    21027262.199
       239.000         203.000
  23759356.319   -12409094.89449  -9479594.90445  23759356.250    23759370.206
       219.000         157.000
  22016617.610   -16071865.11249 -12501951.71946  22016616.943    22016628.065
       231.000         186.000
  24291613.453    -6669132.99249  -5172646.05445  24291613.206    24291624.177
       211.000         144.000
  24779750.909    13234132.68749  10302296.39245  24779749.227    24779768.629
       206.000         135.000
  20049764.764    -9814453.42649  -7638511.85448  20049764.217    20049773.002
       245.000         213.000
  24064998.140    17376145.47349  13535562.57445  24064998.708    24065012.646
       215.000         145.000
 02  2 24 15 32  0.0000000  0  9G31G28G27G11G 7G26G 2G 8G13
  23907860.034    11793056.19849   9221642.55245  23907859.703    23907875.523
       209.000         143.000
  20937478.368   -10338132.55649  -8041328.09547  20937477.716    20937485.458
       243.000         209.000
  21033661.274    -1203550.98249   -932886.95647  21033660.850    21033670.987
       239.000         203.000
  23751699.087   -12449335.06349  -9510950.87145  23751700.510    23751712.382
       220.000         156.000
  22000570.038   -16156195.50949 -12567663.68946  22000569.233    22000580.244
       231.000         186.000
  24275697.570    -6752771.82549  -5237819.29145  24275697.105    24275708.444
       214.000         145.000
  24792054.354    13298786.82549  10352675.90745  24792054.388    24792071.964
       207.000         137.000
  20047721.867    -9825189.28849  -7646877.51448  20047721.311    20047730.017
       245.000         213.000
  24086122.696    17487154.23049  13622062.55445  24086123.763    24086136.849
       215.000         144.000
 02  2 24 15 32 30.0000000  0  9G31G28G27G11G 7G26G 2G 8G13
  23927655.667    11897081.69949   9302701.02945  23927655.719    23927670.464
       209.000         145.000
  20935583.559   -10348089.91849  -8049087.13347  20935582.997    20935590.944
       242.000         209.000
  21040141.021    -1169499.66649   -906353.56647  21040140.534    21040150.579
       239.000         203.000
  23744105.839   -12489238.91649  -9542044.78545  23744106.647    23744118.103
       220.000         155.000
  21984581.055   -16240218.08749 -12633135.79546  21984580.072    21984591.447
       232.000         187.000
  24259843.165    -6836087.79149  -5302740.91845  24259843.330    24259854.752
       214.000         146.000
  24804352.694    13363413.28049  10403033.85745  24804353.194    24804371.673
       205.000         138.000
  20045745.323    -9835576.36549  -7654971.39748  20045744.690    20045753.540
       245.000         213.000
  24107258.489    17598222.15349  13708608.64245  24107259.881    24107273.685
       213.000         143.000
 02  2 24 15 33  0.0000000  0  9G31G28G27G11G 7G26G 2G 8G13
  23947490.934    12001315.50949   9383921.81045  23947491.517    23947506.200
       212.000         148.000
  20933730.707   -10357826.76249  -8056674.33947  20933730.250    20933737.750
       243.000         209.000
  21046691.975    -1135074.33549   -879528.73747  21046691.599    21046701.534
       238.000         202.000
  23736576.851   -12528804.43949  -9572875.08045  23736576.880    23736588.519
       216.000         153.000
  21968650.939   -16323931.49749 -12698366.99446  21968650.150    21968661.579
       232.000         187.000
  24244050.620    -6919078.79849  -5367409.34345  24244051.073    24244061.688
       214.000         147.000
  24816645.579    13428011.56849  10453369.84845  24816645.884    24816663.796
       209.000         140.000
  20043835.391    -9845613.42649  -7662792.53348  20043834.712    20043843.730
       245.000         213.000
  24128404.873    17709345.80549  13795198.14245  24128404.843    24128419.013
       214.000         143.000
 02  2 24 15 33 30.0000000  0  9G31G28G27G11G 7G26G 2G 8G13
  23967365.457    12105755.51849   9465303.26445  23967365.598    23967380.315
       213.000         151.000
  20931919.792   -10367343.31849  -8064089.88947  20931919.324    20931926.909
       242.000         209.000
  21053314.382    -1100273.79649   -852411.53947  21053314.014    21053324.189
       238.000         202.000
  23729112.528   -12568028.74749  -9603439.49245  23729110.339    23729124.618
       215.000         150.000
  21952780.166   -16407333.15849 -12763355.27147  21952779.347    21952790.252
       232.000         188.000
  24228320.523    -7001741.75749  -5431822.12645  24228320.633    24228331.560
       216.000         148.000
  24828933.332    13492582.41849  10503684.46845  24828933.447    24828951.835
       209.000         141.000
  20041992.377    -9855298.58549  -7670339.46348  20041991.678    20042000.574
       244.000         213.000
  24149561.542    17820523.44649  13881829.70145  24149562.905    24149576.201
       213.000         143.000
 02  2 24 15 34  0.0000000  0  9G31G28G27G11G 7G26G 2G 8G13
  23987278.627    12210398.46249   9546842.84345  23987279.072    23987294.357
       214.000         153.000
  20930150.626   -10376640.63049  -8071334.60747  20930149.859    20930157.610
       244.000         209.000
  21060008.237    -1065097.87649   -825001.84047  21060007.930    21060017.929
       238.000         202.000
  23721713.379   -12606909.88149  -9633736.46745  23721711.791    23721725.706
       213.000         148.000
  21936968.952   -16490421.50949 -12828099.41047  21936968.143    21936979.242
       233.000         188.000
  24212653.225    -7084074.71449  -5495977.76945  24212653.209    24212664.956
       215.000         149.000
  24841215.790    13557125.48749  10553977.44045  24841215.434    24841234.339
       208.000         141.000
  20040216.509    -9864631.05249  -7677611.56948  20040215.917    20040224.858
       245.000         213.000
  24170727.887    17931751.97549  13968500.90345  24170729.242    24170743.395
       211.000         143.000
 02  2 24 15 34 30.0000000  0  9G31G28G27G11G 7G26G 2G 8G13
  24007230.048    12315242.15849   9628538.86145  24007231.250    24007245.633
       215.000         154.000
  20928423.109   -10385719.15749  -8078408.84447  20928422.545    20928430.433
       242.000         209.000
  21066773.666    -1029545.70049   -797298.95347  21066773.496    21066783.498
       239.000         202.000
  23714380.181   -12645444.97249  -9663763.80445  23714379.107    23714393.340
       215.000         147.000
  21921217.820   -16573194.14549 -12892597.53647  21921216.867    21921228.027
       233.000         189.000
  24197049.231    -7166074.68549  -5559873.94245  24197050.331    24197059.997
       215.000         149.000
  24853493.055    13621641.33549  10604249.19345  24853492.145    24853511.848
       208.000         141.000
  20038508.133    -9873608.84449  -7684607.30348  20038507.340    20038516.400
       244.000         213.000
  24191903.564    18043029.21749  14055210.08545  24191903.554    24191917.680
       211.000         143.000
 02  2 24 15 35  0.0000000  0  9G31G28G27G11G 7G26G 2G 8G13
  24027219.033    12420283.26149   9710388.70045  24027219.402    24027234.242
       214.000         155.000
  20926736.961   -10394580.20249  -8085313.61547  20926736.392    20926744.192
       243.000         209.000
  21073610.747     -993617.17849   -769302.81647  21073610.593    21073620.437
       238.000         202.000
  23707113.373   -12683632.51049  -9693520.34145  23707112.887    23707125.238
       219.000         148.000
  21905527.034   -16655649.82749 -12956848.68947  21905526.150    21905537.551
       234.000         190.000
  24181508.952    -7247739.81549  -5623509.19945  24181509.299    24181519.772
       215.000         147.000
  24865764.947    13686129.33449  10654499.25945  24865764.749    24865782.996
       206.000         141.000
  20036867.366    -9882231.32349  -7691326.17148  20036866.696    20036875.652
       245.000         213.000
  24213087.833    18154352.08749  14141954.81445  24213089.407    24213102.917
       213.000         143.000
 02  2 24 15 35 30.0000000  0  9G31G28G27G11G 7G26G 2G 8G13
  24047244.993    12525518.75549   9792390.00345  24047245.029    24047260.900
       213.000         153.000
  20925092.028   -10403224.65849  -8092049.61347  20925091.581    20925099.132
       243.000         209.000
  21080519.514     -957311.82949   -741013.04847  21080519.070    21080529.138
       238.000         202.000
  23699913.350   -12721470.05049  -9723004.15345  23699913.761    23699926.194
       221.000         152.000
  21889896.869   -16737786.58249 -13020851.32347  21889895.930    21889906.925
       233.000         190.000
  24166032.815    -7329067.67349  -5686881.65445  24166033.233    24166044.510
       214.000         147.000
  24878031.603    13750589.66249  10704727.75045  24878032.047    24878048.906
       208.000         141.000
  20035294.504    -9890496.95849  -7697766.97548  20035293.775    20035302.696
       244.000         213.000
  24234280.390    18265717.92049  14228733.00145  24234280.687    24234295.159
       214.000         143.000
 02  2 24 15 36  0.0000000  0  9G31G28G27G11G 7G26G 2G 8G13
  24067307.552    12630946.48149   9874541.09645  24067306.690    24067323.330
       212.000         151.000
  20923488.228   -10411652.97749  -8098617.18847  20923487.631    20923495.339
       243.000         209.000
  21087500.134     -920628.97749   -712429.12147  21087499.858    21087509.836
       238.000         202.000
  23692780.406   -12758955.04349  -9752213.24545  23692780.499    23692794.515
       221.000         155.000
  21874327.794   -16819602.39949 -13084603.87647  21874327.048    21874338.238
       234.000         190.000
  24150621.272    -7410055.70449  -5749989.30845  24150621.023    24150631.354
       214.000         146.000
  24890293.072    13815022.57649  10754934.89445  24890292.779    24890310.540
       207.000         140.000
  20033789.845    -9898404.19649  -7703928.51448  20033789.056    20033798.001
       244.000         213.000
  24255480.659    18377124.50149  14315542.95045  24255481.949    24255495.900
       213.000         144.000
 02  2 24 15 36 30.0000000  0  9G31G28G27G11G 7G26G 2G 8G13
  24087406.067    12736563.44349   9956839.63845  24087406.186    24087421.582
       210.000         148.000
  20921925.342   -10419866.13049  -8105017.10647  20921924.723    20921932.454
       243.000         209.000
  21094552.650     -883568.06849   -683550.60747  21094552.295    21094562.902
       238.000         202.000
  23685714.986   -12796085.16649  -9781145.79645  23685714.721    23685728.813
       220.000         158.000
  21858820.202   -16901095.16349 -13148104.70747  21858819.624    21858830.380
       234.000         189.000
  24135274.982    -7490701.29649  -5812830.13745  24135275.187    24135285.823
       213.000         145.000
  24902549.227    13879428.18649  10805120.74445  24902548.954    24902566.909
       208.000         139.000
  20032353.625    -9905951.86449  -7709809.87148  20032352.901    20032361.989
       244.000         213.000
  24276688.207    18488569.23949  14402382.62645  24276688.248    24276703.252
       214.000         143.000
 02  2 24 15 37  0.0000000  0  8G31G28G27G11G 7G26G 8G13
  24107540.099    12842366.89649  10039283.49045  24107539.678    24107555.849
       207.000         144.000
  20920403.329   -10427864.71249  -8111249.82147  20920402.767    20920410.398
       243.000         209.000
  21101677.207     -846128.59949   -654377.11847  21101676.743    21101687.225
       238.000         202.000
  23678717.412   -12832858.06149  -9809799.98945  23678717.385    23678731.138
       222.000         159.000
  21843374.455   -16982263.28249 -13211352.56647  21843373.597    21843384.237
       234.000         189.000
  24119994.246    -7571002.10749  -5875402.29145  24119994.645    24120004.588
       213.000         145.000
  20030986.124    -9913138.45249  -7715409.86848  20030985.637    20030994.515
       245.000         214.000
  24297902.498    18600049.60549  14489250.05745  24297903.451    24297918.036
       212.000         143.000
 02  2 24 15 37 30.0000000  0  8G31G28G27G11G 7G26G 8G13
  24127709.059    12948354.11549  10121870.53245  24127709.504    24127724.389
       206.000         140.000
  20918921.961   -10435649.63649  -8117316.05447  20918921.402    20918929.070
       243.000         209.000
  21108873.863     -808310.16449   -624908.33147  21108873.381    21108884.059
       238.000         201.000
  23671788.268   -12869271.40649  -9838174.01345  23671787.562    23671802.444
       222.000         160.000
  21827990.832   -17063104.69949 -13274345.85447  21827990.017    21828000.631
       234.000         188.000
  24104779.695    -7650955.59849  -5937703.80045  24104781.017    24104791.068
       213.000         146.000
  20029687.598    -9919962.74249  -7720727.55248  20029686.966    20029695.886
       245.000         214.000
  24319122.980    18711562.68749  14576142.97045  24319124.590    24319138.229
       213.000         142.000
 02  2 24 15 38  0.0000000  0  8G31G28G27G11G 7G26G 8G13
  24147912.449    13054522.24849  10204598.53945  24147911.529    24147928.116
       206.000         136.000
  20917481.140   -10443221.60349  -8123216.34247  20917480.450    20917488.058
       243.000         209.000
  21116142.769     -770112.28549   -595143.87047  21116142.719    21116153.044
       238.000         202.000
  23664927.897   -12905323.09649  -9866266.23645  23664926.063    23664940.235
       218.000         158.000
  21812669.687   -17143617.74549 -13337083.26947  21812668.944    21812679.372
       234.000         188.000
  24089631.645    -7730559.61949  -5999732.99745  24089631.455    24089642.739
       212.000         147.000
  20028458.221    -9926423.39549  -7725761.88248  20028457.577    20028466.391
       245.000         214.000
  24340349.297    18823106.21349  14663059.59245  24340349.926    24340364.812
       212.000         142.000
 02  2 24 15 38 30.0000000  0  8G31G28G27G11G 7G26G 8G13
  24168149.732    13160868.61049  10287465.46645  24168149.708    24168165.609
       206.000         134.000
  20916080.675   -10450581.38549  -8128951.29147  20916080.209    20916087.904
       243.000         209.000
  21123483.973     -731534.41349   -565083.30347  21123483.647    21123494.255
       238.000         202.000
  23658136.653   -12941010.83749  -9894074.83945  23658135.314    23658149.326
       217.000         155.000
  21797411.392   -17223800.45849 -13399563.28947  21797410.707    21797421.446
       234.000         188.000
  24074550.620    -7809811.47649  -6061487.77945  24074551.175    24074561.821
       211.000         149.000
  20027298.325    -9932518.92349  -7730511.69848  20027297.620    20027306.736
       245.000         214.000
  24361580.863    18934677.57449  14749997.92545  24361582.278    24361596.214
       210.000         141.000
 02  2 24 15 39  0.0000000  0  8G31G28G27G11G 7G26G 8G13
  24188420.313    13267390.12649  10370468.85045  24188420.655    24188435.274
       209.000         133.000
  20914720.384   -10457729.91549  -8134521.62647  20914719.841    20914727.580
       243.000         209.000
  21130897.556     -692576.30849   -534726.45147  21130897.604    21130907.681
       239.000         202.000
  23651415.077   -12976332.59149  -9921598.25745  23651413.457    23651426.819
       216.000         153.000
  21782216.280   -17303651.15949 -13461784.58947  21782215.186    21782226.280
       233.000         188.000
  24059537.017    -7888709.05649  -6122966.47645  24059536.999    24059547.021
       210.000         149.000
  20026208.132    -9938248.30249  -7734976.20948  20026207.605    20026216.433
       246.000         214.000
  24382817.193    19046274.02249  14836955.81545  24382817.237    24382832.499
       209.000         139.000
 02  2 24 15 39 30.0000000  0  8G31G28G27G11G 7G26G 8G13
  24208723.857    13374084.67949  10453607.09645  24208722.510    24208741.041
       210.000         135.000
  20913400.250   -10464667.63249  -8139927.69847  20913399.645    20913407.443
       243.000         209.000
  21138383.716     -653237.13349   -504072.66047  21138383.482    21138393.865
       239.000         203.000
  23644763.536   -13011285.73049  -9948834.43745  23644762.891    23644776.452
       217.000         152.000
  21767084.757   -17383167.63649 -13523745.45847  21767083.702    21767095.030
       234.000         189.000
  24044591.284    -7967249.53249  -6184166.93945  24044592.495    24044602.984
       210.000         149.000
  20025187.978    -9943609.64749  -7739153.94648  20025187.411    20025196.252
       246.000         215.000
  24404057.935    19157893.34849  14923931.50845  24404059.211    24404072.673
       207.000         139.000
 02  2 24 15 40  0.0000000  0  8G31G28G27G11G 7G26G 8G13
  24229059.809    13480949.22649  10536877.78445  24229059.441    24229076.027
       212.000         138.000
  20912120.033   -10471395.49949  -8145170.23947  20912119.501    20912127.362
       243.000         209.000
  21145942.402     -613516.82149   -473121.87347  21145942.569    21145952.350
       239.000         203.000
  23638182.453   -13045868.29549  -9975781.85245  23638181.517    23638195.430
       215.000         151.000
  21752017.133   -17462348.27449 -13585444.63047  21752016.223    21752027.421
       235.000         190.000
  24029713.941    -8045430.83349  -6245087.50345  24029714.125    24029724.487
       210.000         148.000
  20024238.027    -9948602.12749  -7743044.24248  20024237.489    20024246.340
       246.000         215.000
  24425302.524    19269532.86449  15010922.93245  24425303.674    24425318.902
       206.000         137.000
 02  2 24 15 40 30.0000000  0  8G31G28G27G11G 7G26G 8G13
  24249427.543    13587980.79549  10620278.63245  24249428.000    24249443.896
       213.000         141.000
  20910879.516   -10477914.65249  -8150250.14747  20910879.110    20910886.821
       243.000         210.000
  21153573.700     -573414.98949   -441873.79647  21153573.516    21153583.630
       240.000         203.000
  23631672.248   -13080078.12549 -10002438.82445  23631671.884    23631683.197
       213.000         149.000
  21737013.789   -17541191.57349 -13646880.94647  21737013.199    21737023.860
       235.000         191.000
  24014905.390    -8123250.63349  -6305726.38445  24014905.727    24014917.265
       208.000         147.000
  20023358.461    -9953224.47649  -7746646.11948  20023357.808    20023366.865
       245.000         215.000
  24446550.429    19381189.81449  15097927.94645  24446551.015    24446566.705
       209.000         136.000
 02  2 24 15 41  0.0000000  0  8G31G28G27G11G 7G26G 8G13
  24269826.653    13695176.99049  10703807.73645  24269826.539    24269844.034
       213.000         144.000
  20909678.675   -10484225.55149  -8155167.77547  20909678.111    20909685.839
       243.000         210.000
  21161277.659     -532931.19949   -410328.09547  21161277.852    21161287.329
       240.000         203.000
  23625233.541   -13113913.05149 -10028803.65445  23625232.852    23625243.892
       216.000         149.000
  21722074.988   -17619695.59349 -13708052.88947  21722074.151    21722085.197
       235.000         192.000
  24000166.050    -8200706.61249  -6366081.77745  24000166.101    24000177.126
       210.000         148.000
  20022549.656    -9957475.13249  -7749958.36848  20022548.938    20022557.975
       245.000         214.000
  24467801.116    19492861.47649  15184944.40345  24467801.743    24467815.937
       206.000         135.000
 02  2 24 15 41 30.0000000  0  8G31G28G27G11G 7G26G 8G13
  24290256.449    13802534.44049  10787462.49145  24290256.975    24290273.834
       213.000         147.000
  20908517.176   -10490329.48349  -8159924.13647  20908516.595    20908524.402
       243.000         209.000
  21169054.317     -492065.56449   -378484.84447  21169054.289    21169063.813
       240.000         202.000
  23618866.648   -13147371.28149 -10054874.95845  23618865.590    23618879.482
       216.000         149.000
  21707201.008   -17697858.92949 -13768959.36847  21707200.038    21707211.023
       235.000         192.000
  23985496.441    -8277796.59549  -6426151.96245  23985497.106    23985507.843
       212.000         149.000
  20021811.677    -9961353.53749  -7752980.54848  20021810.879    20021819.783
       245.000         214.000
  24489054.153    19604545.15249  15271970.23545  24489055.380    24489071.046
       207.000         135.000
 02  2 24 15 42  0.0000000  0  8G31G28G27G11G 7G26G 8G13
  24310716.486    13910050.78149  10871241.06945  24310717.181    24310733.779
       214.000         148.000
  20907394.902   -10496227.09449  -8164519.72247  20907394.292    20907402.198
       242.000         209.000
  21176903.636     -450817.63249   -346343.69447  21176903.215    21176913.170
       239.000         202.000
  23612571.865   -13180450.64849 -10080651.02845  23612570.218    23612584.183
       218.000         150.000
  21692392.149   -17775679.81549 -13829598.99447  21692391.220    21692402.189
       234.000         192.000
  23970896.918    -8354518.23949  -6485935.14445  23970896.853    23970908.635
       211.000         150.000
  20021144.776    -9964858.20949  -7755711.50548  20021143.930    20021152.987
       245.000         214.000
  24510308.934    19716238.40549  15359003.52145  24510309.196    24510326.446
       206.000         135.000
 02  2 24 15 42 30.0000000  0  8G31G28G27G11G 7G26G 8G13
  24331206.336    14017723.48549  10955141.47145  24331206.946    24331223.220
       211.000         149.000
  20906311.799   -10501918.85749  -8168954.91047  20906311.172    20906318.985
       242.000         209.000
  21184825.754     -409186.83649   -313904.21747  21184825.111    21184835.461
       239.000         201.000
  23606349.676   -13213148.80049 -10106130.06245  23606349.404    23606361.952
       220.000         152.000
  21677648.836   -17853156.21249 -13889970.18847  21677647.817    21677658.930
       234.000         192.000
  23956367.981    -8430869.03449  -6545429.32645  23956367.922    23956379.540
       212.000         151.000
  20020549.257    -9967987.66849  -7758150.08948  20020548.603    20020557.357
       245.000         214.000
  24531565.148    19827938.94249  15446042.50145  24531567.209    24531582.231
       207.000         134.000
 02  2 24 15 43  0.0000000  0  8G31G28G27G11G 7G26G 8G13
  24351725.370    14125549.33749  11039161.19845  24351725.521    24351741.683
       210.000         147.000
  20905267.631   -10507406.17149  -8173230.79147  20905267.025    20905275.001
       243.000         209.000
  21192820.735     -367173.12449   -281166.35847  21192820.246    21192830.387
       238.000         200.000
  23600200.470   -13245463.86349 -10131310.55245  23600200.031    23600212.941
       221.000         153.000
  21662971.323   -17930286.72949 -13950071.86847  21662970.697    21662981.553
       234.000         193.000
  23941909.918    -8506847.03749  -6604633.03445  23941909.741    23941920.853
       211.000         151.000
  20020025.372    -9970740.92849  -7760295.52848  20020024.475    20020033.663
       246.000         214.000
  24552822.214    19939643.60549  15533084.68245  24552823.484    24552836.991
       207.000         135.000
 02  2 24 15 43 30.0000000  0  8G31G28G27G11G 7G26G 8G13
  24372273.045    14233526.06549  11123298.49845  24372273.536    24372290.923
       207.000         145.000
  20904262.345   -10512689.14249  -8177347.44547  20904261.641    20904269.633
       242.000         209.000
  21200888.698     -324775.65449   -248129.46247  21200888.051    21200898.273
       238.000         199.000
  23594124.661   -13277393.13149 -10156190.44745  23594124.018    23594136.947
       221.000         155.000
  21648360.094   -18007069.23649 -14009902.37147  21648359.353    21648370.075
       235.000         194.000
  23927523.261    -8582449.46149  -6663544.05345  23927523.001    23927534.637
       209.000         151.000
  20019573.360    -9973116.40649  -7762146.59448  20019572.598    20019581.472
       245.000         214.000
  24574079.602    20051350.45649  15620128.57245  24574080.148    24574096.175
       209.000         135.000
 02  2 24 15 44  0.0000000  0  8G31G28G27G11G 7G26G 8G13
  24392848.877    14341651.02449  11207551.30245  24392849.372    24392865.558
       204.000         143.000
  20903295.788   -10517768.74649  -8181305.62947  20903295.230    20903303.211
       243.000         209.000
  21209029.771     -281994.33349   -214793.47047  21209029.484    21209039.515
       237.000         198.000
  23588122.637   -13308934.71849 -10180768.24845  23588122.413    23588135.326
       221.000         157.000
  21633815.409   -18083502.22049 -14069460.51747  21633814.622    21633825.545
       235.000         195.000
  23913208.490    -8657674.02449  -6722160.65145  23913208.480    23913218.950
       210.000         152.000
  20019193.458    -9975113.03349  -7763702.45448  20019192.731    20019201.622
       245.000         214.000
  24595336.931    20163056.78849  15707172.06345  24595336.783    24595352.217
       209.000         136.000
 02  2 24 15 44 30.0000000  0  8G31G28G27G11G 7G26G 8G13
  24413452.409    14449921.47849  11291917.46645  24413452.848    24413469.262
       204.000         141.000
  20902367.792   -10522645.69049  -8185105.90347  20902367.072    20902375.201
       242.000         209.000
  21217243.931     -238828.70649   -181158.02447  21217243.318    21217253.844
       237.000         198.000
  23582194.675   -13340086.65049 -10205042.42445  23582194.916    23582206.698
       221.000         158.000
  21619337.567   -18159583.80449 -14128744.84447  21619336.685    21619347.580
       235.000         195.000
  23898966.103    -8732518.38149  -6780480.98445  23898966.300    23898976.778
       212.000         152.000
  20018885.975    -9976729.18349  -7764961.84048  20018885.384    20018894.316
       245.000         214.000
  24616593.696    20274760.03249  15794213.13245  24616594.556    24616610.169
       209.000         134.000
 02  2 24 15 45  0.0000000  0  8G31G28G27G11G 7G26G 8G13
  24434083.127    14558334.70949  11376394.86745  24434084.775    24434101.549
       203.000         139.000
  20901478.228   -10527320.63249  -8188748.76747  20901477.678    20901485.392
       243.000         209.000
  21225531.320     -195278.45949   -147222.86847  21225531.171    21225541.463
       236.000         198.000
  23576341.258   -13370846.73149 -10229011.26145  23576341.289    23576353.750
       223.000         159.000
  21604926.894   -18235312.28849 -14187754.02747  21604926.261    21604937.019
       235.000         195.000
  23884796.540    -8806980.18349  -6838503.22145  23884795.920    23884807.988
       213.000         153.000
  20018651.049    -9977963.89049  -7765923.99948  20018650.227    20018659.190
       245.000         214.000
  24637849.433    20386457.89849  15881250.00145  24637851.580    24637866.256
       208.000         135.000
 02  2 24 15 45 30.0000000  0  8G31G28G27G11G 7G26G 8G13
  24454740.531    14666888.14849  11460981.54445  24454740.745    24454757.866
       205.000         139.000
  20900626.902   -10531794.70349  -8192235.12147  20900626.417    20900634.208
       242.000         209.000
  21233891.880     -151343.63549   -112988.05447  21233891.393    21233902.360
       236.000         197.000
  23570562.714   -13401213.26449 -10252673.44145  23570561.560    23570576.119
       220.000         159.000
  21590583.700   -18310686.22949 -14246486.95047  21590583.410    21590593.839
       236.000         196.000
  23870700.170    -8881057.44849  -6896225.82345  23870700.068    23870711.198
       213.000         154.000
  20018488.931    -9978816.03149  -7766588.05348  20018488.039    20018497.245
       244.000         214.000
  24659103.617    20498147.60449  15968280.51245  24659105.037    24659121.409
       209.000         135.000
 02  2 24 15 46  0.0000000  0  7G28G27G11G 7G26G 8G13
  20899813.765   -10536067.95549  -8195564.99247  20899813.110    20899821.151
       243.000         209.000
  21242325.725     -107023.47849    -78452.97747  21242325.274    21242335.513
       236.000         197.000
  23564859.567   -13431183.53249 -10276026.85445  23564858.788    23564871.926
       220.000         159.000
  21576308.379   -18385703.42549 -14304941.88347  21576307.803    21576318.121
       237.000         196.000
  23856677.538    -8954747.19649  -6953646.47145  23856677.336    23856689.058
       213.000         154.000
  20018399.955    -9979283.75149  -7766952.55648  20018399.121    20018408.143
       245.000         214.000
  24680355.855    20609827.20649  16055303.15445  24680357.384    24680373.632
       209.000         134.000
 02  2 24 15 46 30.0000000  0  7G28G27G11G 7G26G 8G13
  20899038.969   -10540139.89949  -8198737.99847  20899038.417    20899046.215
       242.000         209.000
  21250833.272      -62316.54249    -43616.51347  21250832.875    21250843.614
       236.000         197.000
  23559232.332   -13460754.26849 -10299068.95345  23559229.855    23559245.135
       219.000         158.000
  21562101.533   -18460361.02049 -14363116.61447  21562100.938    21562111.404
       238.000         197.000
  23842729.226    -9028046.05949  -7010762.51345  23842728.922    23842740.686
       213.000         153.000
  20018384.567    -9979364.80749  -7767015.76848  20018383.681    20018392.822
       245.000         214.000
  24701605.947    20721495.25349  16142316.77945  24701607.933    24701624.634
       209.000         134.000
 02  2 24 15 47  0.0000000  0  7G28G27G11G 7G26G 8G13
  20898301.834   -10544013.65949  -8201756.57347  20898301.197    20898309.158
       242.000         209.000
  21259414.044      -17224.69349     -8480.12747  21259413.744    21259424.453
       237.000         198.000
  23553680.951   -13489925.83649 -10321799.98845  23553679.107    23553693.596
       219.000         158.000
  21547963.036   -18534659.55249 -14421011.55147  21547962.306    21547973.186
       238.000         198.000
  23828855.351    -9100954.07449  -7067574.01445  23828854.737    23828867.096
       212.000         154.000
  20018442.595    -9979060.08249  -7766778.36948  20018441.871    20018451.037
       245.000         214.000
  24722852.987    20833147.13549  16229317.78545  24722851.346    24722871.639
       208.000         133.000
 02  2 24 15 47 30.0000000  0  6G28G27G11G 7G26G 8
  20897602.385   -10547689.44649  -8204620.88147  20897601.721    20897609.719
       242.000         209.000
  21268068.277       28252.71549     26956.70147  21268068.123    21268078.709
       238.000         198.000
  23548206.014   -13518695.57049 -10344217.92745  23548204.447    23548219.656
       217.000         158.000
  21533893.255   -18608596.86649 -14478625.01347  21533892.656    21533903.288
       238.000         198.000
  23815056.318    -9173468.16249  -7124078.54745  23815056.040    23815067.579
       215.000         154.000
  20018574.380    -9978367.72149  -7766238.91348  20018573.780    20018582.765
       245.000         214.000
 02  2 24 15 48  0.0000000  0  6G28G27G11G 7G26G 8
  20896941.568   -10551162.25749  -8207327.02547  20896940.829    20896949.112
       242.000         209.000
  21276796.969       74121.53049     62698.52447  21276796.880    21276807.334
       238.000         199.000
  23542808.951   -13547055.80249 -10366316.78445  23542807.523    23542822.304
       217.000         157.000
  21519893.506   -18682165.71949 -14535951.36347  21519892.588    21519903.559
       237.000         198.000
  23801333.824    -9245580.73849  -7180270.22645  23801333.580    23801345.891
       215.000         155.000
  20018781.232    -9977281.14649  -7765392.28048  20018780.726    20018789.624
       245.000         214.000
 02  2 24 15 48 30.0000000  0  6G28G27G11G 7G26G 8
  20896317.680   -10554440.95749  -8209881.91447  20896317.051    20896325.146
       242.000         209.000
  21285598.680      120373.85649     98739.17847  21285598.817    21285609.043
       239.000         200.000
  23537488.669   -13575012.72949 -10388101.35445  23537486.597    23537502.688
       216.000         156.000
  21505962.665   -18755372.74449 -14592995.77047  21505961.742    21505972.688
       237.000         198.000
  23787686.566    -9317297.50949  -7236153.48145  23787686.847    23787697.771
       215.000         156.000
  20019061.750    -9975807.19649  -7764243.80048  20019060.913    20019070.213
       245.000         214.000
 02  2 24 15 49  0.0000000  0  6G28G27G11G 7G26G 8
  20895730.764   -10557525.44849  -8212285.47047  20895730.237    20895738.247
       242.000         209.000
  21294473.615      167010.87449    135079.60747  21294473.603    21294483.660
       238.000         200.000
  23532245.852   -13602563.47849 -10409569.46545  23532245.505    23532258.610
       218.000         156.000
  21492101.176   -18828215.24249 -14649756.12847  21492100.329    21492111.233
       237.000         197.000
  23774115.377    -9388615.37249  -7291725.89845  23774115.662    23774127.281
       217.000         156.000
  20019416.408    -9973943.72449  -7762791.79548  20019415.627    20019424.780
       245.000         214.000
 02  2 24 15 49 30.0000000  0  6G28G27G11G 7G26G 8
  20895180.773   -10560415.92249  -8214537.84947  20895180.148    20895188.133
       242.000         209.000
  21303421.739      214032.98349    171720.09847  21303421.448    21303431.963
       238.000         199.000
  23527080.850   -13629705.89749 -10430719.39045  23527080.951    23527093.928
       221.000         157.000
  21478309.383   -18900691.38049 -14706231.01447  21478308.826    21478319.258
       238.000         197.000
  23760620.579    -9459531.82849  -7346985.52445  23760620.954    23760632.138
       218.000         156.000
  20019845.360    -9971689.63849  -7761035.42048  20019844.540    20019853.709
       245.000         214.000
 02  2 24 15 50  0.0000000  0  6G28G27G11G 7G26G 8
  20894667.580   -10563112.99949  -8216639.52247  20894666.753    20894675.069
       243.000         209.000
  21312443.241      261440.77449    208661.12647  21312442.743    21312453.422
       238.000         199.000
  23521994.064   -13656437.70749 -10451549.35845  23521993.952    23522007.537
       221.000         158.000
  21464587.696   -18972799.33249 -14762419.00847  21464587.116    21464597.195
       238.000         197.000
  23747202.610    -9530044.29449  -7401930.34745  23747202.724    23747213.912
       216.000         156.000
  20020349.099    -9969042.73749  -7758972.95248  20020348.281    20020357.480
       245.000         213.000
 02  2 24 15 50 30.0000000  0  6G28G27G11G 7G26G 8
  20894191.145   -10565617.04749  -8218590.78247  20894190.623    20894198.493
       242.000         209.000
  21321538.154      309234.52949    245902.89647  21321537.517    21321548.453
       236.000         198.000
  23516985.979   -13682756.60049 -10472057.58245  23516985.979    23516998.218
       224.000         159.000
  21450936.446   -19044537.09349 -14818318.53947  21450935.676    21450945.904
       237.000         197.000
  23733861.980    -9600150.23049  -7456558.39845  23733861.540    23733873.687
       216.000         155.000
  20020927.762    -9966001.86949  -7756603.49948  20020927.001    20020936.131
       245.000         213.000
 02  2 24 15 51  0.0000000  0  6G28G27G11G 7G26G 8
  20893751.395   -10567928.37649  -8220391.86747  20893750.887    20893758.866
       242.000         209.000
  21330706.560      357414.71149    283445.77747  21330706.219    21330716.487
       236.000         196.000
  23512056.968   -13708660.17049 -10492242.19145  23512057.511    23512068.528
       223.000         160.000
  21437355.975   -19115902.89749 -14873928.23647  21437354.898    21437365.611
       237.000         197.000
  23720599.139    -9669847.09949  -7510867.68845  23720598.601    23720609.926
       217.000         155.000
  20021581.683    -9962565.77949  -7753926.08348  20021580.938    20021590.099
       244.000         213.000
 02  2 24 15 51 30.0000000  0  6G28G27G11G 7G26G 8
  20893348.100   -10570047.92449  -8222043.50847  20893347.427    20893355.404
       243.000         209.000
  21339948.471      405981.37449    321289.80947  21339947.682    21339958.925
       235.000         195.000
  23507207.137   -13734146.94149 -10512102.02245  23507206.689    23507219.565
       221.000         161.000
  21423846.560   -19186895.20949 -14929246.89247  21423845.560    21423856.744
       238.000         197.000
  23707414.478    -9739132.95149  -7564856.70845  23707414.209    23707426.386
       217.000         156.000
  20022311.015    -9958733.21849  -7750939.72648  20022310.303    20022319.268
       244.000         213.000
 02  2 24 15 52  0.0000000  0  6G28G27G11G 7G26G 8
  20892981.339   -10571975.58449  -8223545.62447  20892980.780    20892988.837
       243.000         209.000
  21349264.031      454935.40749    359435.67347  21349263.193    21349274.439
       233.000         195.000
  23502437.035   -13759214.27249 -10531635.00045  23502436.092    23502449.077
       221.000         161.000
  21410408.599   -19257511.99049 -14984272.93247  21410407.663    21410418.565
       237.000         198.000
  23694308.620    -9808004.82649  -7618523.14545  23694309.051    23694321.136
       218.000         156.000
  20023116.168    -9954502.36249  -7747643.01648  20023115.426    20023124.566
       245.000         213.000
 02  2 24 15 52 30.0000000  0  6G28G27G11G 7G26G 8
  20892650.904   -10573712.29849  -8224898.95147  20892650.349    20892658.299
       243.000         209.000
  21358653.453      504276.70749    397883.32247  21358652.842    21358664.022
       234.000         194.000
  23497746.965   -13783860.44749 -10550839.81245  23497746.738    23497759.329
       221.000         160.000
  21397042.412   -19327751.66049 -15039005.11947  21397041.386    21397052.270
       238.000         198.000
  23681281.830    -9876460.73949  -7671865.46645  23681281.300    23681293.948
       216.000         156.000
  20023997.305    -9949872.27149  -7744035.21148  20023996.696    20024005.768
       245.000         214.000
 02  2 24 15 53  0.0000000  0  6G28G27G11G 7G26G 8
  20892356.670   -10575258.83549  -8226104.08647  20892356.013    20892363.911
       242.000         209.000
  21368116.505      554005.13049    436632.61847  21368116.061    21368127.196
       234.000         194.000
  23493137.412   -13808083.71549 -10569715.09945  23493137.729    23493149.788
       223.000         160.000
  21383748.207   -19397613.12149 -15093442.60147  21383747.450    21383757.911
       238.000         198.000
  23668334.675    -9944498.65649  -7724882.05445  23668334.433    23668346.400
       216.000         156.000
  20024954.596    -9944841.97049  -7740115.55748  20024953.993    20024963.151
       245.000         214.000
 02  2 24 15 53 30.0000000  0  6G28G27G11G 7G26G 8
  20892098.400   -10576616.16949  -8227161.78947  20892097.862    20892105.900
       243.000         209.000
  21377653.293      604120.58349    475683.48547  21377653.239    21377664.293
       236.000         195.000
  23488608.669   -13831882.38849 -10588259.53345  23488608.285    23488620.232
       221.000         161.000
  21370526.225   -19467094.87049 -15147584.20647  21370525.283    21370536.148
       238.000         198.000
  23655467.459   -10012116.51849  -7777571.33545  23655466.381    23655478.961
       217.000         156.000
  20025988.219    -9939410.64949  -7735883.42148  20025987.497    20025996.509
       244.000         213.000
 02  2 24 15 54  0.0000000  0  6G28G27G11G 7G26G 8
  20891875.944   -10577785.37649  -8228072.90347  20891875.206    20891883.465
       243.000         209.000
  21387263.722      654622.72049    515035.67647  21387263.775    21387274.614
       236.000         196.000
  23484160.923   -13855255.22149 -10606472.13045  23484159.305    23484173.203
       220.000         161.000
  21357376.743   -19536195.80649 -15201429.06947  21357375.966    21357386.717
       238.000         199.000
  23642680.429   -10079312.88349  -7829932.15545  23642680.773    23642691.700
       216.000         155.000
  20027098.241    -9933577.52049  -7731338.18548  20027097.299    20027106.581
       244.000         213.000
 02  2 24 15 54 30.0000000  0  6G28G27G11G 7G26G 8
  20891689.224   -10578766.74349  -8228837.64847  20891688.405    20891696.582
       242.000         209.000
  21396947.724      705511.92449    554689.47547  21396947.821    21396959.048
       236.000         196.000
  23479794.575   -13878199.98349 -10624351.17245  23479792.828    23479808.156
       219.000         162.000
  21344300.017   -19604914.38249 -15254975.98847  21344299.079    21344310.079
       238.000         199.000
  23629974.097   -10146085.20249  -7881962.56845  23629973.500    23629985.435
       215.000         156.000
  20028284.975    -9927341.17849  -7726478.75348  20028284.087    20028293.389
       244.000         213.000
 02  2 24 15 55  0.0000000  0  6G28G27G11G 7G26G 8
  20891538.110   -10579561.03849  -8229456.62047  20891537.490    20891545.421
       243.000         209.000
  21406705.487      756788.33849    594644.99847  21406705.106    21406716.642
       236.000         197.000
  23475509.987   -13900715.09449 -10641895.42445  23475508.524    23475523.925
       220.000         161.000
  21331296.365   -19673248.91049 -15308223.65247  21331295.611    21331306.261
       239.000         200.000
  23617348.862   -10212431.18649  -7933660.75345  23617348.670    23617360.089
       217.000         156.000
  20029548.696    -9920700.39949  -7721304.17648  20029548.162    20029557.114
       244.000         213.000
 02  2 24 15 55 30.0000000  0  6G28G27G11G 7G26G 8
  20891422.468   -10580168.75649  -8229930.21547  20891421.560    20891429.797
       243.000         209.000
  21416536.899      808452.13749    634902.36847  21416536.590    21416547.948
       235.000         197.000
  23471307.584   -13922798.50149 -10659103.28745  23471307.382    23471321.191
       219.000         161.000
  21318366.129   -19741197.87049 -15361170.87747  21318365.473    21318376.213
       239.000         201.000
  23604805.192   -10278348.72249  -7985025.08645  23604805.143    23604816.634
       216.000         157.000
  20030889.623    -9913654.01449  -7715813.55448  20030888.714    20030898.300
       244.000         213.000
 02  2 24 15 56  0.0000000  0  6G28G27G11G 7G26G 8
  20891342.188   -10580590.82849  -8230259.15647  20891341.635    20891349.652
       243.000         209.000
  21426441.860      860502.79249    675461.19047  21426441.703    21426452.396
       235.000         196.000
  23467187.633   -13944448.74849 -10675973.61845  23467186.825    23467201.700
       221.000         162.000
  21305509.463   -19808760.33849 -15413816.94247  21305508.933    21305519.214
       240.000         201.000
  23592343.391   -10343836.24449  -8036054.33645  23592343.820    23592355.179
       218.000         157.000
  20032307.892    -9906201.39749  -7710006.37948  20032307.362    20032316.496
       245.000         213.000
 02  2 24 15 56 30.0000000  0  6G28G27G11G 7G26G 8
  20891297.069   -10580828.21349  -8230444.18947  20891296.696    20891304.736
       242.000         209.000
  21436420.521      912940.18549    716321.37247  21436420.505    21436430.932
       236.000         196.000
  23463150.502   -13965664.33449 -10692505.25345  23463149.999    23463164.252
       220.000         162.000
  21292726.591   -19875934.83449 -15466160.69447  21292725.753    21292736.359
       240.000         201.000
  23579963.871   -10408891.53349  -8086746.78045  23579963.771    23579975.683
       218.000         157.000
  20033803.614    -9898341.70849  -7703882.00548  20033802.997    20033812.298
       245.000         213.000
 02  2 24 15 57  0.0000000  0  6G28G27G11G 7G26G 8
  20891286.934   -10580881.78649  -8230485.99647  20891286.233    20891294.515
       243.000         209.000
  21446472.707      965764.14349    757482.76447  21446472.756    21446483.353
       235.000         195.000
  23459196.353   -13986443.79549 -10708697.04045  23459196.246    23459209.412
       220.000         162.000
  21280017.685   -19942720.34049 -15518201.33347  21280016.561    21280027.712
       240.000         201.000
  23567666.905   -10473512.91349  -8137101.12745  23567666.734    23567677.751
       216.000         157.000
  20035376.964    -9890074.00249  -7697439.69748  20035376.308    20035385.408
       245.000         213.000
 02  2 24 15 57 30.0000000  0  6G28G27G11G 7G26G 8
  20891311.799   -10580751.34449  -8230384.42147  20891311.206    20891319.472
       242.000         209.000
  21456598.501     1018975.18849    798945.78947  21456598.006    21456608.699
       236.000         193.000
  23455325.577   -14006784.66149 -10724547.06445  23455324.667    23455339.827
       219.000         161.000
  21267383.218   -20009114.81049 -15569937.27147  21267382.438    21267393.179
       239.000         201.000
  23555453.000   -10537697.69149  -8187115.26045  23555452.050    23555464.036
       217.000         157.000
  20037028.298    -9881396.51449  -7690678.07748  20037027.654    20037036.922
       245.000         213.000
 02  2 24 15 58  0.0000000  0  6G28G27G11G 7G26G 8
  20891371.502   -10580437.88549  -8230140.23047  20891370.835    20891379.284
       243.000         209.000
  21466797.997     1072573.29649    840710.43647  21466797.665    21466808.603
       235.000         193.000
  23451538.570   -14026685.33049 -10740054.06445  23451538.378    23451552.587
       221.000         162.000
  21254823.477   -20075116.75749 -15621367.35147  21254822.842    21254833.383
       240.000         202.000
  23543322.499   -10601443.85549  -8236787.61045  23543322.687    23543333.615
       217.000         157.000
  20038757.788    -9872308.27749  -7683596.39348  20038757.187    20038766.375
       245.000         213.000
 02  2 24 15 58 30.0000000  0  6G28G27G11G 7G26G 8
  20891465.869   -10579942.31749  -8229754.13647  20891465.359    20891473.366
       243.000         209.000
  21477070.976     1126557.93149    882776.24647  21477070.563    21477081.705
       235.000         193.000
  23447835.632   -14046144.78649 -10755217.27645  23447836.421    23447848.963
       220.000         162.000
  21242338.563   -20140725.31349 -15672490.89247  21242337.836    21242348.321
       240.000         202.000
  23531275.765   -10664749.79149  -8286116.93745  23531275.797    23531286.763
       216.000         157.000
  20040565.524    -9862808.83749  -7676194.28848  20040564.756    20040573.982
       245.000         213.000
 02  2 24 15 59  0.0000000  0  6G28G27G11G 7G26G 8
  20891594.762   -10579265.21349  -8229226.58447  20891594.240    20891602.329
       243.000         209.000
  21487417.570     1180929.23549    925143.36947  21487417.091    21487427.681
       236.000         193.000
  23444217.035   -14065160.85949 -10770034.97445  23444216.247    23444229.476
       221.000         162.000
  21229928.778   -20205939.10349 -15723306.81947  21229927.927    21229938.658
       240.000         202.000
  23519313.189   -10727613.34849  -8335101.55645  23519313.358    23519324.490
       217.000         157.000
  20042451.701    -9852897.10049  -7668470.91448  20042450.990    20042460.264
       245.000         213.000
 02  2 24 15 59 30.0000000  0  6G28G27G11G 7G26G 8
  20891758.080   -10578407.29849  -8228558.14147  20891757.387    20891765.900
       242.000         209.000
  21497837.738     1235686.89449    967811.55047  21497837.217    21497848.373
       236.000         192.000
  23440683.028   -14083732.37049 -10784506.27045  23440682.893    23440695.485
       221.000         161.000
  21217594.324   -20270756.93949 -15773814.21047  21217593.566    21217604.238
       240.000         202.000
  23507435.177   -10790032.69849  -8383740.03245  23507435.641    23507446.758
       216.000         157.000
  20044416.536    -9842571.97749  -7660425.42548  20044415.860    20044425.094
       245.000         213.000
 02  2 24 16  0  0.0000000  0  6G28G27G11G 7G26G 8
  20891955.670   -10577369.24649  -8227749.33747  20891955.040    20891963.348
       243.000         209.000
  21508331.404     1290830.92949   1010780.79047  21508330.882    21508342.627
       235.000         193.000
  23437234.002   -14101857.71549 -10798629.91045  23437234.230    23437247.156
       222.000         161.000
  21205335.512   -20335177.46249 -15824012.00947  21205334.632    21205345.190
       240.000         203.000
  23495642.089   -10852005.78849  -8432030.77245  23495641.506    23495653.549
       217.000         158.000
  20046460.234    -9831832.66349  -7652057.18648  20046459.455    20046468.678
       245.000         213.000
 02  2 24 16  0 30.0000000  0  6G28G27G11G 7G26G 8
  20892187.463   -10576151.52849  -8226800.52847  20892186.960    20892195.169
       242.000         209.000
  21518898.616     1346361.18549   1054050.98847  21518898.537    21518910.151
       235.000         194.000
  23433870.119   -14119535.40249 -10812404.72445  23433869.510    23433883.116
       221.000         161.000
  21193152.536   -20399199.34849 -15873899.18147  21193151.846    21193162.465
       240.000         203.000
  23483934.252   -10913530.78349  -8479972.34945  23483934.191    23483945.811
       217.000         159.000
  20048582.884    -9820678.24549  -7643365.49348  20048582.345    20048591.581
       245.000         213.000
 02  2 24 16  1  0.0000000  0  6G28G27G11G 7G26G 8
  20892453.275   -10574754.84549  -8225712.26347  20892452.636    20892460.898
       242.000         209.000
  21529539.275     1402277.62149   1097622.09447  21529539.010    21529550.428
       234.000         193.000
  23430591.708   -14136763.55749 -10825829.25445  23430591.069    23430604.616
       221.000         160.000
  21181045.665   -20462821.33249 -15923474.74647  21181045.088    21181055.376
       240.000         203.000
  23472312.109   -10974605.50149  -8527563.05145  23472313.186    23472324.128
       217.000         159.000
  20050784.814    -9809107.49149  -7634349.38048  20050784.051    20050793.483
       244.000         213.000
 02  2 24 16  1 30.0000000  0  6G28G27G11G 7G26G 8
  20892752.979   -10573180.05649  -8224485.21047  20892752.428    20892760.547
       242.000         209.000
  21540253.309     1458579.74549   1141493.73747  21540253.443    21540264.465
       236.000         194.000
  23427399.042   -14153540.89849 -10838902.49945  23427398.130    23427411.379
       221.000         160.000
  21169015.187   -20526042.18049 -15972737.73747  21169014.506    21169024.930
       240.000         203.000
  23460776.019   -11035228.30349  -8574801.60945  23460776.153    23460787.274
       217.000         159.000
  20053066.020    -9797119.75249  -7625008.34348  20053065.322    20053074.777
       245.000         213.000
 02  2 24 16  2  0.0000000  0  6G28G27G11G 7G26G 8
  20893086.412   -10571427.95349  -8223119.98947  20893085.738    20893093.945
       242.000         208.000
  21551040.754     1515267.09549   1185665.55147  21551040.425    21551052.069
       234.000         194.000
  23424292.437   -14169866.21149 -10851623.51745  23424291.800    23424304.070
       219.000         159.000
  21157061.142   -20588861.19749 -16021687.61647  21157060.432    21157071.175
       240.000         203.000
  23449326.325   -11095397.56149  -8621686.74945  23449326.389    23449337.790
       218.000         160.000
  20055426.735    -9784714.40949  -7615341.89948  20055425.918    20055435.501
       244.000         213.000
 02  2 24 16  2 30.0000000  0  6G28G27G11G 7G26G 8
  20893453.511   -10569498.98549  -8221616.94847  20893452.864    20893461.140
       242.000         208.000
  21561901.380     1572339.66549   1230137.52647  21561900.497    21561912.177
       233.000         193.000
  23421272.100   -14185737.91449 -10863991.08745  23421270.342    23421284.847
       220.000         160.000
  21145183.835   -20651276.81949 -16070323.15547  21145183.014    21145193.716
       239.000         203.000
  23437963.265   -11155111.27749  -8668216.91745  23437963.715    23437974.317
       218.000         160.000
  20057867.072    -9771890.34949  -7605349.17848  20057866.198    20057875.941
       245.000         213.000
 02  2 24 16  3  0.0000000  0  6G28G27G11G 7G26G 8
  20893854.205   -10567393.67949  -8219976.50747  20893853.716    20893861.970
       242.000         208.000
  21572835.281     1629797.66849   1274909.84147  21572835.247    21572846.170
       233.000         192.000
  23418338.443   -14201154.23049 -10876003.80645  23418337.352    23418350.769
       221.000         160.000
  21133383.552   -20713287.49949 -16118643.15547  21133382.584    21133393.375
       239.000         203.000
  23426687.270   -11214367.09649  -8714390.29745  23426687.352    23426698.772
       218.000         161.000
  20060387.365    -9758646.31549  -7595029.20748  20060386.613    20060396.227
       245.000         213.000
 02  2 24 16  3 30.0000000  0  6G28G27G11G 7G26G 8
  20894288.324   -10565112.51449  -8218199.03147  20894287.696    20894295.985
       242.000         208.000
  21583842.528     1687640.82449   1319982.28247  21583841.977    21583854.143
       233.000         192.000
  23415491.742   -14216113.60249 -10887660.47345  23415490.553    23415504.654
       221.000         160.000
  21121660.552   -20774892.13849 -16166646.75747  21121659.559    21121670.474
       240.000         203.000
  23415498.627   -11273163.28149  -8760205.51545  23415498.318    23415510.048
       220.000         162.000
  20062987.681    -9744981.63549  -7584381.46448  20062986.863    20062996.431
       244.000         213.000
 02  2 24 16  4  0.0000000  0  6G28G27G11G 7G26G 8
  20894755.809   -10562656.11049  -8216285.00347  20894755.432    20894763.440
       242.000         208.000
  21594923.071     1745869.09749   1365354.79747  21594922.576    21594934.855
       232.000         191.000
  23412732.227   -14230614.50949 -10898959.91345  23412731.953    23412744.428
       221.000         160.000
  21110015.083   -20836089.41549 -16214332.94147  21110014.361    21110024.962
       241.000         204.000
  23404397.957   -11331497.89049  -8805661.06245  23404397.783    23404409.023
       218.000         162.000
  20065668.333    -9730895.05349  -7573404.96648  20065667.607    20065677.001
       244.000         213.000
 02  2 24 16  4 30.0000000  0  6G28G27G11G 7G26G 8
  20895256.453   -10560025.49549  -8214235.22747  20895255.785    20895264.249
       242.000         208.000
  21606076.786     1804481.58249   1411026.70747  21606077.074    21606088.030
       234.000         191.000
  23410060.244   -14244656.17249 -10909901.50345  23410059.993    23410073.166
       222.000         161.000
  21098447.287   -20896878.76749 -16261701.26447  21098446.749    21098457.115
       241.000         204.000
  23393385.386   -11389369.66249  -8850755.96645  23393385.296    23393396.553
       219.000         162.000
  20068429.250    -9716386.44349  -7562099.61648  20068428.546    20068438.087
       244.000         213.000
 02  2 24 16  5  0.0000000  0  6G28G27G11G 7G26G 8
  20895790.011   -10557221.81749  -8212050.59947  20895789.566    20895797.838
       242.000         208.000
  21617303.545     1863477.47649   1456997.39047  21617303.222    21617314.909
       233.000         191.000
  23407475.927   -14258237.38949 -10920484.30345  23407475.632    23407488.437
       220.000         161.000
  21086957.286   -20957259.41649 -16308751.12047  21086956.574    21086966.980
       241.000         205.000
  23382461.141   -11446777.21249  -8895489.13345  23382460.799    23382472.285
       219.000         162.000
  20071270.626    -9701455.14349  -7550464.90048  20071270.009    20071279.614
       244.000         213.000
 02  2 24 16  5 30.0000000  0  6G28G27G11G 7G26G 8
  20896356.515   -10554245.00549  -8209731.05447  20896355.694    20896364.209
       242.000         208.000
  21628603.255     1922857.06649   1503267.03947  21628603.300    21628614.611
       233.000         191.000
  23404979.522   -14271356.34249 -10930706.90945  23404978.720    23404991.464
       221.000         162.000
  21075545.386   -21017229.70349 -16355481.21147  21075544.584    21075554.932
       241.000         205.000
  23371625.626   -11503718.09749  -8939858.67145  23371625.370    23371636.531
       219.000         162.000
  20074192.662    -9686099.93649  -7538499.86548  20074191.906    20074201.359
       244.000         213.000
 02  2 24 16  6  0.0000000  0  6G28G27G11G 7G26G 8
  20896955.940   -10551095.29349  -8207276.79347  20896955.189    20896963.838
       242.000         208.000
  21639976.035     1982620.57349   1549835.85147  21639976.016    21639987.668
       234.000         192.000
  23402571.395   -14284011.34249 -10940567.98845  23402570.757    23402584.304
       222.000         162.000
  21064211.807   -21076788.14449 -16401890.38547  21064210.690    21064221.596
       241.000         205.000
  23360879.352   -11560190.06449  -8983862.81045  23360879.640    23360891.227
       220.000         162.000
  20077195.625    -9670319.67149  -7526203.61548  20077194.987    20077204.440
       245.000         213.000
 02  2 24 16  6 30.0000000  0  6G28G27G11G 7G26G 8
  20897588.023   -10547773.87749  -8204688.73247  20897587.451    20897595.839
       242.000         208.000
  21651421.723     2042767.06149   1596703.10347  21651421.253    21651432.820
       234.000         191.000
  23400251.770   -14296201.47749 -10950066.85245  23400251.923    23400264.467
       221.000         162.000
  21052956.739   -21135934.15249 -16447978.18147  21052955.792    21052966.328
       241.000         205.000
  23350222.539   -11616191.94449  -9027500.66046  23350222.138    23350233.996
       219.000         163.000
  20080279.542    -9654113.90949  -7513575.80848  20080278.862    20080288.581
       245.000         213.000
 02  2 24 16  7  0.0000000  0  6G28G27G11G 7G26G 8
  20898252.726   -10544281.07049  -8201967.12647  20898252.091    20898260.647
       242.000         208.000
  21662940.161     2103296.38849   1643868.65747  21662939.399    21662952.135
       233.000         190.000
  23398020.844   -14307925.46949 -10959202.49445  23398020.268    23398033.628
       221.000         161.000
  21041780.371   -21194666.47449 -16493743.62147  21041779.469    21041789.888
       241.000         206.000
  23339655.589   -11671721.96449  -9070770.81746  23339655.922    23339666.424
       221.000         164.000
  20083444.576    -9637481.75449  -7500615.74848  20083443.981    20083453.397
       245.000         213.000
 02  2 24 16  7 30.0000000  0  6G28G27G11G 7G26G 8
  20898949.913   -10540617.64649  -8199112.56647  20898949.318    20898958.031
       243.000         208.000
  21674531.366     2164208.05349   1691332.14247  21674530.964    21674543.081
       232.000         190.000
  23395878.849   -14319182.03249 -10967973.91645  23395879.090    23395891.358
       222.000         161.000
  21030682.871   -21252984.26149 -16539186.04647  21030681.962    21030692.568
       241.000         206.000
  23329178.785   -11726778.46249  -9113672.00146  23329178.716    23329190.384
       220.000         164.000
  20086690.920    -9620422.46449  -7487322.85548  20086690.254    20086699.864
       245.000         213.000
 02  2 24 16  8  0.0000000  0  6G28G27G11G 7G26G 8
  20899679.525   -10536783.79149  -8196125.20747  20899678.983    20899687.277
       242.000         208.000
  21686195.335     2225502.12549   1739093.60647  21686194.720    21686207.488
       232.000         189.000
  23393826.256   -14329969.53449 -10976379.82945  23393825.182    23393839.356
       222.000         162.000
  21019664.548   -21310885.91049 -16584304.20847  21019663.720    21019674.303
       242.000         206.000
  23318792.371   -11781359.31749  -9156202.54246  23318792.226    23318804.059
       220.000         164.000
  20090018.727    -9602935.08049  -7473696.38448  20090018.070    20090027.662
       245.000         213.000
 02  2 24 16  8 30.0000000  0  6G28G27G11G 7G26G 8
  20900441.362   -10532780.55949  -8193005.86047  20900440.636    20900449.150
       243.000         208.000
  21697931.852     2287177.73449   1787152.37347  21697931.654    21697943.514
       232.000         188.000
  23391862.990   -14340287.25249 -10984419.68945  23391862.561    23391875.584
       221.000         162.000
  21008725.520   -21368371.06849 -16629097.83347  21008724.563    21008735.094
       242.000         206.000
  23308496.723   -11835463.30249  -9198361.51646  23308496.514    23308508.035
       220.000         165.000
  20093428.093    -9585019.19549  -7459736.01748  20093427.520    20093436.948
       245.000         213.000
 02  2 24 16  9  0.0000000  0  6G28G27G11G 7G26G 8
  20901235.406   -10528608.09449  -8189754.64847  20901234.876    20901243.327
       242.000         208.000
  21709741.036     2349234.93649   1835508.48946  21709740.659    21709752.541
       232.000         187.000
  23389989.374   -14350133.30749 -10992092.03345  23389989.757    23390001.865
       222.000         161.000
  20997866.032   -21425438.12649 -16673565.66547  20997865.450    20997875.340
       243.000         206.000
  23298292.312   -11889088.23549  -9240147.19546  23298292.088    23298303.388
       221.000         165.000
  20096919.200    -9566673.61949  -7445440.82448  20096918.543    20096928.141
       245.000         213.000
 02  2 24 16  9 30.0000000  0  6G28G27G11G 7G26G 8
  20902061.486   -10524267.31049  -8186372.28047  20902060.804    20902069.339
       244.000         208.000
  21721622.716     2411672.82249   1884161.25146  21721622.304    21721634.435
       233.000         187.000
  23388205.704   -14359506.95949 -10999396.26845  23388205.093    23388218.297
       222.000         161.000
  20987086.231   -21482086.46349 -16717707.22547  20987085.423    20987095.679
       243.000         207.000
  23288179.268   -11942232.80749  -9281558.56646  23288178.919    23288190.795
       220.000         165.000
  20100492.129    -9547898.03149  -7430810.55648  20100491.409    20100500.960
       245.000         213.000
 02  2 24 16 10  0.0000000  0  6G28G27G11G 7G26G 8
  20902919.508   -10519758.64249  -8182859.08947  20902918.930    20902927.548
       244.000         208.000
  21733576.756     2474491.25949   1933110.52546  21733576.168    21733588.229
       232.000         187.000
  23386512.136   -14368406.99349 -11006331.43245  23386511.385    23386525.121
       221.000         161.000
  20976386.258   -21538315.12949 -16761521.77147  20976385.381    20976395.732
       243.000         207.000
  23278157.912   -11994895.36749  -9322594.33446  23278157.937    23278169.538
       220.000         165.000
  20104147.052    -9528691.48849  -7415844.47848  20104146.419    20104155.988
       245.000         213.000
 02  2 24 16 10 30.0000000  0  6G28G27G11G 7G26G 8
  20903809.430   -10515082.43349  -8179215.34447  20903808.864    20903817.326
       244.000         208.000
  21745603.237     2537690.12349   1982356.25746  21745602.882    21745615.044
       232.000         187.000
  23384908.961   -14376831.74849 -11012896.24545  23384908.485    23384922.424
       222.000         161.000
  20965766.414   -21594122.76349 -16805008.23347  20965765.413    20965776.243
       243.000         208.000
  23268228.608   -12047073.91249  -9363252.94946  23268229.110    23268240.190
       220.000         166.000
  20107884.207    -9509053.03049  -7400541.84048  20107883.572    20107893.026
       245.000         213.000
 02  2 24 16 11  0.0000000  0  6G28G27G11G 7G26G 8
  20904731.019   -10510239.65049  -8175441.80647  20904730.426    20904739.055
       244.000         208.000
  21757701.936     2601268.54049   2031897.73446  21757701.846    21757713.833
       232.000         187.000
  23383396.379   -14384780.41849 -11019090.09245  23383395.732    23383408.671
       220.000         160.000
  20955226.843   -21649508.74249 -16848166.13447  20955225.999    20955236.397
       242.000         208.000
  23258391.712   -12098767.32349  -9403533.54846  23258391.151    23258402.474
       220.000         166.000
  20111703.588    -9488982.42849  -7384902.47048  20111702.838    20111712.452
       244.000         213.000
 02  2 24 16 11 30.0000000  0  6G28G27G11G 7G26G 8
  20905684.206   -10505230.96049  -8171538.99147  20905683.586    20905692.094
       244.000         208.000
  21769872.798     2665225.97449   2081734.54347  21769872.521    21769885.237
       233.000         188.000
  23381974.572   -14392252.01549 -11024912.17445  23381973.996    23381988.009
       219.000         160.000
  20944767.589   -21704472.39049 -16890994.94447  20944766.570    20944777.171
       242.000         208.000
  23248647.453   -12149974.05649  -9443434.90846  23248647.236    23248658.960
       221.000         166.000
  20115605.293    -9468479.11349  -7368925.92348  20115604.637    20115614.266
       245.000         213.000
 02  2 24 16 12  0.0000000  0  6G28G27G11G 7G26G 8
  20906668.859   -10500056.65249  -8167507.12147  20906668.255    20906676.695
       244.000         208.000
  21782115.714     2729562.10849   2131866.43647  21782115.685    21782127.417
       233.000         189.000
  23380643.642   -14399245.45749 -11030361.67145  23380642.678    23380657.419
       218.000         159.000
  20934388.932   -21759012.54649 -16933493.76347  20934388.085    20934398.586
       242.000         208.000
  23238996.092   -12200692.37849  -9482955.68046  23238995.868    23239007.950
       221.000         166.000
  20119589.490    -9447542.29749  -7352611.58348  20119588.789    20119598.340
       244.000         213.000
 02  2 24 16 12 30.0000000  0  6G28G27G11G 7G26G 8
  20907684.971   -10494717.18649  -8163346.55547  20907684.191    20907693.004
       244.000         208.000
  21794430.553     2794276.33949   2182292.95947  21794430.470    21794442.121
       232.000         188.000
  23379403.924   -14405759.66349 -11035437.72045  23379403.636    23379417.965
       218.000         159.000
  20924091.038   -21813128.32149 -16975661.89647  20924090.004    20924100.568
       243.000         208.000
  23229437.954   -12250920.66049  -9522094.61346  23229438.245    23229449.067
       221.000         166.000
  20123656.335    -9426171.16549  -7335958.81448  20123655.533    20123665.382
       245.000         213.000
 02  2 24 16 13  0.0000000  0  6G28G27G11G 7G26G 8
  20908732.412   -10489213.06249  -8159057.68147  20908731.876    20908740.295
       244.000         208.000
  21806817.220     2859368.30549   2233013.82046  21806816.725    21806829.272
       231.000         187.000
  23378255.770   -14411793.25949 -11040139.26445  23378255.610    23378269.705
       219.000         159.000
  20913874.112   -21866818.66449 -17017498.52347  20913873.197    20913883.741
       244.000         208.000
  23219973.440   -12300657.13549  -9560850.30846  23219972.897    23219985.420
       222.000         167.000
  20127805.980    -9404364.83649  -7318966.93148  20127805.260    20127814.940
       244.000         213.000
 02  2 24 16 13 30.0000000  0  6G28G27G11G 7G26G 8
  20909810.970   -10483545.31449  -8154641.30847  20909810.559    20909818.856
       244.000         208.000
  21819275.551     2924836.98449   2284028.21046  21819275.170    21819287.418
       231.000         187.000
  23377199.273   -14417345.55949 -11044465.78245  23377200.131    23377212.111
       220.000         159.000
  20903738.219   -21920083.12449 -17059003.29847  20903737.184    20903747.840
       244.000         208.000
  23210602.736   -12349900.95349  -9599222.11546  23210602.015    23210614.621
       221.000         167.000
  20132038.387    -9382123.50749  -7301636.08447  20132037.730    20132047.433
       244.000         212.000
 02  2 24 16 14  0.0000000  0  6G28G27G11G 7G26G 8
  20910920.582   -10477714.48749  -8150097.86447  20910920.001    20910928.727
       244.000         208.000
  21831805.584     2990681.98049   2335335.84046  21831805.386    21831817.873
       231.000         187.000
  23376234.533   -14422415.68549 -11048416.56045  23376234.769    23376247.891
       220.000         159.000
  20893683.543   -21972920.85649 -17100175.55547  20893682.535    20893693.087
       245.000         209.000
  23201326.050   -12398650.48449  -9637208.76746  23201326.106    23201337.505
       220.000         166.000
  20136353.782    -9359446.16349  -7283965.49048  20136352.943    20136362.944
       244.000         213.000
 02  2 24 16 14 30.0000000  0  6G28G27G11G 7G26G 8
  20912061.152   -10471720.82649  -8145427.53847  20912060.532    20912069.103
       244.000         208.000
  21844407.132     3056902.86149   2386936.35946  21844406.712    21844418.704
       230.000         186.000
  23375361.782   -14427002.40949 -11051990.65845  23375362.134    23375375.133
       220.000         159.000
  20883710.278   -22025330.86849 -17141014.52747  20883709.279    20883719.829
       244.000         209.000
  23192143.634   -12446904.05249  -9674808.96246  23192143.223    23192155.427
       221.000         166.000
  20140752.303    -9336332.23449  -7265954.70647  20140751.468    20140761.386
       244.000         212.000
 02  2 24 16 15  0.0000000  0  6G28G27G11G 7G26G 8
  20913232.727   -10465564.44349  -8140630.41547  20913232.211    20913240.866
       244.000         208.000
  21857080.148     3123499.60049   2438829.76046  21857079.958    21857091.970
       230.000         185.000
  23374581.230   -14431104.47449 -11055187.11545  23374580.275    23374595.356
       219.000         159.000
  20873818.601   -22077312.06949 -17181519.36247  20873817.837    20873828.103
       244.000         209.000
  23183055.995   -12494659.80449  -9712021.23646  23183055.135    23183067.302
       221.000         166.000
  20145234.000    -9312780.77249  -7247602.98447  20145233.215    20145243.081
       244.000         212.000
 02  2 24 16 15 30.0000000  0  6G28G27G11G 7G26G 8
  20914435.091   -10459246.15349  -8135707.12647  20914434.438    20914443.199
       244.000         208.000
  21869824.517     3190471.18349   2491015.25046  21869824.316    21869835.714
       230.000         184.000
  23373893.010   -14434721.19449 -11058005.37845  23373892.821    23373904.748
       220.000         158.000
  20864008.609   -22128863.82649 -17221689.55647  20864007.608    20864018.156
       243.000         208.000
  23174063.261   -12541916.74949  -9748844.83046  23174063.040    23174074.875
       221.000         167.000
  20149799.015    -9288791.60849  -7228910.19647  20149798.185    20149808.229
       243.000         212.000
